<?xml version="1.0" encoding="UTF-8" standalone="no" ?>
<gpx xmlns="http://www.topografix.com/GPX/1/1" xmlns:xsi="http://www.w3.org/2001/XMLSchema-instance" xsi:schemaLocation="http://www.topografix.com/GPX/1/1 http://www.topografix.com/GPX/1/1/gpx.xsd" version="1.1" creator="VisuGPX - https://www.visugpx.com">
  <metadata>
    <name>Montlaur : boucle 2</name>
    <desc><![CDATA[Montlaur, Bennac, le Mas Viel, les Ramondens, Briols]]></desc>
  </metadata>
  <trk>
    <name><![CDATA[Montlaur : boucle 2]]></name>
    <trkseg>
      <trkpt lat="43.87852" lon="2.83525">
        <ele>343</ele>
        <time>2021-05-26T07:36:17.000Z</time>
      </trkpt>
      <trkpt lat="43.87869" lon="2.8352">
        <ele>343.79998779297</ele>
        <time>2021-05-26T07:36:32.000Z</time>
      </trkpt>
      <trkpt lat="43.87887" lon="2.83525">
        <ele>345.20001220703</ele>
        <time>2021-05-26T07:36:47.000Z</time>
      </trkpt>
      <trkpt lat="43.87905" lon="2.83532">
        <ele>346.20001220703</ele>
        <time>2021-05-26T07:37:02.000Z</time>
      </trkpt>
      <trkpt lat="43.87924" lon="2.83531">
        <ele>348.60000610352</ele>
        <time>2021-05-26T07:37:20.000Z</time>
      </trkpt>
      <trkpt lat="43.87935" lon="2.83532">
        <ele>350</ele>
        <time>2021-05-26T07:37:38.000Z</time>
      </trkpt>
      <trkpt lat="43.87934" lon="2.83526">
        <ele>350.60000610352</ele>
        <time>2021-05-26T07:37:41.000Z</time>
      </trkpt>
      <trkpt lat="43.87928" lon="2.83515">
        <ele>351.39999389648</ele>
        <time>2021-05-26T07:37:52.000Z</time>
      </trkpt>
      <trkpt lat="43.87911" lon="2.83503">
        <ele>350.79998779297</ele>
        <time>2021-05-26T07:38:08.000Z</time>
      </trkpt>
      <trkpt lat="43.8791" lon="2.83478">
        <ele>352.39999389648</ele>
        <time>2021-05-26T07:38:24.000Z</time>
      </trkpt>
      <trkpt lat="43.87911" lon="2.83451">
        <ele>353.79998779297</ele>
        <time>2021-05-26T07:38:32.000Z</time>
      </trkpt>
      <trkpt lat="43.87914" lon="2.83426">
        <ele>355.39999389648</ele>
        <time>2021-05-26T07:38:46.000Z</time>
      </trkpt>
      <trkpt lat="43.87907" lon="2.83411">
        <ele>355</ele>
        <time>2021-05-26T07:38:58.000Z</time>
      </trkpt>
      <trkpt lat="43.87893" lon="2.83391">
        <ele>354</ele>
        <time>2021-05-26T07:39:14.000Z</time>
      </trkpt>
      <trkpt lat="43.87882" lon="2.83369">
        <ele>353.20001220703</ele>
        <time>2021-05-26T07:39:28.000Z</time>
      </trkpt>
      <trkpt lat="43.87877" lon="2.83346">
        <ele>352.20001220703</ele>
        <time>2021-05-26T07:39:41.000Z</time>
      </trkpt>
      <trkpt lat="43.87875" lon="2.8332">
        <ele>351.60000610352</ele>
        <time>2021-05-26T07:39:56.000Z</time>
      </trkpt>
      <trkpt lat="43.87871" lon="2.83295">
        <ele>351.20001220703</ele>
        <time>2021-05-26T07:40:11.000Z</time>
      </trkpt>
      <trkpt lat="43.87875" lon="2.83272">
        <ele>351</ele>
        <time>2021-05-26T07:40:27.000Z</time>
      </trkpt>
      <trkpt lat="43.87881" lon="2.83247">
        <ele>351.20001220703</ele>
        <time>2021-05-26T07:40:39.000Z</time>
      </trkpt>
      <trkpt lat="43.87878" lon="2.83222">
        <ele>351.39999389648</ele>
        <time>2021-05-26T07:40:55.000Z</time>
      </trkpt>
      <trkpt lat="43.87875" lon="2.83198">
        <ele>351.60000610352</ele>
        <time>2021-05-26T07:41:13.000Z</time>
      </trkpt>
      <trkpt lat="43.87873" lon="2.83173">
        <ele>351.60000610352</ele>
        <time>2021-05-26T07:41:29.000Z</time>
      </trkpt>
      <trkpt lat="43.87869" lon="2.83148">
        <ele>352.39999389648</ele>
        <time>2021-05-26T07:41:44.000Z</time>
      </trkpt>
      <trkpt lat="43.87866" lon="2.83122">
        <ele>353.20001220703</ele>
        <time>2021-05-26T07:41:57.000Z</time>
      </trkpt>
      <trkpt lat="43.87864" lon="2.83096">
        <ele>354</ele>
        <time>2021-05-26T07:42:12.000Z</time>
      </trkpt>
      <trkpt lat="43.87865" lon="2.83071">
        <ele>355</ele>
        <time>2021-05-26T07:42:26.000Z</time>
      </trkpt>
      <trkpt lat="43.87864" lon="2.83045">
        <ele>356.20001220703</ele>
        <time>2021-05-26T07:42:41.000Z</time>
      </trkpt>
      <trkpt lat="43.87862" lon="2.83019">
        <ele>357.39999389648</ele>
        <time>2021-05-26T07:42:56.000Z</time>
      </trkpt>
      <trkpt lat="43.87859" lon="2.82994">
        <ele>358.39999389648</ele>
        <time>2021-05-26T07:43:10.000Z</time>
      </trkpt>
      <trkpt lat="43.87855" lon="2.82969">
        <ele>359.60000610352</ele>
        <time>2021-05-26T07:43:25.000Z</time>
      </trkpt>
      <trkpt lat="43.87851" lon="2.82943">
        <ele>360.79998779297</ele>
        <time>2021-05-26T07:43:40.000Z</time>
      </trkpt>
      <trkpt lat="43.87842" lon="2.82921">
        <ele>361.39999389648</ele>
        <time>2021-05-26T07:43:55.000Z</time>
      </trkpt>
      <trkpt lat="43.87827" lon="2.82905">
        <ele>362.20001220703</ele>
        <time>2021-05-26T07:44:09.000Z</time>
      </trkpt>
      <trkpt lat="43.87814" lon="2.82888">
        <ele>363.20001220703</ele>
        <time>2021-05-26T07:44:24.000Z</time>
      </trkpt>
      <trkpt lat="43.878" lon="2.82873">
        <ele>364</ele>
        <time>2021-05-26T07:44:39.000Z</time>
      </trkpt>
      <trkpt lat="43.87787" lon="2.82854">
        <ele>365.20001220703</ele>
        <time>2021-05-26T07:44:55.000Z</time>
      </trkpt>
      <trkpt lat="43.87775" lon="2.82834">
        <ele>366</ele>
        <time>2021-05-26T07:45:11.000Z</time>
      </trkpt>
      <trkpt lat="43.87772" lon="2.82823">
        <ele>366</ele>
        <time>2021-05-26T07:45:54.000Z</time>
      </trkpt>
      <trkpt lat="43.87764" lon="2.82799">
        <ele>365.20001220703</ele>
        <time>2021-05-26T07:46:08.000Z</time>
      </trkpt>
      <trkpt lat="43.87756" lon="2.82777">
        <ele>364</ele>
        <time>2021-05-26T07:46:21.000Z</time>
      </trkpt>
      <trkpt lat="43.87747" lon="2.82755">
        <ele>363</ele>
        <time>2021-05-26T07:46:33.000Z</time>
      </trkpt>
      <trkpt lat="43.87737" lon="2.82733">
        <ele>363.60000610352</ele>
        <time>2021-05-26T07:46:46.000Z</time>
      </trkpt>
      <trkpt lat="43.87727" lon="2.82711">
        <ele>364.20001220703</ele>
        <time>2021-05-26T07:46:59.000Z</time>
      </trkpt>
      <trkpt lat="43.87717" lon="2.82689">
        <ele>363.60000610352</ele>
        <time>2021-05-26T07:47:12.000Z</time>
      </trkpt>
      <trkpt lat="43.87716" lon="2.82664">
        <ele>363.60000610352</ele>
        <time>2021-05-26T07:47:25.000Z</time>
      </trkpt>
      <trkpt lat="43.87719" lon="2.82639">
        <ele>365</ele>
        <time>2021-05-26T07:47:38.000Z</time>
      </trkpt>
      <trkpt lat="43.87723" lon="2.82613">
        <ele>365.79998779297</ele>
        <time>2021-05-26T07:47:51.000Z</time>
      </trkpt>
      <trkpt lat="43.87725" lon="2.82587">
        <ele>365.20001220703</ele>
        <time>2021-05-26T07:48:04.000Z</time>
      </trkpt>
      <trkpt lat="43.87727" lon="2.82562">
        <ele>366.39999389648</ele>
        <time>2021-05-26T07:48:18.000Z</time>
      </trkpt>
      <trkpt lat="43.87729" lon="2.82537">
        <ele>367</ele>
        <time>2021-05-26T07:48:31.000Z</time>
      </trkpt>
      <trkpt lat="43.87729" lon="2.82512">
        <ele>366.79998779297</ele>
        <time>2021-05-26T07:48:44.000Z</time>
      </trkpt>
      <trkpt lat="43.87728" lon="2.82486">
        <ele>366.60000610352</ele>
        <time>2021-05-26T07:48:57.000Z</time>
      </trkpt>
      <trkpt lat="43.87727" lon="2.82461">
        <ele>366.39999389648</ele>
        <time>2021-05-26T07:49:10.000Z</time>
      </trkpt>
      <trkpt lat="43.87726" lon="2.82436">
        <ele>367</ele>
        <time>2021-05-26T07:49:23.000Z</time>
      </trkpt>
      <trkpt lat="43.8773" lon="2.82411">
        <ele>367.20001220703</ele>
        <time>2021-05-26T07:49:34.000Z</time>
      </trkpt>
      <trkpt lat="43.87739" lon="2.82388">
        <ele>367</ele>
        <time>2021-05-26T07:49:43.000Z</time>
      </trkpt>
      <trkpt lat="43.87746" lon="2.82365">
        <ele>367.60000610352</ele>
        <time>2021-05-26T07:49:56.000Z</time>
      </trkpt>
      <trkpt lat="43.87753" lon="2.82342">
        <ele>368.39999389648</ele>
        <time>2021-05-26T07:50:06.000Z</time>
      </trkpt>
      <trkpt lat="43.87759" lon="2.82317">
        <ele>368.20001220703</ele>
        <time>2021-05-26T07:50:17.000Z</time>
      </trkpt>
      <trkpt lat="43.87757" lon="2.82292">
        <ele>367</ele>
        <time>2021-05-26T07:50:30.000Z</time>
      </trkpt>
      <trkpt lat="43.87753" lon="2.82266">
        <ele>366.20001220703</ele>
        <time>2021-05-26T07:50:45.000Z</time>
      </trkpt>
      <trkpt lat="43.87751" lon="2.8224">
        <ele>364.60000610352</ele>
        <time>2021-05-26T07:50:59.000Z</time>
      </trkpt>
      <trkpt lat="43.87748" lon="2.82215">
        <ele>362.20001220703</ele>
        <time>2021-05-26T07:51:13.000Z</time>
      </trkpt>
      <trkpt lat="43.87746" lon="2.82189">
        <ele>359.20001220703</ele>
        <time>2021-05-26T07:51:27.000Z</time>
      </trkpt>
      <trkpt lat="43.87744" lon="2.82164">
        <ele>356.20001220703</ele>
        <time>2021-05-26T07:51:40.000Z</time>
      </trkpt>
      <trkpt lat="43.87742" lon="2.82139">
        <ele>352.39999389648</ele>
        <time>2021-05-26T07:51:52.000Z</time>
      </trkpt>
      <trkpt lat="43.87739" lon="2.82114">
        <ele>350.39999389648</ele>
        <time>2021-05-26T07:52:05.000Z</time>
      </trkpt>
      <trkpt lat="43.87737" lon="2.82088">
        <ele>348.20001220703</ele>
        <time>2021-05-26T07:52:19.000Z</time>
      </trkpt>
      <trkpt lat="43.87732" lon="2.82063">
        <ele>347.20001220703</ele>
        <time>2021-05-26T07:52:32.000Z</time>
      </trkpt>
      <trkpt lat="43.87733" lon="2.82038">
        <ele>346.20001220703</ele>
        <time>2021-05-26T07:52:45.000Z</time>
      </trkpt>
      <trkpt lat="43.87751" lon="2.82031">
        <ele>345.79998779297</ele>
        <time>2021-05-26T07:52:58.000Z</time>
      </trkpt>
      <trkpt lat="43.87769" lon="2.82023">
        <ele>345.39999389648</ele>
        <time>2021-05-26T07:53:11.000Z</time>
      </trkpt>
      <trkpt lat="43.87786" lon="2.82013">
        <ele>345.39999389648</ele>
        <time>2021-05-26T07:53:23.000Z</time>
      </trkpt>
      <trkpt lat="43.87799" lon="2.82002">
        <ele>344.79998779297</ele>
        <time>2021-05-26T07:53:35.000Z</time>
      </trkpt>
      <trkpt lat="43.87798" lon="2.81998">
        <ele>344.79998779297</ele>
        <time>2021-05-26T07:53:37.000Z</time>
      </trkpt>
      <trkpt lat="43.87795" lon="2.81973">
        <ele>343.79998779297</ele>
        <time>2021-05-26T07:53:50.000Z</time>
      </trkpt>
      <trkpt lat="43.87785" lon="2.81953">
        <ele>343.20001220703</ele>
        <time>2021-05-26T07:54:05.000Z</time>
      </trkpt>
      <trkpt lat="43.8777" lon="2.81937">
        <ele>342.79998779297</ele>
        <time>2021-05-26T07:54:19.000Z</time>
      </trkpt>
      <trkpt lat="43.87757" lon="2.81918">
        <ele>343</ele>
        <time>2021-05-26T07:54:32.000Z</time>
      </trkpt>
      <trkpt lat="43.87744" lon="2.81897">
        <ele>343.39999389648</ele>
        <time>2021-05-26T07:54:44.000Z</time>
      </trkpt>
      <trkpt lat="43.87736" lon="2.81875">
        <ele>343.79998779297</ele>
        <time>2021-05-26T07:54:55.000Z</time>
      </trkpt>
      <trkpt lat="43.8773" lon="2.8185">
        <ele>344</ele>
        <time>2021-05-26T07:55:08.000Z</time>
      </trkpt>
      <trkpt lat="43.87724" lon="2.81826">
        <ele>343.79998779297</ele>
        <time>2021-05-26T07:55:21.000Z</time>
      </trkpt>
      <trkpt lat="43.87721" lon="2.818">
        <ele>343.20001220703</ele>
        <time>2021-05-26T07:55:34.000Z</time>
      </trkpt>
      <trkpt lat="43.87716" lon="2.81775">
        <ele>342.79998779297</ele>
        <time>2021-05-26T07:55:46.000Z</time>
      </trkpt>
      <trkpt lat="43.87709" lon="2.81751">
        <ele>343</ele>
        <time>2021-05-26T07:55:59.000Z</time>
      </trkpt>
      <trkpt lat="43.87698" lon="2.81732">
        <ele>343.20001220703</ele>
        <time>2021-05-26T07:56:11.000Z</time>
      </trkpt>
      <trkpt lat="43.87684" lon="2.81714">
        <ele>343.60000610352</ele>
        <time>2021-05-26T07:56:24.000Z</time>
      </trkpt>
      <trkpt lat="43.87675" lon="2.81691">
        <ele>344.20001220703</ele>
        <time>2021-05-26T07:56:37.000Z</time>
      </trkpt>
      <trkpt lat="43.87676" lon="2.81666">
        <ele>344.20001220703</ele>
        <time>2021-05-26T07:56:51.000Z</time>
      </trkpt>
      <trkpt lat="43.87677" lon="2.81639">
        <ele>344.60000610352</ele>
        <time>2021-05-26T07:57:05.000Z</time>
      </trkpt>
      <trkpt lat="43.87676" lon="2.81613">
        <ele>345.20001220703</ele>
        <time>2021-05-26T07:57:19.000Z</time>
      </trkpt>
      <trkpt lat="43.87673" lon="2.81587">
        <ele>345.79998779297</ele>
        <time>2021-05-26T07:57:32.000Z</time>
      </trkpt>
      <trkpt lat="43.87669" lon="2.81562">
        <ele>346.39999389648</ele>
        <time>2021-05-26T07:57:46.000Z</time>
      </trkpt>
      <trkpt lat="43.87667" lon="2.81536">
        <ele>347.39999389648</ele>
        <time>2021-05-26T07:57:59.000Z</time>
      </trkpt>
      <trkpt lat="43.87662" lon="2.81511">
        <ele>348.20001220703</ele>
        <time>2021-05-26T07:58:12.000Z</time>
      </trkpt>
      <trkpt lat="43.87659" lon="2.81486">
        <ele>348.79998779297</ele>
        <time>2021-05-26T07:58:25.000Z</time>
      </trkpt>
      <trkpt lat="43.87653" lon="2.81461">
        <ele>349.20001220703</ele>
        <time>2021-05-26T07:58:38.000Z</time>
      </trkpt>
      <trkpt lat="43.87643" lon="2.81439">
        <ele>349.39999389648</ele>
        <time>2021-05-26T07:58:51.000Z</time>
      </trkpt>
      <trkpt lat="43.87629" lon="2.81422">
        <ele>349.60000610352</ele>
        <time>2021-05-26T07:59:04.000Z</time>
      </trkpt>
      <trkpt lat="43.87612" lon="2.8141">
        <ele>349.79998779297</ele>
        <time>2021-05-26T07:59:18.000Z</time>
      </trkpt>
      <trkpt lat="43.87596" lon="2.81397">
        <ele>349.60000610352</ele>
        <time>2021-05-26T07:59:33.000Z</time>
      </trkpt>
      <trkpt lat="43.87581" lon="2.81381">
        <ele>349.39999389648</ele>
        <time>2021-05-26T07:59:47.000Z</time>
      </trkpt>
      <trkpt lat="43.8757" lon="2.81359">
        <ele>349.79998779297</ele>
        <time>2021-05-26T08:00:03.000Z</time>
      </trkpt>
      <trkpt lat="43.8756" lon="2.81337">
        <ele>350.20001220703</ele>
        <time>2021-05-26T08:00:16.000Z</time>
      </trkpt>
      <trkpt lat="43.87551" lon="2.81314">
        <ele>350.60000610352</ele>
        <time>2021-05-26T08:00:30.000Z</time>
      </trkpt>
      <trkpt lat="43.87544" lon="2.81291">
        <ele>351</ele>
        <time>2021-05-26T08:00:43.000Z</time>
      </trkpt>
      <trkpt lat="43.8754" lon="2.81264">
        <ele>352</ele>
        <time>2021-05-26T08:00:58.000Z</time>
      </trkpt>
      <trkpt lat="43.87538" lon="2.8124">
        <ele>352.60000610352</ele>
        <time>2021-05-26T08:01:13.000Z</time>
      </trkpt>
      <trkpt lat="43.87538" lon="2.81215">
        <ele>353</ele>
        <time>2021-05-26T08:01:49.000Z</time>
      </trkpt>
      <trkpt lat="43.87538" lon="2.8119">
        <ele>353.20001220703</ele>
        <time>2021-05-26T08:02:02.000Z</time>
      </trkpt>
      <trkpt lat="43.87532" lon="2.81164">
        <ele>353.20001220703</ele>
        <time>2021-05-26T08:02:15.000Z</time>
      </trkpt>
      <trkpt lat="43.87526" lon="2.81138">
        <ele>353.20001220703</ele>
        <time>2021-05-26T08:02:29.000Z</time>
      </trkpt>
      <trkpt lat="43.8752" lon="2.81114">
        <ele>353.39999389648</ele>
        <time>2021-05-26T08:02:42.000Z</time>
      </trkpt>
      <trkpt lat="43.8751" lon="2.81093">
        <ele>354</ele>
        <time>2021-05-26T08:02:55.000Z</time>
      </trkpt>
      <trkpt lat="43.87498" lon="2.81072">
        <ele>354</ele>
        <time>2021-05-26T08:03:09.000Z</time>
      </trkpt>
      <trkpt lat="43.87486" lon="2.81052">
        <ele>354</ele>
        <time>2021-05-26T08:03:23.000Z</time>
      </trkpt>
      <trkpt lat="43.87474" lon="2.81033">
        <ele>354.39999389648</ele>
        <time>2021-05-26T08:03:37.000Z</time>
      </trkpt>
      <trkpt lat="43.87462" lon="2.81012">
        <ele>355</ele>
        <time>2021-05-26T08:03:55.000Z</time>
      </trkpt>
      <trkpt lat="43.87454" lon="2.80989">
        <ele>355.20001220703</ele>
        <time>2021-05-26T08:04:08.000Z</time>
      </trkpt>
      <trkpt lat="43.87446" lon="2.80967">
        <ele>355.20001220703</ele>
        <time>2021-05-26T08:04:21.000Z</time>
      </trkpt>
      <trkpt lat="43.87437" lon="2.80944">
        <ele>355.60000610352</ele>
        <time>2021-05-26T08:04:35.000Z</time>
      </trkpt>
      <trkpt lat="43.87428" lon="2.80922">
        <ele>356.20001220703</ele>
        <time>2021-05-26T08:04:48.000Z</time>
      </trkpt>
      <trkpt lat="43.87416" lon="2.80901">
        <ele>357.79998779297</ele>
        <time>2021-05-26T08:05:02.000Z</time>
      </trkpt>
      <trkpt lat="43.87406" lon="2.80879">
        <ele>359</ele>
        <time>2021-05-26T08:05:15.000Z</time>
      </trkpt>
      <trkpt lat="43.87402" lon="2.80855">
        <ele>359.60000610352</ele>
        <time>2021-05-26T08:05:33.000Z</time>
      </trkpt>
      <trkpt lat="43.87407" lon="2.80831">
        <ele>359.79998779297</ele>
        <time>2021-05-26T08:05:45.000Z</time>
      </trkpt>
      <trkpt lat="43.87412" lon="2.80806">
        <ele>360.39999389648</ele>
        <time>2021-05-26T08:05:56.000Z</time>
      </trkpt>
      <trkpt lat="43.87417" lon="2.80781">
        <ele>360.60000610352</ele>
        <time>2021-05-26T08:06:09.000Z</time>
      </trkpt>
      <trkpt lat="43.87421" lon="2.80756">
        <ele>360.79998779297</ele>
        <time>2021-05-26T08:06:22.000Z</time>
      </trkpt>
      <trkpt lat="43.87427" lon="2.80732">
        <ele>360.79998779297</ele>
        <time>2021-05-26T08:06:35.000Z</time>
      </trkpt>
      <trkpt lat="43.87437" lon="2.80711">
        <ele>360.20001220703</ele>
        <time>2021-05-26T08:06:48.000Z</time>
      </trkpt>
      <trkpt lat="43.87447" lon="2.80689">
        <ele>360.39999389648</ele>
        <time>2021-05-26T08:07:02.000Z</time>
      </trkpt>
      <trkpt lat="43.87456" lon="2.80666">
        <ele>360.39999389648</ele>
        <time>2021-05-26T08:07:15.000Z</time>
      </trkpt>
      <trkpt lat="43.87463" lon="2.80642">
        <ele>360.60000610352</ele>
        <time>2021-05-26T08:07:29.000Z</time>
      </trkpt>
      <trkpt lat="43.87466" lon="2.80617">
        <ele>360.60000610352</ele>
        <time>2021-05-26T08:07:42.000Z</time>
      </trkpt>
      <trkpt lat="43.87467" lon="2.80591">
        <ele>361</ele>
        <time>2021-05-26T08:07:56.000Z</time>
      </trkpt>
      <trkpt lat="43.87468" lon="2.80564">
        <ele>361</ele>
        <time>2021-05-26T08:08:12.000Z</time>
      </trkpt>
      <trkpt lat="43.87468" lon="2.80544">
        <ele>361</ele>
        <time>2021-05-26T08:08:24.000Z</time>
      </trkpt>
      <trkpt lat="43.87468" lon="2.80519">
        <ele>361.39999389648</ele>
        <time>2021-05-26T08:08:38.000Z</time>
      </trkpt>
      <trkpt lat="43.8747" lon="2.80494">
        <ele>361.79998779297</ele>
        <time>2021-05-26T08:08:53.000Z</time>
      </trkpt>
      <trkpt lat="43.87471" lon="2.80469">
        <ele>362.39999389648</ele>
        <time>2021-05-26T08:09:06.000Z</time>
      </trkpt>
      <trkpt lat="43.8747" lon="2.80443">
        <ele>363.39999389648</ele>
        <time>2021-05-26T08:09:18.000Z</time>
      </trkpt>
      <trkpt lat="43.87472" lon="2.80418">
        <ele>364.60000610352</ele>
        <time>2021-05-26T08:09:31.000Z</time>
      </trkpt>
      <trkpt lat="43.87475" lon="2.80398">
        <ele>365.79998779297</ele>
        <time>2021-05-26T08:10:41.000Z</time>
      </trkpt>
      <trkpt lat="43.87479" lon="2.80374">
        <ele>367.20001220703</ele>
        <time>2021-05-26T08:10:54.000Z</time>
      </trkpt>
      <trkpt lat="43.87487" lon="2.8035">
        <ele>367.60000610352</ele>
        <time>2021-05-26T08:11:08.000Z</time>
      </trkpt>
      <trkpt lat="43.87489" lon="2.80326">
        <ele>368.39999389648</ele>
        <time>2021-05-26T08:11:23.000Z</time>
      </trkpt>
      <trkpt lat="43.87487" lon="2.80325">
        <ele>368.60000610352</ele>
        <time>2021-05-26T08:11:25.000Z</time>
      </trkpt>
      <trkpt lat="43.8747" lon="2.80321">
        <ele>369.20001220703</ele>
        <time>2021-05-26T08:11:40.000Z</time>
      </trkpt>
      <trkpt lat="43.87467" lon="2.80312">
        <ele>369.60000610352</ele>
        <time>2021-05-26T08:12:31.000Z</time>
      </trkpt>
      <trkpt lat="43.87467" lon="2.80304">
        <ele>370</ele>
        <time>2021-05-26T08:12:44.000Z</time>
      </trkpt>
      <trkpt lat="43.87468" lon="2.80279">
        <ele>371</ele>
        <time>2021-05-26T08:12:55.000Z</time>
      </trkpt>
      <trkpt lat="43.87474" lon="2.80253">
        <ele>371.39999389648</ele>
        <time>2021-05-26T08:13:03.000Z</time>
      </trkpt>
      <trkpt lat="43.87475" lon="2.8025">
        <ele>371.60000610352</ele>
        <time>2021-05-26T08:13:04.000Z</time>
      </trkpt>
      <trkpt lat="43.87479" lon="2.80224">
        <ele>372.20001220703</ele>
        <time>2021-05-26T08:13:12.000Z</time>
      </trkpt>
      <trkpt lat="43.87484" lon="2.80198">
        <ele>373</ele>
        <time>2021-05-26T08:13:22.000Z</time>
      </trkpt>
      <trkpt lat="43.8749" lon="2.80172">
        <ele>373.60000610352</ele>
        <time>2021-05-26T08:13:30.000Z</time>
      </trkpt>
      <trkpt lat="43.87493" lon="2.80145">
        <ele>374.39999389648</ele>
        <time>2021-05-26T08:13:37.000Z</time>
      </trkpt>
      <trkpt lat="43.87496" lon="2.80118">
        <ele>375</ele>
        <time>2021-05-26T08:13:44.000Z</time>
      </trkpt>
      <trkpt lat="43.87495" lon="2.80091">
        <ele>375.60000610352</ele>
        <time>2021-05-26T08:13:51.000Z</time>
      </trkpt>
      <trkpt lat="43.87492" lon="2.80065">
        <ele>377</ele>
        <time>2021-05-26T08:13:59.000Z</time>
      </trkpt>
      <trkpt lat="43.87487" lon="2.80039">
        <ele>378</ele>
        <time>2021-05-26T08:14:12.000Z</time>
      </trkpt>
      <trkpt lat="43.87487" lon="2.80014">
        <ele>378.39999389648</ele>
        <time>2021-05-26T08:14:25.000Z</time>
      </trkpt>
      <trkpt lat="43.87486" lon="2.79988">
        <ele>378.79998779297</ele>
        <time>2021-05-26T08:14:37.000Z</time>
      </trkpt>
      <trkpt lat="43.87481" lon="2.79963">
        <ele>379.60000610352</ele>
        <time>2021-05-26T08:14:50.000Z</time>
      </trkpt>
      <trkpt lat="43.87472" lon="2.79941">
        <ele>380.60000610352</ele>
        <time>2021-05-26T08:15:03.000Z</time>
      </trkpt>
      <trkpt lat="43.87467" lon="2.79916">
        <ele>381.39999389648</ele>
        <time>2021-05-26T08:15:16.000Z</time>
      </trkpt>
      <trkpt lat="43.87467" lon="2.79891">
        <ele>381.39999389648</ele>
        <time>2021-05-26T08:15:28.000Z</time>
      </trkpt>
      <trkpt lat="43.87471" lon="2.79864">
        <ele>381</ele>
        <time>2021-05-26T08:15:41.000Z</time>
      </trkpt>
      <trkpt lat="43.87472" lon="2.79838">
        <ele>381.20001220703</ele>
        <time>2021-05-26T08:15:54.000Z</time>
      </trkpt>
      <trkpt lat="43.87471" lon="2.79811">
        <ele>381.39999389648</ele>
        <time>2021-05-26T08:16:03.000Z</time>
      </trkpt>
      <trkpt lat="43.87467" lon="2.79784">
        <ele>381.60000610352</ele>
        <time>2021-05-26T08:16:11.000Z</time>
      </trkpt>
      <trkpt lat="43.87463" lon="2.79759">
        <ele>382</ele>
        <time>2021-05-26T08:16:19.000Z</time>
      </trkpt>
      <trkpt lat="43.87459" lon="2.79732">
        <ele>381.60000610352</ele>
        <time>2021-05-26T08:16:28.000Z</time>
      </trkpt>
      <trkpt lat="43.87452" lon="2.79705">
        <ele>381.20001220703</ele>
        <time>2021-05-26T08:16:36.000Z</time>
      </trkpt>
      <trkpt lat="43.87443" lon="2.79683">
        <ele>381</ele>
        <time>2021-05-26T08:16:47.000Z</time>
      </trkpt>
      <trkpt lat="43.87438" lon="2.79658">
        <ele>380.79998779297</ele>
        <time>2021-05-26T08:16:59.000Z</time>
      </trkpt>
      <trkpt lat="43.8743" lon="2.79634">
        <ele>380.60000610352</ele>
        <time>2021-05-26T08:17:12.000Z</time>
      </trkpt>
      <trkpt lat="43.87414" lon="2.79621">
        <ele>381.39999389648</ele>
        <time>2021-05-26T08:17:26.000Z</time>
      </trkpt>
      <trkpt lat="43.87398" lon="2.79609">
        <ele>382</ele>
        <time>2021-05-26T08:17:39.000Z</time>
      </trkpt>
      <trkpt lat="43.8738" lon="2.796">
        <ele>382.79998779297</ele>
        <time>2021-05-26T08:17:53.000Z</time>
      </trkpt>
      <trkpt lat="43.87363" lon="2.79588">
        <ele>383.60000610352</ele>
        <time>2021-05-26T08:18:05.000Z</time>
      </trkpt>
      <trkpt lat="43.87348" lon="2.79573">
        <ele>384.79998779297</ele>
        <time>2021-05-26T08:18:17.000Z</time>
      </trkpt>
      <trkpt lat="43.87334" lon="2.79555">
        <ele>385.79998779297</ele>
        <time>2021-05-26T08:18:31.000Z</time>
      </trkpt>
      <trkpt lat="43.87326" lon="2.79533">
        <ele>386.79998779297</ele>
        <time>2021-05-26T08:18:46.000Z</time>
      </trkpt>
      <trkpt lat="43.87325" lon="2.79507">
        <ele>387.39999389648</ele>
        <time>2021-05-26T08:18:59.000Z</time>
      </trkpt>
      <trkpt lat="43.87325" lon="2.79482">
        <ele>388.60000610352</ele>
        <time>2021-05-26T08:19:13.000Z</time>
      </trkpt>
      <trkpt lat="43.87323" lon="2.79456">
        <ele>390.60000610352</ele>
        <time>2021-05-26T08:19:28.000Z</time>
      </trkpt>
      <trkpt lat="43.87321" lon="2.79429">
        <ele>392.79998779297</ele>
        <time>2021-05-26T08:19:42.000Z</time>
      </trkpt>
      <trkpt lat="43.87317" lon="2.79404">
        <ele>395</ele>
        <time>2021-05-26T08:19:56.000Z</time>
      </trkpt>
      <trkpt lat="43.87309" lon="2.7938">
        <ele>397</ele>
        <time>2021-05-26T08:20:10.000Z</time>
      </trkpt>
      <trkpt lat="43.873" lon="2.79358">
        <ele>398.39999389648</ele>
        <time>2021-05-26T08:20:23.000Z</time>
      </trkpt>
      <trkpt lat="43.87293" lon="2.79335">
        <ele>399.39999389648</ele>
        <time>2021-05-26T08:20:36.000Z</time>
      </trkpt>
      <trkpt lat="43.87286" lon="2.79311">
        <ele>401.39999389648</ele>
        <time>2021-05-26T08:20:50.000Z</time>
      </trkpt>
      <trkpt lat="43.8728" lon="2.79288">
        <ele>403.39999389648</ele>
        <time>2021-05-26T08:21:05.000Z</time>
      </trkpt>
      <trkpt lat="43.87269" lon="2.79267">
        <ele>405.20001220703</ele>
        <time>2021-05-26T08:21:19.000Z</time>
      </trkpt>
      <trkpt lat="43.87259" lon="2.79245">
        <ele>406.39999389648</ele>
        <time>2021-05-26T08:21:33.000Z</time>
      </trkpt>
      <trkpt lat="43.87249" lon="2.79221">
        <ele>407.39999389648</ele>
        <time>2021-05-26T08:21:47.000Z</time>
      </trkpt>
      <trkpt lat="43.87241" lon="2.79199">
        <ele>408.39999389648</ele>
        <time>2021-05-26T08:22:00.000Z</time>
      </trkpt>
      <trkpt lat="43.87228" lon="2.79179">
        <ele>409.20001220703</ele>
        <time>2021-05-26T08:22:13.000Z</time>
      </trkpt>
      <trkpt lat="43.87218" lon="2.79157">
        <ele>410.60000610352</ele>
        <time>2021-05-26T08:22:26.000Z</time>
      </trkpt>
      <trkpt lat="43.87207" lon="2.79135">
        <ele>412</ele>
        <time>2021-05-26T08:22:40.000Z</time>
      </trkpt>
      <trkpt lat="43.87198" lon="2.79112">
        <ele>413.39999389648</ele>
        <time>2021-05-26T08:22:54.000Z</time>
      </trkpt>
      <trkpt lat="43.87188" lon="2.7909">
        <ele>415</ele>
        <time>2021-05-26T08:23:06.000Z</time>
      </trkpt>
      <trkpt lat="43.8718" lon="2.79066">
        <ele>416.60000610352</ele>
        <time>2021-05-26T08:23:19.000Z</time>
      </trkpt>
      <trkpt lat="43.87168" lon="2.79045">
        <ele>418</ele>
        <time>2021-05-26T08:23:33.000Z</time>
      </trkpt>
      <trkpt lat="43.87155" lon="2.79026">
        <ele>419.60000610352</ele>
        <time>2021-05-26T08:23:47.000Z</time>
      </trkpt>
      <trkpt lat="43.87143" lon="2.79007">
        <ele>421.20001220703</ele>
        <time>2021-05-26T08:24:01.000Z</time>
      </trkpt>
      <trkpt lat="43.87134" lon="2.78983">
        <ele>423.79998779297</ele>
        <time>2021-05-26T08:24:14.000Z</time>
      </trkpt>
      <trkpt lat="43.87132" lon="2.78958">
        <ele>426.20001220703</ele>
        <time>2021-05-26T08:24:27.000Z</time>
      </trkpt>
      <trkpt lat="43.87133" lon="2.78933">
        <ele>427.20001220703</ele>
        <time>2021-05-26T08:24:39.000Z</time>
      </trkpt>
      <trkpt lat="43.87135" lon="2.78907">
        <ele>428.60000610352</ele>
        <time>2021-05-26T08:24:53.000Z</time>
      </trkpt>
      <trkpt lat="43.87136" lon="2.78881">
        <ele>431</ele>
        <time>2021-05-26T08:25:06.000Z</time>
      </trkpt>
      <trkpt lat="43.87134" lon="2.78855">
        <ele>433.39999389648</ele>
        <time>2021-05-26T08:25:19.000Z</time>
      </trkpt>
      <trkpt lat="43.87137" lon="2.7883">
        <ele>434.79998779297</ele>
        <time>2021-05-26T08:25:32.000Z</time>
      </trkpt>
      <trkpt lat="43.87144" lon="2.78806">
        <ele>435.79998779297</ele>
        <time>2021-05-26T08:25:45.000Z</time>
      </trkpt>
      <trkpt lat="43.87151" lon="2.78783">
        <ele>435.79998779297</ele>
        <time>2021-05-26T08:25:57.000Z</time>
      </trkpt>
      <trkpt lat="43.87158" lon="2.78759">
        <ele>435.20001220703</ele>
        <time>2021-05-26T08:26:10.000Z</time>
      </trkpt>
      <trkpt lat="43.87161" lon="2.78733">
        <ele>436</ele>
        <time>2021-05-26T08:26:23.000Z</time>
      </trkpt>
      <trkpt lat="43.8716" lon="2.78708">
        <ele>437.20001220703</ele>
        <time>2021-05-26T08:26:36.000Z</time>
      </trkpt>
      <trkpt lat="43.87155" lon="2.78701">
        <ele>438.60000610352</ele>
        <time>2021-05-26T08:26:42.000Z</time>
      </trkpt>
      <trkpt lat="43.87144" lon="2.78682">
        <ele>441.79998779297</ele>
        <time>2021-05-26T08:26:56.000Z</time>
      </trkpt>
      <trkpt lat="43.87141" lon="2.78657">
        <ele>443.39999389648</ele>
        <time>2021-05-26T08:27:08.000Z</time>
      </trkpt>
      <trkpt lat="43.87138" lon="2.78631">
        <ele>444.79998779297</ele>
        <time>2021-05-26T08:27:22.000Z</time>
      </trkpt>
      <trkpt lat="43.87136" lon="2.78605">
        <ele>445.79998779297</ele>
        <time>2021-05-26T08:27:35.000Z</time>
      </trkpt>
      <trkpt lat="43.87144" lon="2.78582">
        <ele>444.39999389648</ele>
        <time>2021-05-26T08:27:47.000Z</time>
      </trkpt>
      <trkpt lat="43.87148" lon="2.78556">
        <ele>445.79998779297</ele>
        <time>2021-05-26T08:28:00.000Z</time>
      </trkpt>
      <trkpt lat="43.87152" lon="2.78531">
        <ele>446.39999389648</ele>
        <time>2021-05-26T08:28:13.000Z</time>
      </trkpt>
      <trkpt lat="43.87157" lon="2.78505">
        <ele>446.39999389648</ele>
        <time>2021-05-26T08:28:26.000Z</time>
      </trkpt>
      <trkpt lat="43.87158" lon="2.78481">
        <ele>447.60000610352</ele>
        <time>2021-05-26T08:28:39.000Z</time>
      </trkpt>
      <trkpt lat="43.87166" lon="2.78459">
        <ele>446.60000610352</ele>
        <time>2021-05-26T08:28:51.000Z</time>
      </trkpt>
      <trkpt lat="43.87174" lon="2.78436">
        <ele>446</ele>
        <time>2021-05-26T08:29:04.000Z</time>
      </trkpt>
      <trkpt lat="43.87178" lon="2.7841">
        <ele>446.60000610352</ele>
        <time>2021-05-26T08:29:17.000Z</time>
      </trkpt>
      <trkpt lat="43.87176" lon="2.78385">
        <ele>447.79998779297</ele>
        <time>2021-05-26T08:29:29.000Z</time>
      </trkpt>
      <trkpt lat="43.87179" lon="2.78359">
        <ele>447.39999389648</ele>
        <time>2021-05-26T08:29:42.000Z</time>
      </trkpt>
      <trkpt lat="43.8718" lon="2.78334">
        <ele>447.60000610352</ele>
        <time>2021-05-26T08:29:55.000Z</time>
      </trkpt>
      <trkpt lat="43.87181" lon="2.78308">
        <ele>448</ele>
        <time>2021-05-26T08:30:08.000Z</time>
      </trkpt>
      <trkpt lat="43.87183" lon="2.78282">
        <ele>448.39999389648</ele>
        <time>2021-05-26T08:30:21.000Z</time>
      </trkpt>
      <trkpt lat="43.87183" lon="2.78256">
        <ele>449.39999389648</ele>
        <time>2021-05-26T08:30:34.000Z</time>
      </trkpt>
      <trkpt lat="43.87184" lon="2.7823">
        <ele>448.60000610352</ele>
        <time>2021-05-26T08:30:46.000Z</time>
      </trkpt>
      <trkpt lat="43.87187" lon="2.78205">
        <ele>447.79998779297</ele>
        <time>2021-05-26T08:30:59.000Z</time>
      </trkpt>
      <trkpt lat="43.87188" lon="2.78178">
        <ele>447.20001220703</ele>
        <time>2021-05-26T08:31:12.000Z</time>
      </trkpt>
      <trkpt lat="43.87185" lon="2.78154">
        <ele>446.79998779297</ele>
        <time>2021-05-26T08:31:24.000Z</time>
      </trkpt>
      <trkpt lat="43.8718" lon="2.78128">
        <ele>446.20001220703</ele>
        <time>2021-05-26T08:31:37.000Z</time>
      </trkpt>
      <trkpt lat="43.87175" lon="2.78103">
        <ele>445.60000610352</ele>
        <time>2021-05-26T08:31:49.000Z</time>
      </trkpt>
      <trkpt lat="43.87169" lon="2.78081">
        <ele>445.60000610352</ele>
        <time>2021-05-26T08:32:01.000Z</time>
      </trkpt>
      <trkpt lat="43.87176" lon="2.78057">
        <ele>444.60000610352</ele>
        <time>2021-05-26T08:32:12.000Z</time>
      </trkpt>
      <trkpt lat="43.87171" lon="2.78032">
        <ele>445</ele>
        <time>2021-05-26T08:32:24.000Z</time>
      </trkpt>
      <trkpt lat="43.87162" lon="2.78009">
        <ele>446</ele>
        <time>2021-05-26T08:32:37.000Z</time>
      </trkpt>
      <trkpt lat="43.87167" lon="2.77987">
        <ele>446.39999389648</ele>
        <time>2021-05-26T08:32:49.000Z</time>
      </trkpt>
      <trkpt lat="43.87165" lon="2.77964">
        <ele>447.60000610352</ele>
        <time>2021-05-26T08:33:03.000Z</time>
      </trkpt>
      <trkpt lat="43.87169" lon="2.77939">
        <ele>447.79998779297</ele>
        <time>2021-05-26T08:33:16.000Z</time>
      </trkpt>
      <trkpt lat="43.87172" lon="2.77916">
        <ele>448.20001220703</ele>
        <time>2021-05-26T08:33:41.000Z</time>
      </trkpt>
      <trkpt lat="43.87172" lon="2.7789">
        <ele>449.39999389648</ele>
        <time>2021-05-26T08:33:54.000Z</time>
      </trkpt>
      <trkpt lat="43.87178" lon="2.77866">
        <ele>450</ele>
        <time>2021-05-26T08:34:08.000Z</time>
      </trkpt>
      <trkpt lat="43.87179" lon="2.77856">
        <ele>450.60000610352</ele>
        <time>2021-05-26T08:34:13.000Z</time>
      </trkpt>
      <trkpt lat="43.87189" lon="2.77837">
        <ele>450</ele>
        <time>2021-05-26T08:34:26.000Z</time>
      </trkpt>
      <trkpt lat="43.87188" lon="2.77817">
        <ele>451</ele>
        <time>2021-05-26T08:34:37.000Z</time>
      </trkpt>
      <trkpt lat="43.87195" lon="2.77796">
        <ele>451.60000610352</ele>
        <time>2021-05-26T08:34:51.000Z</time>
      </trkpt>
      <trkpt lat="43.87196" lon="2.77771">
        <ele>452.39999389648</ele>
        <time>2021-05-26T08:35:06.000Z</time>
      </trkpt>
      <trkpt lat="43.87195" lon="2.77751">
        <ele>453</ele>
        <time>2021-05-26T08:35:27.000Z</time>
      </trkpt>
      <trkpt lat="43.87181" lon="2.77733">
        <ele>452.60000610352</ele>
        <time>2021-05-26T08:35:42.000Z</time>
      </trkpt>
      <trkpt lat="43.87166" lon="2.77744">
        <ele>454</ele>
        <time>2021-05-26T08:35:55.000Z</time>
      </trkpt>
      <trkpt lat="43.87151" lon="2.77759">
        <ele>456</ele>
        <time>2021-05-26T08:36:07.000Z</time>
      </trkpt>
      <trkpt lat="43.87137" lon="2.77775">
        <ele>456.60000610352</ele>
        <time>2021-05-26T08:36:19.000Z</time>
      </trkpt>
      <trkpt lat="43.87123" lon="2.77794">
        <ele>458.60000610352</ele>
        <time>2021-05-26T08:36:32.000Z</time>
      </trkpt>
      <trkpt lat="43.87108" lon="2.7781">
        <ele>461</ele>
        <time>2021-05-26T08:36:44.000Z</time>
      </trkpt>
      <trkpt lat="43.87094" lon="2.77828">
        <ele>462.60000610352</ele>
        <time>2021-05-26T08:36:57.000Z</time>
      </trkpt>
      <trkpt lat="43.8708" lon="2.77846">
        <ele>464.79998779297</ele>
        <time>2021-05-26T08:37:12.000Z</time>
      </trkpt>
      <trkpt lat="43.87067" lon="2.77865">
        <ele>465.79998779297</ele>
        <time>2021-05-26T08:37:26.000Z</time>
      </trkpt>
      <trkpt lat="43.87053" lon="2.77884">
        <ele>467.39999389648</ele>
        <time>2021-05-26T08:37:39.000Z</time>
      </trkpt>
      <trkpt lat="43.87042" lon="2.77904">
        <ele>469.60000610352</ele>
        <time>2021-05-26T08:37:52.000Z</time>
      </trkpt>
      <trkpt lat="43.87032" lon="2.77927">
        <ele>471.20001220703</ele>
        <time>2021-05-26T08:38:05.000Z</time>
      </trkpt>
      <trkpt lat="43.87019" lon="2.77946">
        <ele>472.39999389648</ele>
        <time>2021-05-26T08:38:18.000Z</time>
      </trkpt>
      <trkpt lat="43.87005" lon="2.77963">
        <ele>472.39999389648</ele>
        <time>2021-05-26T08:38:32.000Z</time>
      </trkpt>
      <trkpt lat="43.86993" lon="2.77983">
        <ele>472.79998779297</ele>
        <time>2021-05-26T08:38:45.000Z</time>
      </trkpt>
      <trkpt lat="43.86984" lon="2.78005">
        <ele>474.60000610352</ele>
        <time>2021-05-26T08:38:58.000Z</time>
      </trkpt>
      <trkpt lat="43.86979" lon="2.78029">
        <ele>475.60000610352</ele>
        <time>2021-05-26T08:39:11.000Z</time>
      </trkpt>
      <trkpt lat="43.86975" lon="2.78055">
        <ele>475.79998779297</ele>
        <time>2021-05-26T08:39:24.000Z</time>
      </trkpt>
      <trkpt lat="43.86973" lon="2.78081">
        <ele>475.39999389648</ele>
        <time>2021-05-26T08:39:37.000Z</time>
      </trkpt>
      <trkpt lat="43.86975" lon="2.78107">
        <ele>475.60000610352</ele>
        <time>2021-05-26T08:39:49.000Z</time>
      </trkpt>
      <trkpt lat="43.8698" lon="2.78132">
        <ele>476</ele>
        <time>2021-05-26T08:40:02.000Z</time>
      </trkpt>
      <trkpt lat="43.86986" lon="2.78156">
        <ele>475.20001220703</ele>
        <time>2021-05-26T08:40:14.000Z</time>
      </trkpt>
      <trkpt lat="43.86993" lon="2.7818">
        <ele>475</ele>
        <time>2021-05-26T08:40:27.000Z</time>
      </trkpt>
      <trkpt lat="43.86996" lon="2.78205">
        <ele>475.79998779297</ele>
        <time>2021-05-26T08:40:39.000Z</time>
      </trkpt>
      <trkpt lat="43.86998" lon="2.78232">
        <ele>476.79998779297</ele>
        <time>2021-05-26T08:40:52.000Z</time>
      </trkpt>
      <trkpt lat="43.87" lon="2.78257">
        <ele>477</ele>
        <time>2021-05-26T08:41:04.000Z</time>
      </trkpt>
      <trkpt lat="43.87001" lon="2.78282">
        <ele>478</ele>
        <time>2021-05-26T08:41:13.000Z</time>
      </trkpt>
      <trkpt lat="43.87005" lon="2.78309">
        <ele>479</ele>
        <time>2021-05-26T08:41:23.000Z</time>
      </trkpt>
      <trkpt lat="43.87007" lon="2.78333">
        <ele>479.79998779297</ele>
        <time>2021-05-26T08:41:35.000Z</time>
      </trkpt>
      <trkpt lat="43.87007" lon="2.78359">
        <ele>479.60000610352</ele>
        <time>2021-05-26T08:41:47.000Z</time>
      </trkpt>
      <trkpt lat="43.87003" lon="2.78385">
        <ele>479.20001220703</ele>
        <time>2021-05-26T08:42:00.000Z</time>
      </trkpt>
      <trkpt lat="43.86993" lon="2.78407">
        <ele>479</ele>
        <time>2021-05-26T08:42:13.000Z</time>
      </trkpt>
      <trkpt lat="43.8698" lon="2.78428">
        <ele>478.39999389648</ele>
        <time>2021-05-26T08:42:26.000Z</time>
      </trkpt>
      <trkpt lat="43.86971" lon="2.78449">
        <ele>476.60000610352</ele>
        <time>2021-05-26T08:42:38.000Z</time>
      </trkpt>
      <trkpt lat="43.86958" lon="2.78468">
        <ele>476</ele>
        <time>2021-05-26T08:42:51.000Z</time>
      </trkpt>
      <trkpt lat="43.86945" lon="2.78487">
        <ele>475.60000610352</ele>
        <time>2021-05-26T08:43:03.000Z</time>
      </trkpt>
      <trkpt lat="43.86933" lon="2.78504">
        <ele>474.79998779297</ele>
        <time>2021-05-26T08:43:15.000Z</time>
      </trkpt>
      <trkpt lat="43.8692" lon="2.78523">
        <ele>472.79998779297</ele>
        <time>2021-05-26T08:43:28.000Z</time>
      </trkpt>
      <trkpt lat="43.86905" lon="2.7854">
        <ele>470.79998779297</ele>
        <time>2021-05-26T08:43:40.000Z</time>
      </trkpt>
      <trkpt lat="43.8689" lon="2.78554">
        <ele>470.39999389648</ele>
        <time>2021-05-26T08:43:52.000Z</time>
      </trkpt>
      <trkpt lat="43.86876" lon="2.78571">
        <ele>471</ele>
        <time>2021-05-26T08:44:04.000Z</time>
      </trkpt>
      <trkpt lat="43.86862" lon="2.78587">
        <ele>471.60000610352</ele>
        <time>2021-05-26T08:44:16.000Z</time>
      </trkpt>
      <trkpt lat="43.86847" lon="2.78602">
        <ele>470.20001220703</ele>
        <time>2021-05-26T08:44:28.000Z</time>
      </trkpt>
      <trkpt lat="43.86833" lon="2.78619">
        <ele>467.79998779297</ele>
        <time>2021-05-26T08:44:40.000Z</time>
      </trkpt>
      <trkpt lat="43.8682" lon="2.78638">
        <ele>465.60000610352</ele>
        <time>2021-05-26T08:44:52.000Z</time>
      </trkpt>
      <trkpt lat="43.86805" lon="2.78656">
        <ele>466.60000610352</ele>
        <time>2021-05-26T08:45:04.000Z</time>
      </trkpt>
      <trkpt lat="43.86791" lon="2.78673">
        <ele>467.39999389648</ele>
        <time>2021-05-26T08:45:16.000Z</time>
      </trkpt>
      <trkpt lat="43.86779" lon="2.78693">
        <ele>467.20001220703</ele>
        <time>2021-05-26T08:45:29.000Z</time>
      </trkpt>
      <trkpt lat="43.86767" lon="2.78713">
        <ele>467.20001220703</ele>
        <time>2021-05-26T08:45:41.000Z</time>
      </trkpt>
      <trkpt lat="43.86756" lon="2.78733">
        <ele>466</ele>
        <time>2021-05-26T08:45:53.000Z</time>
      </trkpt>
      <trkpt lat="43.86742" lon="2.78752">
        <ele>466.39999389648</ele>
        <time>2021-05-26T08:46:06.000Z</time>
      </trkpt>
      <trkpt lat="43.86741" lon="2.78753">
        <ele>466.39999389648</ele>
        <time>2021-05-26T08:46:07.000Z</time>
      </trkpt>
      <trkpt lat="43.86724" lon="2.78743">
        <ele>466.39999389648</ele>
        <time>2021-05-26T08:46:23.000Z</time>
      </trkpt>
      <trkpt lat="43.86706" lon="2.78735">
        <ele>466.39999389648</ele>
        <time>2021-05-26T08:46:36.000Z</time>
      </trkpt>
      <trkpt lat="43.86689" lon="2.78727">
        <ele>466.39999389648</ele>
        <time>2021-05-26T08:46:49.000Z</time>
      </trkpt>
      <trkpt lat="43.86671" lon="2.78717">
        <ele>465.79998779297</ele>
        <time>2021-05-26T08:47:02.000Z</time>
      </trkpt>
      <trkpt lat="43.86654" lon="2.78706">
        <ele>465.39999389648</ele>
        <time>2021-05-26T08:47:14.000Z</time>
      </trkpt>
      <trkpt lat="43.86638" lon="2.78694">
        <ele>465</ele>
        <time>2021-05-26T08:47:26.000Z</time>
      </trkpt>
      <trkpt lat="43.8662" lon="2.78685">
        <ele>464.39999389648</ele>
        <time>2021-05-26T08:47:39.000Z</time>
      </trkpt>
      <trkpt lat="43.86604" lon="2.78672">
        <ele>464</ele>
        <time>2021-05-26T08:47:51.000Z</time>
      </trkpt>
      <trkpt lat="43.86587" lon="2.78659">
        <ele>463.20001220703</ele>
        <time>2021-05-26T08:48:04.000Z</time>
      </trkpt>
      <trkpt lat="43.86571" lon="2.78647">
        <ele>462.60000610352</ele>
        <time>2021-05-26T08:48:16.000Z</time>
      </trkpt>
      <trkpt lat="43.86563" lon="2.78639">
        <ele>462.20001220703</ele>
        <time>2021-05-26T08:49:13.000Z</time>
      </trkpt>
      <trkpt lat="43.8655" lon="2.78631">
        <ele>461.60000610352</ele>
        <time>2021-05-26T08:50:06.000Z</time>
      </trkpt>
      <trkpt lat="43.86536" lon="2.78615">
        <ele>461</ele>
        <time>2021-05-26T08:50:18.000Z</time>
      </trkpt>
      <trkpt lat="43.8652" lon="2.78601">
        <ele>460.20001220703</ele>
        <time>2021-05-26T08:50:28.000Z</time>
      </trkpt>
      <trkpt lat="43.8652" lon="2.78577">
        <ele>460</ele>
        <time>2021-05-26T08:50:40.000Z</time>
      </trkpt>
      <trkpt lat="43.86522" lon="2.78552">
        <ele>460.39999389648</ele>
        <time>2021-05-26T08:50:52.000Z</time>
      </trkpt>
      <trkpt lat="43.86516" lon="2.78527">
        <ele>460.39999389648</ele>
        <time>2021-05-26T08:51:05.000Z</time>
      </trkpt>
      <trkpt lat="43.86504" lon="2.78507">
        <ele>459.79998779297</ele>
        <time>2021-05-26T08:51:17.000Z</time>
      </trkpt>
      <trkpt lat="43.8649" lon="2.7849">
        <ele>459</ele>
        <time>2021-05-26T08:51:29.000Z</time>
      </trkpt>
      <trkpt lat="43.86474" lon="2.78474">
        <ele>458</ele>
        <time>2021-05-26T08:51:41.000Z</time>
      </trkpt>
      <trkpt lat="43.86462" lon="2.78454">
        <ele>457.39999389648</ele>
        <time>2021-05-26T08:51:54.000Z</time>
      </trkpt>
      <trkpt lat="43.86453" lon="2.78432">
        <ele>456.79998779297</ele>
        <time>2021-05-26T08:52:07.000Z</time>
      </trkpt>
      <trkpt lat="43.86451" lon="2.78406">
        <ele>456.79998779297</ele>
        <time>2021-05-26T08:52:20.000Z</time>
      </trkpt>
      <trkpt lat="43.86455" lon="2.7838">
        <ele>457.20001220703</ele>
        <time>2021-05-26T08:52:33.000Z</time>
      </trkpt>
      <trkpt lat="43.8646" lon="2.78357">
        <ele>457.39999389648</ele>
        <time>2021-05-26T08:52:45.000Z</time>
      </trkpt>
      <trkpt lat="43.86475" lon="2.7834">
        <ele>457.79998779297</ele>
        <time>2021-05-26T08:52:57.000Z</time>
      </trkpt>
      <trkpt lat="43.86488" lon="2.78324">
        <ele>458.60000610352</ele>
        <time>2021-05-26T08:53:09.000Z</time>
      </trkpt>
      <trkpt lat="43.86502" lon="2.78307">
        <ele>459.39999389648</ele>
        <time>2021-05-26T08:53:22.000Z</time>
      </trkpt>
      <trkpt lat="43.86513" lon="2.78285">
        <ele>459.79998779297</ele>
        <time>2021-05-26T08:53:35.000Z</time>
      </trkpt>
      <trkpt lat="43.86523" lon="2.78263">
        <ele>460</ele>
        <time>2021-05-26T08:53:48.000Z</time>
      </trkpt>
      <trkpt lat="43.86531" lon="2.78239">
        <ele>460.79998779297</ele>
        <time>2021-05-26T08:54:01.000Z</time>
      </trkpt>
      <trkpt lat="43.86537" lon="2.78214">
        <ele>462</ele>
        <time>2021-05-26T08:54:14.000Z</time>
      </trkpt>
      <trkpt lat="43.8654" lon="2.7819">
        <ele>463</ele>
        <time>2021-05-26T08:54:26.000Z</time>
      </trkpt>
      <trkpt lat="43.86543" lon="2.78163">
        <ele>463.20001220703</ele>
        <time>2021-05-26T08:54:39.000Z</time>
      </trkpt>
      <trkpt lat="43.86534" lon="2.78146">
        <ele>463.20001220703</ele>
        <time>2021-05-26T08:54:53.000Z</time>
      </trkpt>
      <trkpt lat="43.86515" lon="2.78147">
        <ele>463.20001220703</ele>
        <time>2021-05-26T08:55:07.000Z</time>
      </trkpt>
      <trkpt lat="43.86497" lon="2.78151">
        <ele>463.39999389648</ele>
        <time>2021-05-26T08:55:21.000Z</time>
      </trkpt>
      <trkpt lat="43.86479" lon="2.78157">
        <ele>463.39999389648</ele>
        <time>2021-05-26T08:55:34.000Z</time>
      </trkpt>
      <trkpt lat="43.86461" lon="2.78161">
        <ele>463.20001220703</ele>
        <time>2021-05-26T08:55:47.000Z</time>
      </trkpt>
      <trkpt lat="43.86442" lon="2.78166">
        <ele>463.20001220703</ele>
        <time>2021-05-26T08:56:01.000Z</time>
      </trkpt>
      <trkpt lat="43.86425" lon="2.78173">
        <ele>462.39999389648</ele>
        <time>2021-05-26T08:56:14.000Z</time>
      </trkpt>
      <trkpt lat="43.86406" lon="2.78178">
        <ele>461.39999389648</ele>
        <time>2021-05-26T08:56:27.000Z</time>
      </trkpt>
      <trkpt lat="43.86387" lon="2.78181">
        <ele>460.60000610352</ele>
        <time>2021-05-26T08:56:40.000Z</time>
      </trkpt>
      <trkpt lat="43.86368" lon="2.78178">
        <ele>460</ele>
        <time>2021-05-26T08:56:54.000Z</time>
      </trkpt>
      <trkpt lat="43.86349" lon="2.78177">
        <ele>460</ele>
        <time>2021-05-26T08:57:08.000Z</time>
      </trkpt>
      <trkpt lat="43.8633" lon="2.78183">
        <ele>460.39999389648</ele>
        <time>2021-05-26T08:57:20.000Z</time>
      </trkpt>
      <trkpt lat="43.86313" lon="2.78193">
        <ele>460.60000610352</ele>
        <time>2021-05-26T08:57:32.000Z</time>
      </trkpt>
      <trkpt lat="43.86295" lon="2.78202">
        <ele>460.20001220703</ele>
        <time>2021-05-26T08:57:44.000Z</time>
      </trkpt>
      <trkpt lat="43.86278" lon="2.78212">
        <ele>458.79998779297</ele>
        <time>2021-05-26T08:57:57.000Z</time>
      </trkpt>
      <trkpt lat="43.8626" lon="2.78218">
        <ele>459</ele>
        <time>2021-05-26T08:58:10.000Z</time>
      </trkpt>
      <trkpt lat="43.86243" lon="2.78226">
        <ele>459.60000610352</ele>
        <time>2021-05-26T08:58:22.000Z</time>
      </trkpt>
      <trkpt lat="43.86225" lon="2.78236">
        <ele>460.39999389648</ele>
        <time>2021-05-26T08:58:35.000Z</time>
      </trkpt>
      <trkpt lat="43.8621" lon="2.78247">
        <ele>460.79998779297</ele>
        <time>2021-05-26T08:58:47.000Z</time>
      </trkpt>
      <trkpt lat="43.86194" lon="2.78259">
        <ele>461.60000610352</ele>
        <time>2021-05-26T08:59:00.000Z</time>
      </trkpt>
      <trkpt lat="43.86178" lon="2.78273">
        <ele>460.60000610352</ele>
        <time>2021-05-26T08:59:13.000Z</time>
      </trkpt>
      <trkpt lat="43.86161" lon="2.7828">
        <ele>459.39999389648</ele>
        <time>2021-05-26T08:59:23.000Z</time>
      </trkpt>
      <trkpt lat="43.86142" lon="2.78275">
        <ele>459</ele>
        <time>2021-05-26T08:59:36.000Z</time>
      </trkpt>
      <trkpt lat="43.86127" lon="2.78262">
        <ele>459.39999389648</ele>
        <time>2021-05-26T08:59:49.000Z</time>
      </trkpt>
      <trkpt lat="43.86112" lon="2.78246">
        <ele>459.39999389648</ele>
        <time>2021-05-26T09:00:01.000Z</time>
      </trkpt>
      <trkpt lat="43.86098" lon="2.7823">
        <ele>460.39999389648</ele>
        <time>2021-05-26T09:00:14.000Z</time>
      </trkpt>
      <trkpt lat="43.86084" lon="2.78212">
        <ele>462.20001220703</ele>
        <time>2021-05-26T09:00:27.000Z</time>
      </trkpt>
      <trkpt lat="43.86071" lon="2.78195">
        <ele>463.79998779297</ele>
        <time>2021-05-26T09:00:39.000Z</time>
      </trkpt>
      <trkpt lat="43.86057" lon="2.78177">
        <ele>465.60000610352</ele>
        <time>2021-05-26T09:00:52.000Z</time>
      </trkpt>
      <trkpt lat="43.86044" lon="2.7816">
        <ele>467.39999389648</ele>
        <time>2021-05-26T09:01:05.000Z</time>
      </trkpt>
      <trkpt lat="43.86031" lon="2.78143">
        <ele>469.20001220703</ele>
        <time>2021-05-26T09:01:18.000Z</time>
      </trkpt>
      <trkpt lat="43.86014" lon="2.78134">
        <ele>470.60000610352</ele>
        <time>2021-05-26T09:01:31.000Z</time>
      </trkpt>
      <trkpt lat="43.85995" lon="2.78128">
        <ele>471.20001220703</ele>
        <time>2021-05-26T09:01:45.000Z</time>
      </trkpt>
      <trkpt lat="43.85977" lon="2.78126">
        <ele>471.79998779297</ele>
        <time>2021-05-26T09:01:58.000Z</time>
      </trkpt>
      <trkpt lat="43.8596" lon="2.78133">
        <ele>472.20001220703</ele>
        <time>2021-05-26T09:02:09.000Z</time>
      </trkpt>
      <trkpt lat="43.85941" lon="2.78137">
        <ele>472.79998779297</ele>
        <time>2021-05-26T09:02:22.000Z</time>
      </trkpt>
      <trkpt lat="43.85938" lon="2.78131">
        <ele>472.79998779297</ele>
        <time>2021-05-26T09:02:27.000Z</time>
      </trkpt>
      <trkpt lat="43.85937" lon="2.78128">
        <ele>472.79998779297</ele>
        <time>2021-05-26T09:02:53.000Z</time>
      </trkpt>
      <trkpt lat="43.85926" lon="2.78148">
        <ele>471.79998779297</ele>
        <time>2021-05-26T09:03:08.000Z</time>
      </trkpt>
      <trkpt lat="43.85909" lon="2.78156">
        <ele>471.39999389648</ele>
        <time>2021-05-26T09:03:20.000Z</time>
      </trkpt>
      <trkpt lat="43.8589" lon="2.78161">
        <ele>471.60000610352</ele>
        <time>2021-05-26T09:03:33.000Z</time>
      </trkpt>
      <trkpt lat="43.85885" lon="2.78163">
        <ele>471.60000610352</ele>
        <time>2021-05-26T09:03:36.000Z</time>
      </trkpt>
      <trkpt lat="43.85867" lon="2.78171">
        <ele>472</ele>
        <time>2021-05-26T09:03:52.000Z</time>
      </trkpt>
      <trkpt lat="43.85857" lon="2.78175">
        <ele>471.79998779297</ele>
        <time>2021-05-26T09:04:24.000Z</time>
      </trkpt>
      <trkpt lat="43.8586" lon="2.78173">
        <ele>472</ele>
        <time>2021-05-26T09:04:27.000Z</time>
      </trkpt>
      <trkpt lat="43.85877" lon="2.78161">
        <ele>471.60000610352</ele>
        <time>2021-05-26T09:04:40.000Z</time>
      </trkpt>
      <trkpt lat="43.85894" lon="2.78151">
        <ele>471.20001220703</ele>
        <time>2021-05-26T09:04:54.000Z</time>
      </trkpt>
      <trkpt lat="43.85912" lon="2.78146">
        <ele>471</ele>
        <time>2021-05-26T09:05:07.000Z</time>
      </trkpt>
      <trkpt lat="43.85917" lon="2.78144">
        <ele>471.39999389648</ele>
        <time>2021-05-26T09:05:11.000Z</time>
      </trkpt>
      <trkpt lat="43.8593" lon="2.78162">
        <ele>471.60000610352</ele>
        <time>2021-05-26T09:05:23.000Z</time>
      </trkpt>
      <trkpt lat="43.85941" lon="2.78182">
        <ele>471.39999389648</ele>
        <time>2021-05-26T09:05:35.000Z</time>
      </trkpt>
      <trkpt lat="43.85948" lon="2.782">
        <ele>470.20001220703</ele>
        <time>2021-05-26T09:05:46.000Z</time>
      </trkpt>
      <trkpt lat="43.8595" lon="2.78213">
        <ele>469.60000610352</ele>
        <time>2021-05-26T09:06:28.000Z</time>
      </trkpt>
      <trkpt lat="43.85944" lon="2.78215">
        <ele>469.60000610352</ele>
        <time>2021-05-26T09:08:34.000Z</time>
      </trkpt>
      <trkpt lat="43.85947" lon="2.78209">
        <ele>469.79998779297</ele>
        <time>2021-05-26T09:11:46.000Z</time>
      </trkpt>
      <trkpt lat="43.85942" lon="2.78215">
        <ele>469.79998779297</ele>
        <time>2021-05-26T09:14:56.000Z</time>
      </trkpt>
      <trkpt lat="43.85946" lon="2.78192">
        <ele>470.79998779297</ele>
        <time>2021-05-26T09:15:15.000Z</time>
      </trkpt>
      <trkpt lat="43.85945" lon="2.78166">
        <ele>472</ele>
        <time>2021-05-26T09:15:28.000Z</time>
      </trkpt>
      <trkpt lat="43.85935" lon="2.78145">
        <ele>472.39999389648</ele>
        <time>2021-05-26T09:15:40.000Z</time>
      </trkpt>
      <trkpt lat="43.85929" lon="2.78127">
        <ele>472.39999389648</ele>
        <time>2021-05-26T09:15:50.000Z</time>
      </trkpt>
      <trkpt lat="43.85928" lon="2.78125">
        <ele>472.39999389648</ele>
        <time>2021-05-26T09:15:52.000Z</time>
      </trkpt>
      <trkpt lat="43.85923" lon="2.78116">
        <ele>472.39999389648</ele>
        <time>2021-05-26T09:16:00.000Z</time>
      </trkpt>
      <trkpt lat="43.85915" lon="2.78092">
        <ele>472.39999389648</ele>
        <time>2021-05-26T09:16:13.000Z</time>
      </trkpt>
      <trkpt lat="43.85908" lon="2.78068">
        <ele>470.39999389648</ele>
        <time>2021-05-26T09:16:25.000Z</time>
      </trkpt>
      <trkpt lat="43.859" lon="2.78044">
        <ele>468.20001220703</ele>
        <time>2021-05-26T09:16:39.000Z</time>
      </trkpt>
      <trkpt lat="43.85893" lon="2.78022">
        <ele>466.60000610352</ele>
        <time>2021-05-26T09:16:52.000Z</time>
      </trkpt>
      <trkpt lat="43.85885" lon="2.77997">
        <ele>465</ele>
        <time>2021-05-26T09:17:05.000Z</time>
      </trkpt>
      <trkpt lat="43.85877" lon="2.77973">
        <ele>463.79998779297</ele>
        <time>2021-05-26T09:17:18.000Z</time>
      </trkpt>
      <trkpt lat="43.85868" lon="2.77949">
        <ele>462.60000610352</ele>
        <time>2021-05-26T09:17:30.000Z</time>
      </trkpt>
      <trkpt lat="43.85861" lon="2.77926">
        <ele>461.60000610352</ele>
        <time>2021-05-26T09:17:42.000Z</time>
      </trkpt>
      <trkpt lat="43.85854" lon="2.77903">
        <ele>461</ele>
        <time>2021-05-26T09:17:54.000Z</time>
      </trkpt>
      <trkpt lat="43.85844" lon="2.77882">
        <ele>460.60000610352</ele>
        <time>2021-05-26T09:18:06.000Z</time>
      </trkpt>
      <trkpt lat="43.85831" lon="2.77863">
        <ele>460</ele>
        <time>2021-05-26T09:18:19.000Z</time>
      </trkpt>
      <trkpt lat="43.85812" lon="2.77864">
        <ele>459.39999389648</ele>
        <time>2021-05-26T09:18:32.000Z</time>
      </trkpt>
      <trkpt lat="43.85798" lon="2.7788">
        <ele>459</ele>
        <time>2021-05-26T09:18:44.000Z</time>
      </trkpt>
      <trkpt lat="43.85782" lon="2.77895">
        <ele>458.39999389648</ele>
        <time>2021-05-26T09:18:58.000Z</time>
      </trkpt>
      <trkpt lat="43.85766" lon="2.77909">
        <ele>458.20001220703</ele>
        <time>2021-05-26T09:19:11.000Z</time>
      </trkpt>
      <trkpt lat="43.85748" lon="2.77919">
        <ele>458.60000610352</ele>
        <time>2021-05-26T09:19:25.000Z</time>
      </trkpt>
      <trkpt lat="43.85731" lon="2.77932">
        <ele>458.79998779297</ele>
        <time>2021-05-26T09:19:38.000Z</time>
      </trkpt>
      <trkpt lat="43.85715" lon="2.77945">
        <ele>459.20001220703</ele>
        <time>2021-05-26T09:19:50.000Z</time>
      </trkpt>
      <trkpt lat="43.85699" lon="2.77957">
        <ele>457.39999389648</ele>
        <time>2021-05-26T09:20:02.000Z</time>
      </trkpt>
      <trkpt lat="43.85683" lon="2.77971">
        <ele>455.39999389648</ele>
        <time>2021-05-26T09:20:15.000Z</time>
      </trkpt>
      <trkpt lat="43.85667" lon="2.77983">
        <ele>453.20001220703</ele>
        <time>2021-05-26T09:20:28.000Z</time>
      </trkpt>
      <trkpt lat="43.85651" lon="2.77998">
        <ele>451.60000610352</ele>
        <time>2021-05-26T09:20:41.000Z</time>
      </trkpt>
      <trkpt lat="43.85636" lon="2.78014">
        <ele>450.20001220703</ele>
        <time>2021-05-26T09:20:54.000Z</time>
      </trkpt>
      <trkpt lat="43.85628" lon="2.78036">
        <ele>449.20001220703</ele>
        <time>2021-05-26T09:21:07.000Z</time>
      </trkpt>
      <trkpt lat="43.85617" lon="2.78058">
        <ele>447.79998779297</ele>
        <time>2021-05-26T09:21:19.000Z</time>
      </trkpt>
      <trkpt lat="43.85607" lon="2.7808">
        <ele>446.39999389648</ele>
        <time>2021-05-26T09:21:31.000Z</time>
      </trkpt>
      <trkpt lat="43.85596" lon="2.78101">
        <ele>445.39999389648</ele>
        <time>2021-05-26T09:21:43.000Z</time>
      </trkpt>
      <trkpt lat="43.85586" lon="2.78124">
        <ele>444.79998779297</ele>
        <time>2021-05-26T09:21:54.000Z</time>
      </trkpt>
      <trkpt lat="43.85576" lon="2.78145">
        <ele>444.39999389648</ele>
        <time>2021-05-26T09:22:06.000Z</time>
      </trkpt>
      <trkpt lat="43.85565" lon="2.78166">
        <ele>444.39999389648</ele>
        <time>2021-05-26T09:22:18.000Z</time>
      </trkpt>
      <trkpt lat="43.85554" lon="2.78189">
        <ele>444.39999389648</ele>
        <time>2021-05-26T09:22:30.000Z</time>
      </trkpt>
      <trkpt lat="43.85544" lon="2.78211">
        <ele>444</ele>
        <time>2021-05-26T09:22:42.000Z</time>
      </trkpt>
      <trkpt lat="43.85534" lon="2.78233">
        <ele>443.60000610352</ele>
        <time>2021-05-26T09:22:53.000Z</time>
      </trkpt>
      <trkpt lat="43.85518" lon="2.78248">
        <ele>443.20001220703</ele>
        <time>2021-05-26T09:23:04.000Z</time>
      </trkpt>
      <trkpt lat="43.855" lon="2.78249">
        <ele>443.79998779297</ele>
        <time>2021-05-26T09:23:15.000Z</time>
      </trkpt>
      <trkpt lat="43.85483" lon="2.78242">
        <ele>444.60000610352</ele>
        <time>2021-05-26T09:23:32.000Z</time>
      </trkpt>
      <trkpt lat="43.85484" lon="2.78245">
        <ele>444.39999389648</ele>
        <time>2021-05-26T09:23:41.000Z</time>
      </trkpt>
      <trkpt lat="43.85489" lon="2.78253">
        <ele>444.20001220703</ele>
        <time>2021-05-26T09:23:54.000Z</time>
      </trkpt>
      <trkpt lat="43.85484" lon="2.78263">
        <ele>444.20001220703</ele>
        <time>2021-05-26T09:24:00.000Z</time>
      </trkpt>
      <trkpt lat="43.85481" lon="2.78289">
        <ele>443.60000610352</ele>
        <time>2021-05-26T09:24:13.000Z</time>
      </trkpt>
      <trkpt lat="43.85478" lon="2.78315">
        <ele>443</ele>
        <time>2021-05-26T09:24:26.000Z</time>
      </trkpt>
      <trkpt lat="43.85475" lon="2.7834">
        <ele>442</ele>
        <time>2021-05-26T09:24:39.000Z</time>
      </trkpt>
      <trkpt lat="43.8547" lon="2.78366">
        <ele>441.60000610352</ele>
        <time>2021-05-26T09:24:52.000Z</time>
      </trkpt>
      <trkpt lat="43.85466" lon="2.78392">
        <ele>440.79998779297</ele>
        <time>2021-05-26T09:25:04.000Z</time>
      </trkpt>
      <trkpt lat="43.85464" lon="2.78418">
        <ele>439.79998779297</ele>
        <time>2021-05-26T09:25:16.000Z</time>
      </trkpt>
      <trkpt lat="43.8546" lon="2.78443">
        <ele>438.79998779297</ele>
        <time>2021-05-26T09:25:28.000Z</time>
      </trkpt>
      <trkpt lat="43.8545" lon="2.78466">
        <ele>438.20001220703</ele>
        <time>2021-05-26T09:25:41.000Z</time>
      </trkpt>
      <trkpt lat="43.85436" lon="2.78484">
        <ele>437.79998779297</ele>
        <time>2021-05-26T09:25:53.000Z</time>
      </trkpt>
      <trkpt lat="43.85422" lon="2.785">
        <ele>438</ele>
        <time>2021-05-26T09:26:06.000Z</time>
      </trkpt>
      <trkpt lat="43.85407" lon="2.78516">
        <ele>438.60000610352</ele>
        <time>2021-05-26T09:26:18.000Z</time>
      </trkpt>
      <trkpt lat="43.85391" lon="2.78527">
        <ele>439.39999389648</ele>
        <time>2021-05-26T09:26:30.000Z</time>
      </trkpt>
      <trkpt lat="43.85373" lon="2.78528">
        <ele>440.60000610352</ele>
        <time>2021-05-26T09:26:43.000Z</time>
      </trkpt>
      <trkpt lat="43.85354" lon="2.7853">
        <ele>442.79998779297</ele>
        <time>2021-05-26T09:26:57.000Z</time>
      </trkpt>
      <trkpt lat="43.85336" lon="2.78535">
        <ele>442.79998779297</ele>
        <time>2021-05-26T09:27:09.000Z</time>
      </trkpt>
      <trkpt lat="43.85318" lon="2.78541">
        <ele>442.79998779297</ele>
        <time>2021-05-26T09:27:21.000Z</time>
      </trkpt>
      <trkpt lat="43.85301" lon="2.7855">
        <ele>442.60000610352</ele>
        <time>2021-05-26T09:27:33.000Z</time>
      </trkpt>
      <trkpt lat="43.85284" lon="2.78562">
        <ele>442.39999389648</ele>
        <time>2021-05-26T09:27:47.000Z</time>
      </trkpt>
      <trkpt lat="43.85266" lon="2.78569">
        <ele>442</ele>
        <time>2021-05-26T09:27:59.000Z</time>
      </trkpt>
      <trkpt lat="43.85248" lon="2.78575">
        <ele>441.79998779297</ele>
        <time>2021-05-26T09:28:12.000Z</time>
      </trkpt>
      <trkpt lat="43.85232" lon="2.7859">
        <ele>441.60000610352</ele>
        <time>2021-05-26T09:28:25.000Z</time>
      </trkpt>
      <trkpt lat="43.85218" lon="2.78608">
        <ele>442.20001220703</ele>
        <time>2021-05-26T09:28:38.000Z</time>
      </trkpt>
      <trkpt lat="43.85205" lon="2.78621">
        <ele>442.20001220703</ele>
        <time>2021-05-26T09:28:48.000Z</time>
      </trkpt>
      <trkpt lat="43.85191" lon="2.78637">
        <ele>441.79998779297</ele>
        <time>2021-05-26T09:29:00.000Z</time>
      </trkpt>
      <trkpt lat="43.85175" lon="2.78649">
        <ele>441.60000610352</ele>
        <time>2021-05-26T09:29:12.000Z</time>
      </trkpt>
      <trkpt lat="43.85156" lon="2.78653">
        <ele>441</ele>
        <time>2021-05-26T09:29:26.000Z</time>
      </trkpt>
      <trkpt lat="43.85138" lon="2.78659">
        <ele>440.20001220703</ele>
        <time>2021-05-26T09:29:38.000Z</time>
      </trkpt>
      <trkpt lat="43.85119" lon="2.78662">
        <ele>439.39999389648</ele>
        <time>2021-05-26T09:29:51.000Z</time>
      </trkpt>
      <trkpt lat="43.851" lon="2.78667">
        <ele>438.79998779297</ele>
        <time>2021-05-26T09:30:03.000Z</time>
      </trkpt>
      <trkpt lat="43.85081" lon="2.78672">
        <ele>438.20001220703</ele>
        <time>2021-05-26T09:30:15.000Z</time>
      </trkpt>
      <trkpt lat="43.85063" lon="2.78677">
        <ele>437.39999389648</ele>
        <time>2021-05-26T09:30:27.000Z</time>
      </trkpt>
      <trkpt lat="43.85044" lon="2.78682">
        <ele>436.79998779297</ele>
        <time>2021-05-26T09:30:40.000Z</time>
      </trkpt>
      <trkpt lat="43.85024" lon="2.78683">
        <ele>436</ele>
        <time>2021-05-26T09:30:54.000Z</time>
      </trkpt>
      <trkpt lat="43.85007" lon="2.78687">
        <ele>435.60000610352</ele>
        <time>2021-05-26T09:31:06.000Z</time>
      </trkpt>
      <trkpt lat="43.84988" lon="2.78693">
        <ele>435.20001220703</ele>
        <time>2021-05-26T09:31:19.000Z</time>
      </trkpt>
      <trkpt lat="43.84969" lon="2.78696">
        <ele>434.79998779297</ele>
        <time>2021-05-26T09:31:32.000Z</time>
      </trkpt>
      <trkpt lat="43.8495" lon="2.78702">
        <ele>434.60000610352</ele>
        <time>2021-05-26T09:31:44.000Z</time>
      </trkpt>
      <trkpt lat="43.84932" lon="2.78704">
        <ele>434.20001220703</ele>
        <time>2021-05-26T09:31:56.000Z</time>
      </trkpt>
      <trkpt lat="43.84914" lon="2.78707">
        <ele>433.60000610352</ele>
        <time>2021-05-26T09:32:09.000Z</time>
      </trkpt>
      <trkpt lat="43.84896" lon="2.78707">
        <ele>432.79998779297</ele>
        <time>2021-05-26T09:32:21.000Z</time>
      </trkpt>
      <trkpt lat="43.84878" lon="2.78698">
        <ele>432.20001220703</ele>
        <time>2021-05-26T09:32:34.000Z</time>
      </trkpt>
      <trkpt lat="43.84859" lon="2.7869">
        <ele>431.60000610352</ele>
        <time>2021-05-26T09:32:47.000Z</time>
      </trkpt>
      <trkpt lat="43.84842" lon="2.78681">
        <ele>430.20001220703</ele>
        <time>2021-05-26T09:33:00.000Z</time>
      </trkpt>
      <trkpt lat="43.84825" lon="2.78672">
        <ele>428.39999389648</ele>
        <time>2021-05-26T09:33:13.000Z</time>
      </trkpt>
      <trkpt lat="43.84808" lon="2.78676">
        <ele>427</ele>
        <time>2021-05-26T09:33:29.000Z</time>
      </trkpt>
      <trkpt lat="43.84798" lon="2.78699">
        <ele>426.79998779297</ele>
        <time>2021-05-26T09:33:42.000Z</time>
      </trkpt>
      <trkpt lat="43.84787" lon="2.7872">
        <ele>426.39999389648</ele>
        <time>2021-05-26T09:33:55.000Z</time>
      </trkpt>
      <trkpt lat="43.84776" lon="2.78742">
        <ele>426</ele>
        <time>2021-05-26T09:34:06.000Z</time>
      </trkpt>
      <trkpt lat="43.84768" lon="2.78764">
        <ele>425.79998779297</ele>
        <time>2021-05-26T09:34:17.000Z</time>
      </trkpt>
      <trkpt lat="43.84758" lon="2.78786">
        <ele>425.39999389648</ele>
        <time>2021-05-26T09:34:29.000Z</time>
      </trkpt>
      <trkpt lat="43.84747" lon="2.78808">
        <ele>424.79998779297</ele>
        <time>2021-05-26T09:34:42.000Z</time>
      </trkpt>
      <trkpt lat="43.84736" lon="2.78829">
        <ele>423</ele>
        <time>2021-05-26T09:34:52.000Z</time>
      </trkpt>
      <trkpt lat="43.84725" lon="2.78848">
        <ele>421.20001220703</ele>
        <time>2021-05-26T09:35:04.000Z</time>
      </trkpt>
      <trkpt lat="43.84711" lon="2.78866">
        <ele>419.60000610352</ele>
        <time>2021-05-26T09:35:16.000Z</time>
      </trkpt>
      <trkpt lat="43.84702" lon="2.78889">
        <ele>418.39999389648</ele>
        <time>2021-05-26T09:35:28.000Z</time>
      </trkpt>
      <trkpt lat="43.84689" lon="2.78909">
        <ele>416.79998779297</ele>
        <time>2021-05-26T09:35:41.000Z</time>
      </trkpt>
      <trkpt lat="43.84672" lon="2.78919">
        <ele>416.39999389648</ele>
        <time>2021-05-26T09:35:53.000Z</time>
      </trkpt>
      <trkpt lat="43.84654" lon="2.78926">
        <ele>415.60000610352</ele>
        <time>2021-05-26T09:36:06.000Z</time>
      </trkpt>
      <trkpt lat="43.84637" lon="2.78936">
        <ele>414.79998779297</ele>
        <time>2021-05-26T09:36:18.000Z</time>
      </trkpt>
      <trkpt lat="43.84618" lon="2.78945">
        <ele>413.79998779297</ele>
        <time>2021-05-26T09:36:30.000Z</time>
      </trkpt>
      <trkpt lat="43.846" lon="2.78954">
        <ele>412.79998779297</ele>
        <time>2021-05-26T09:36:42.000Z</time>
      </trkpt>
      <trkpt lat="43.84583" lon="2.78962">
        <ele>412.79998779297</ele>
        <time>2021-05-26T09:36:54.000Z</time>
      </trkpt>
      <trkpt lat="43.84566" lon="2.78973">
        <ele>413</ele>
        <time>2021-05-26T09:37:07.000Z</time>
      </trkpt>
      <trkpt lat="43.8455" lon="2.78987">
        <ele>413.60000610352</ele>
        <time>2021-05-26T09:37:19.000Z</time>
      </trkpt>
      <trkpt lat="43.84533" lon="2.78997">
        <ele>414.39999389648</ele>
        <time>2021-05-26T09:37:31.000Z</time>
      </trkpt>
      <trkpt lat="43.84516" lon="2.79005">
        <ele>415.39999389648</ele>
        <time>2021-05-26T09:37:43.000Z</time>
      </trkpt>
      <trkpt lat="43.84498" lon="2.79014">
        <ele>416</ele>
        <time>2021-05-26T09:37:56.000Z</time>
      </trkpt>
      <trkpt lat="43.8448" lon="2.79023">
        <ele>416.60000610352</ele>
        <time>2021-05-26T09:38:09.000Z</time>
      </trkpt>
      <trkpt lat="43.84463" lon="2.79031">
        <ele>417.20001220703</ele>
        <time>2021-05-26T09:38:21.000Z</time>
      </trkpt>
      <trkpt lat="43.84445" lon="2.79036">
        <ele>417.39999389648</ele>
        <time>2021-05-26T09:38:33.000Z</time>
      </trkpt>
      <trkpt lat="43.84426" lon="2.7904">
        <ele>416.60000610352</ele>
        <time>2021-05-26T09:38:45.000Z</time>
      </trkpt>
      <trkpt lat="43.84407" lon="2.79043">
        <ele>415.60000610352</ele>
        <time>2021-05-26T09:38:58.000Z</time>
      </trkpt>
      <trkpt lat="43.84388" lon="2.79047">
        <ele>414.79998779297</ele>
        <time>2021-05-26T09:39:09.000Z</time>
      </trkpt>
      <trkpt lat="43.8437" lon="2.79049">
        <ele>414.20001220703</ele>
        <time>2021-05-26T09:39:19.000Z</time>
      </trkpt>
      <trkpt lat="43.84357" lon="2.79064">
        <ele>413.60000610352</ele>
        <time>2021-05-26T09:39:31.000Z</time>
      </trkpt>
      <trkpt lat="43.8436" lon="2.79089">
        <ele>413</ele>
        <time>2021-05-26T09:39:41.000Z</time>
      </trkpt>
      <trkpt lat="43.84365" lon="2.79113">
        <ele>412.60000610352</ele>
        <time>2021-05-26T09:39:52.000Z</time>
      </trkpt>
      <trkpt lat="43.84372" lon="2.79138">
        <ele>412</ele>
        <time>2021-05-26T09:40:03.000Z</time>
      </trkpt>
      <trkpt lat="43.84378" lon="2.79163">
        <ele>411.39999389648</ele>
        <time>2021-05-26T09:40:15.000Z</time>
      </trkpt>
      <trkpt lat="43.84383" lon="2.79187">
        <ele>410.39999389648</ele>
        <time>2021-05-26T09:40:26.000Z</time>
      </trkpt>
      <trkpt lat="43.84389" lon="2.79211">
        <ele>409.20001220703</ele>
        <time>2021-05-26T09:40:38.000Z</time>
      </trkpt>
      <trkpt lat="43.84396" lon="2.79234">
        <ele>408.20001220703</ele>
        <time>2021-05-26T09:40:49.000Z</time>
      </trkpt>
      <trkpt lat="43.84399" lon="2.79258">
        <ele>407.39999389648</ele>
        <time>2021-05-26T09:41:00.000Z</time>
      </trkpt>
      <trkpt lat="43.84406" lon="2.79283">
        <ele>407</ele>
        <time>2021-05-26T09:41:12.000Z</time>
      </trkpt>
      <trkpt lat="43.84414" lon="2.79306">
        <ele>406.60000610352</ele>
        <time>2021-05-26T09:41:24.000Z</time>
      </trkpt>
      <trkpt lat="43.84421" lon="2.7933">
        <ele>406.39999389648</ele>
        <time>2021-05-26T09:41:36.000Z</time>
      </trkpt>
      <trkpt lat="43.84428" lon="2.79355">
        <ele>406.20001220703</ele>
        <time>2021-05-26T09:41:49.000Z</time>
      </trkpt>
      <trkpt lat="43.84434" lon="2.79378">
        <ele>406.20001220703</ele>
        <time>2021-05-26T09:42:01.000Z</time>
      </trkpt>
      <trkpt lat="43.84441" lon="2.79403">
        <ele>406</ele>
        <time>2021-05-26T09:42:14.000Z</time>
      </trkpt>
      <trkpt lat="43.84448" lon="2.79427">
        <ele>406</ele>
        <time>2021-05-26T09:42:26.000Z</time>
      </trkpt>
      <trkpt lat="43.84456" lon="2.79449">
        <ele>405.79998779297</ele>
        <time>2021-05-26T09:42:38.000Z</time>
      </trkpt>
      <trkpt lat="43.84463" lon="2.79474">
        <ele>405.79998779297</ele>
        <time>2021-05-26T09:42:51.000Z</time>
      </trkpt>
      <trkpt lat="43.84472" lon="2.79497">
        <ele>405.60000610352</ele>
        <time>2021-05-26T09:43:04.000Z</time>
      </trkpt>
      <trkpt lat="43.84482" lon="2.79518">
        <ele>405.20001220703</ele>
        <time>2021-05-26T09:43:16.000Z</time>
      </trkpt>
      <trkpt lat="43.84492" lon="2.79539">
        <ele>404.60000610352</ele>
        <time>2021-05-26T09:43:28.000Z</time>
      </trkpt>
      <trkpt lat="43.84503" lon="2.79561">
        <ele>403.79998779297</ele>
        <time>2021-05-26T09:43:41.000Z</time>
      </trkpt>
      <trkpt lat="43.84513" lon="2.79584">
        <ele>403.39999389648</ele>
        <time>2021-05-26T09:43:55.000Z</time>
      </trkpt>
      <trkpt lat="43.84524" lon="2.79605">
        <ele>402.39999389648</ele>
        <time>2021-05-26T09:44:09.000Z</time>
      </trkpt>
      <trkpt lat="43.84535" lon="2.79625">
        <ele>401.39999389648</ele>
        <time>2021-05-26T09:44:20.000Z</time>
      </trkpt>
      <trkpt lat="43.84543" lon="2.79649">
        <ele>400.39999389648</ele>
        <time>2021-05-26T09:44:31.000Z</time>
      </trkpt>
      <trkpt lat="43.84543" lon="2.79652">
        <ele>400.20001220703</ele>
        <time>2021-05-26T09:44:32.000Z</time>
      </trkpt>
      <trkpt lat="43.84552" lon="2.79675">
        <ele>399.20001220703</ele>
        <time>2021-05-26T09:44:44.000Z</time>
      </trkpt>
      <trkpt lat="43.84559" lon="2.79699">
        <ele>398.20001220703</ele>
        <time>2021-05-26T09:44:56.000Z</time>
      </trkpt>
      <trkpt lat="43.84563" lon="2.79723">
        <ele>397.39999389648</ele>
        <time>2021-05-26T09:45:07.000Z</time>
      </trkpt>
      <trkpt lat="43.84556" lon="2.79748">
        <ele>397</ele>
        <time>2021-05-26T09:45:20.000Z</time>
      </trkpt>
      <trkpt lat="43.84549" lon="2.79772">
        <ele>397.20001220703</ele>
        <time>2021-05-26T09:45:34.000Z</time>
      </trkpt>
      <trkpt lat="43.8454" lon="2.79795">
        <ele>398.60000610352</ele>
        <time>2021-05-26T09:45:47.000Z</time>
      </trkpt>
      <trkpt lat="43.84546" lon="2.7982">
        <ele>399.39999389648</ele>
        <time>2021-05-26T09:45:58.000Z</time>
      </trkpt>
      <trkpt lat="43.84556" lon="2.7984">
        <ele>399.60000610352</ele>
        <time>2021-05-26T09:46:09.000Z</time>
      </trkpt>
      <trkpt lat="43.84562" lon="2.79864">
        <ele>399.20001220703</ele>
        <time>2021-05-26T09:46:22.000Z</time>
      </trkpt>
      <trkpt lat="43.84559" lon="2.79891">
        <ele>399.79998779297</ele>
        <time>2021-05-26T09:46:35.000Z</time>
      </trkpt>
      <trkpt lat="43.84559" lon="2.79918">
        <ele>400.79998779297</ele>
        <time>2021-05-26T09:46:47.000Z</time>
      </trkpt>
      <trkpt lat="43.84559" lon="2.79944">
        <ele>401</ele>
        <time>2021-05-26T09:46:59.000Z</time>
      </trkpt>
      <trkpt lat="43.84559" lon="2.7997">
        <ele>401</ele>
        <time>2021-05-26T09:47:12.000Z</time>
      </trkpt>
      <trkpt lat="43.84559" lon="2.79995">
        <ele>400.60000610352</ele>
        <time>2021-05-26T09:47:25.000Z</time>
      </trkpt>
      <trkpt lat="43.84559" lon="2.80022">
        <ele>400.60000610352</ele>
        <time>2021-05-26T09:47:38.000Z</time>
      </trkpt>
      <trkpt lat="43.84554" lon="2.80047">
        <ele>400.60000610352</ele>
        <time>2021-05-26T09:47:49.000Z</time>
      </trkpt>
      <trkpt lat="43.8455" lon="2.80073">
        <ele>399.39999389648</ele>
        <time>2021-05-26T09:48:01.000Z</time>
      </trkpt>
      <trkpt lat="43.84539" lon="2.80092">
        <ele>399.20001220703</ele>
        <time>2021-05-26T09:48:13.000Z</time>
      </trkpt>
      <trkpt lat="43.84523" lon="2.80081">
        <ele>400.39999389648</ele>
        <time>2021-05-26T09:48:25.000Z</time>
      </trkpt>
      <trkpt lat="43.84505" lon="2.80073">
        <ele>400.79998779297</ele>
        <time>2021-05-26T09:48:38.000Z</time>
      </trkpt>
      <trkpt lat="43.84487" lon="2.80071">
        <ele>400.79998779297</ele>
        <time>2021-05-26T09:48:50.000Z</time>
      </trkpt>
      <trkpt lat="43.84469" lon="2.80065">
        <ele>401.20001220703</ele>
        <time>2021-05-26T09:49:03.000Z</time>
      </trkpt>
      <trkpt lat="43.84451" lon="2.80062">
        <ele>401.20001220703</ele>
        <time>2021-05-26T09:49:15.000Z</time>
      </trkpt>
      <trkpt lat="43.84433" lon="2.80053">
        <ele>401.60000610352</ele>
        <time>2021-05-26T09:49:32.000Z</time>
      </trkpt>
      <trkpt lat="43.84415" lon="2.80043">
        <ele>401.79998779297</ele>
        <time>2021-05-26T09:49:45.000Z</time>
      </trkpt>
      <trkpt lat="43.84397" lon="2.80037">
        <ele>402</ele>
        <time>2021-05-26T09:49:58.000Z</time>
      </trkpt>
      <trkpt lat="43.8438" lon="2.80026">
        <ele>402.20001220703</ele>
        <time>2021-05-26T09:50:11.000Z</time>
      </trkpt>
      <trkpt lat="43.84363" lon="2.80014">
        <ele>402.60000610352</ele>
        <time>2021-05-26T09:50:24.000Z</time>
      </trkpt>
      <trkpt lat="43.84347" lon="2.80001">
        <ele>403.39999389648</ele>
        <time>2021-05-26T09:50:38.000Z</time>
      </trkpt>
      <trkpt lat="43.84331" lon="2.79992">
        <ele>404.20001220703</ele>
        <time>2021-05-26T09:51:13.000Z</time>
      </trkpt>
      <trkpt lat="43.84314" lon="2.79982">
        <ele>405</ele>
        <time>2021-05-26T09:51:26.000Z</time>
      </trkpt>
      <trkpt lat="43.84297" lon="2.79971">
        <ele>405.79998779297</ele>
        <time>2021-05-26T09:51:38.000Z</time>
      </trkpt>
      <trkpt lat="43.84281" lon="2.79959">
        <ele>406.60000610352</ele>
        <time>2021-05-26T09:51:52.000Z</time>
      </trkpt>
      <trkpt lat="43.84264" lon="2.7995">
        <ele>407.39999389648</ele>
        <time>2021-05-26T09:52:07.000Z</time>
      </trkpt>
      <trkpt lat="43.84247" lon="2.7994">
        <ele>408.20001220703</ele>
        <time>2021-05-26T09:52:19.000Z</time>
      </trkpt>
      <trkpt lat="43.8423" lon="2.7993">
        <ele>409</ele>
        <time>2021-05-26T09:52:34.000Z</time>
      </trkpt>
      <trkpt lat="43.84211" lon="2.79928">
        <ele>410</ele>
        <time>2021-05-26T09:52:53.000Z</time>
      </trkpt>
      <trkpt lat="43.84195" lon="2.79942">
        <ele>410.79998779297</ele>
        <time>2021-05-26T09:53:06.000Z</time>
      </trkpt>
      <trkpt lat="43.84181" lon="2.7996">
        <ele>411.79998779297</ele>
        <time>2021-05-26T09:53:20.000Z</time>
      </trkpt>
      <trkpt lat="43.84166" lon="2.79974">
        <ele>412.39999389648</ele>
        <time>2021-05-26T09:53:33.000Z</time>
      </trkpt>
      <trkpt lat="43.8415" lon="2.79986">
        <ele>413.60000610352</ele>
        <time>2021-05-26T09:53:46.000Z</time>
      </trkpt>
      <trkpt lat="43.84133" lon="2.79997">
        <ele>415</ele>
        <time>2021-05-26T09:53:59.000Z</time>
      </trkpt>
      <trkpt lat="43.84116" lon="2.80005">
        <ele>416.39999389648</ele>
        <time>2021-05-26T09:54:12.000Z</time>
      </trkpt>
      <trkpt lat="43.84098" lon="2.80013">
        <ele>417.79998779297</ele>
        <time>2021-05-26T09:54:26.000Z</time>
      </trkpt>
      <trkpt lat="43.84081" lon="2.80024">
        <ele>419.20001220703</ele>
        <time>2021-05-26T09:54:54.000Z</time>
      </trkpt>
      <trkpt lat="43.84065" lon="2.8004">
        <ele>420.60000610352</ele>
        <time>2021-05-26T09:55:02.000Z</time>
      </trkpt>
      <trkpt lat="43.84052" lon="2.8006">
        <ele>422.79998779297</ele>
        <time>2021-05-26T09:55:10.000Z</time>
      </trkpt>
      <trkpt lat="43.84039" lon="2.80079">
        <ele>425</ele>
        <time>2021-05-26T09:55:21.000Z</time>
      </trkpt>
      <trkpt lat="43.84026" lon="2.80097">
        <ele>426.39999389648</ele>
        <time>2021-05-26T09:55:35.000Z</time>
      </trkpt>
      <trkpt lat="43.84012" lon="2.80115">
        <ele>427.79998779297</ele>
        <time>2021-05-26T09:55:49.000Z</time>
      </trkpt>
      <trkpt lat="43.83997" lon="2.8013">
        <ele>429.20001220703</ele>
        <time>2021-05-26T09:56:02.000Z</time>
      </trkpt>
      <trkpt lat="43.83982" lon="2.80145">
        <ele>431</ele>
        <time>2021-05-26T09:56:15.000Z</time>
      </trkpt>
      <trkpt lat="43.83967" lon="2.80161">
        <ele>432.60000610352</ele>
        <time>2021-05-26T09:56:29.000Z</time>
      </trkpt>
      <trkpt lat="43.83953" lon="2.80177">
        <ele>434</ele>
        <time>2021-05-26T09:56:43.000Z</time>
      </trkpt>
      <trkpt lat="43.83939" lon="2.80196">
        <ele>436.60000610352</ele>
        <time>2021-05-26T09:56:58.000Z</time>
      </trkpt>
      <trkpt lat="43.83925" lon="2.80211">
        <ele>441.79998779297</ele>
        <time>2021-05-26T09:57:12.000Z</time>
      </trkpt>
      <trkpt lat="43.83911" lon="2.80229">
        <ele>446.79998779297</ele>
        <time>2021-05-26T09:57:27.000Z</time>
      </trkpt>
      <trkpt lat="43.83893" lon="2.80239">
        <ele>452.60000610352</ele>
        <time>2021-05-26T09:57:44.000Z</time>
      </trkpt>
      <trkpt lat="43.83878" lon="2.80254">
        <ele>457.60000610352</ele>
        <time>2021-05-26T09:57:59.000Z</time>
      </trkpt>
      <trkpt lat="43.83863" lon="2.80267">
        <ele>462.79998779297</ele>
        <time>2021-05-26T09:58:17.000Z</time>
      </trkpt>
      <trkpt lat="43.83856" lon="2.80282">
        <ele>464.20001220703</ele>
        <time>2021-05-26T09:58:27.000Z</time>
      </trkpt>
      <trkpt lat="43.83848" lon="2.80305">
        <ele>466.39999389648</ele>
        <time>2021-05-26T09:58:43.000Z</time>
      </trkpt>
      <trkpt lat="43.83836" lon="2.80318">
        <ele>470.39999389648</ele>
        <time>2021-05-26T09:58:58.000Z</time>
      </trkpt>
      <trkpt lat="43.83825" lon="2.80339">
        <ele>473</ele>
        <time>2021-05-26T09:59:14.000Z</time>
      </trkpt>
      <trkpt lat="43.83814" lon="2.80361">
        <ele>475.20001220703</ele>
        <time>2021-05-26T09:59:31.000Z</time>
      </trkpt>
      <trkpt lat="43.83799" lon="2.80377">
        <ele>479.39999389648</ele>
        <time>2021-05-26T09:59:45.000Z</time>
      </trkpt>
      <trkpt lat="43.83783" lon="2.8039">
        <ele>483.60000610352</ele>
        <time>2021-05-26T09:59:58.000Z</time>
      </trkpt>
      <trkpt lat="43.83771" lon="2.80409">
        <ele>486.39999389648</ele>
        <time>2021-05-26T10:00:14.000Z</time>
      </trkpt>
      <trkpt lat="43.8376" lon="2.80429">
        <ele>489.20001220703</ele>
        <time>2021-05-26T10:00:29.000Z</time>
      </trkpt>
      <trkpt lat="43.83749" lon="2.80449">
        <ele>492.20001220703</ele>
        <time>2021-05-26T10:00:47.000Z</time>
      </trkpt>
      <trkpt lat="43.83737" lon="2.80467">
        <ele>495.39999389648</ele>
        <time>2021-05-26T10:01:04.000Z</time>
      </trkpt>
      <trkpt lat="43.83733" lon="2.80469">
        <ele>496.60000610352</ele>
        <time>2021-05-26T10:01:09.000Z</time>
      </trkpt>
      <trkpt lat="43.8372" lon="2.80488">
        <ele>499.20001220703</ele>
        <time>2021-05-26T10:01:26.000Z</time>
      </trkpt>
      <trkpt lat="43.83713" lon="2.80491">
        <ele>501.60000610352</ele>
        <time>2021-05-26T10:01:33.000Z</time>
      </trkpt>
      <trkpt lat="43.83707" lon="2.80504">
        <ele>502.60000610352</ele>
        <time>2021-05-26T10:01:43.000Z</time>
      </trkpt>
      <trkpt lat="43.83696" lon="2.80523">
        <ele>505.20001220703</ele>
        <time>2021-05-26T10:01:58.000Z</time>
      </trkpt>
      <trkpt lat="43.83686" lon="2.80525">
        <ele>509.20001220703</ele>
        <time>2021-05-26T10:02:05.000Z</time>
      </trkpt>
      <trkpt lat="43.83684" lon="2.80527">
        <ele>510.20001220703</ele>
        <time>2021-05-26T10:02:08.000Z</time>
      </trkpt>
      <trkpt lat="43.83682" lon="2.8053">
        <ele>511</ele>
        <time>2021-05-26T10:02:11.000Z</time>
      </trkpt>
      <trkpt lat="43.83669" lon="2.80538">
        <ele>516.20001220703</ele>
        <time>2021-05-26T10:02:22.000Z</time>
      </trkpt>
      <trkpt lat="43.8366" lon="2.8055">
        <ele>520</ele>
        <time>2021-05-26T10:02:34.000Z</time>
      </trkpt>
      <trkpt lat="43.83656" lon="2.80555">
        <ele>521.40002441406</ele>
        <time>2021-05-26T10:02:39.000Z</time>
      </trkpt>
      <trkpt lat="43.83655" lon="2.80557">
        <ele>521.79998779297</ele>
        <time>2021-05-26T10:02:41.000Z</time>
      </trkpt>
      <trkpt lat="43.83645" lon="2.8057">
        <ele>524.79998779297</ele>
        <time>2021-05-26T10:02:55.000Z</time>
      </trkpt>
      <trkpt lat="43.83638" lon="2.80577">
        <ele>527</ele>
        <time>2021-05-26T10:03:04.000Z</time>
      </trkpt>
      <trkpt lat="43.83627" lon="2.80594">
        <ele>530.59997558594</ele>
        <time>2021-05-26T10:03:21.000Z</time>
      </trkpt>
      <trkpt lat="43.83621" lon="2.80613">
        <ele>531.59997558594</ele>
        <time>2021-05-26T10:03:35.000Z</time>
      </trkpt>
      <trkpt lat="43.8362" lon="2.80619">
        <ele>531.59997558594</ele>
        <time>2021-05-26T10:03:40.000Z</time>
      </trkpt>
      <trkpt lat="43.83612" lon="2.80643">
        <ele>532.40002441406</ele>
        <time>2021-05-26T10:03:56.000Z</time>
      </trkpt>
      <trkpt lat="43.83607" lon="2.80659">
        <ele>532.79998779297</ele>
        <time>2021-05-26T10:04:08.000Z</time>
      </trkpt>
      <trkpt lat="43.83595" lon="2.8068">
        <ele>536</ele>
        <time>2021-05-26T10:04:25.000Z</time>
      </trkpt>
      <trkpt lat="43.83577" lon="2.8069">
        <ele>542.79998779297</ele>
        <time>2021-05-26T10:04:38.000Z</time>
      </trkpt>
      <trkpt lat="43.8356" lon="2.80696">
        <ele>549.40002441406</ele>
        <time>2021-05-26T10:04:52.000Z</time>
      </trkpt>
      <trkpt lat="43.83548" lon="2.80697">
        <ele>554</ele>
        <time>2021-05-26T10:05:04.000Z</time>
      </trkpt>
      <trkpt lat="43.83543" lon="2.80707">
        <ele>555.20001220703</ele>
        <time>2021-05-26T10:05:16.000Z</time>
      </trkpt>
      <trkpt lat="43.83536" lon="2.8073">
        <ele>555.40002441406</ele>
        <time>2021-05-26T10:05:30.000Z</time>
      </trkpt>
      <trkpt lat="43.83532" lon="2.80754">
        <ele>555</ele>
        <time>2021-05-26T10:05:45.000Z</time>
      </trkpt>
      <trkpt lat="43.83521" lon="2.80768">
        <ele>556.79998779297</ele>
        <time>2021-05-26T10:05:57.000Z</time>
      </trkpt>
      <trkpt lat="43.83512" lon="2.80777">
        <ele>558</ele>
        <time>2021-05-26T10:06:05.000Z</time>
      </trkpt>
      <trkpt lat="43.83497" lon="2.80792">
        <ele>560.20001220703</ele>
        <time>2021-05-26T10:06:20.000Z</time>
      </trkpt>
      <trkpt lat="43.83485" lon="2.80809">
        <ele>560.79998779297</ele>
        <time>2021-05-26T10:06:33.000Z</time>
      </trkpt>
      <trkpt lat="43.8347" lon="2.80816">
        <ele>562.79998779297</ele>
        <time>2021-05-26T10:07:31.000Z</time>
      </trkpt>
      <trkpt lat="43.83452" lon="2.80822">
        <ele>565.20001220703</ele>
        <time>2021-05-26T10:07:44.000Z</time>
      </trkpt>
      <trkpt lat="43.83434" lon="2.80827">
        <ele>567.79998779297</ele>
        <time>2021-05-26T10:07:59.000Z</time>
      </trkpt>
      <trkpt lat="43.83416" lon="2.80837">
        <ele>571.40002441406</ele>
        <time>2021-05-26T10:08:13.000Z</time>
      </trkpt>
      <trkpt lat="43.83399" lon="2.80846">
        <ele>574.79998779297</ele>
        <time>2021-05-26T10:08:26.000Z</time>
      </trkpt>
      <trkpt lat="43.83388" lon="2.80867">
        <ele>573.79998779297</ele>
        <time>2021-05-26T10:08:39.000Z</time>
      </trkpt>
      <trkpt lat="43.83384" lon="2.80891">
        <ele>573</ele>
        <time>2021-05-26T10:08:52.000Z</time>
      </trkpt>
      <trkpt lat="43.8338" lon="2.80916">
        <ele>572.20001220703</ele>
        <time>2021-05-26T10:09:06.000Z</time>
      </trkpt>
      <trkpt lat="43.83374" lon="2.8094">
        <ele>572.40002441406</ele>
        <time>2021-05-26T10:09:21.000Z</time>
      </trkpt>
      <trkpt lat="43.83372" lon="2.80965">
        <ele>572.20001220703</ele>
        <time>2021-05-26T10:09:34.000Z</time>
      </trkpt>
      <trkpt lat="43.83372" lon="2.80969">
        <ele>572.20001220703</ele>
        <time>2021-05-26T10:09:36.000Z</time>
      </trkpt>
      <trkpt lat="43.83368" lon="2.80994">
        <ele>572.40002441406</ele>
        <time>2021-05-26T10:09:49.000Z</time>
      </trkpt>
      <trkpt lat="43.8336" lon="2.81017">
        <ele>574</ele>
        <time>2021-05-26T10:10:04.000Z</time>
      </trkpt>
      <trkpt lat="43.83351" lon="2.81041">
        <ele>574.59997558594</ele>
        <time>2021-05-26T10:10:18.000Z</time>
      </trkpt>
      <trkpt lat="43.83343" lon="2.81064">
        <ele>574.40002441406</ele>
        <time>2021-05-26T10:10:31.000Z</time>
      </trkpt>
      <trkpt lat="43.83334" lon="2.81089">
        <ele>573.79998779297</ele>
        <time>2021-05-26T10:10:44.000Z</time>
      </trkpt>
      <trkpt lat="43.83324" lon="2.81112">
        <ele>574.79998779297</ele>
        <time>2021-05-26T10:10:56.000Z</time>
      </trkpt>
      <trkpt lat="43.83318" lon="2.81137">
        <ele>574.59997558594</ele>
        <time>2021-05-26T10:11:11.000Z</time>
      </trkpt>
      <trkpt lat="43.83312" lon="2.81162">
        <ele>572.59997558594</ele>
        <time>2021-05-26T10:11:25.000Z</time>
      </trkpt>
      <trkpt lat="43.83307" lon="2.81188">
        <ele>573.59997558594</ele>
        <time>2021-05-26T10:11:38.000Z</time>
      </trkpt>
      <trkpt lat="43.833" lon="2.8121">
        <ele>575</ele>
        <time>2021-05-26T10:11:55.000Z</time>
      </trkpt>
      <trkpt lat="43.83301" lon="2.81236">
        <ele>573.40002441406</ele>
        <time>2021-05-26T10:12:09.000Z</time>
      </trkpt>
      <trkpt lat="43.83305" lon="2.81261">
        <ele>572</ele>
        <time>2021-05-26T10:12:22.000Z</time>
      </trkpt>
      <trkpt lat="43.83315" lon="2.81283">
        <ele>571.79998779297</ele>
        <time>2021-05-26T10:12:36.000Z</time>
      </trkpt>
      <trkpt lat="43.83326" lon="2.81303">
        <ele>571.59997558594</ele>
        <time>2021-05-26T10:12:50.000Z</time>
      </trkpt>
      <trkpt lat="43.83335" lon="2.81326">
        <ele>571.40002441406</ele>
        <time>2021-05-26T10:13:03.000Z</time>
      </trkpt>
      <trkpt lat="43.83343" lon="2.81348">
        <ele>571.59997558594</ele>
        <time>2021-05-26T10:13:16.000Z</time>
      </trkpt>
      <trkpt lat="43.83351" lon="2.81371">
        <ele>571.79998779297</ele>
        <time>2021-05-26T10:13:29.000Z</time>
      </trkpt>
      <trkpt lat="43.83359" lon="2.81393">
        <ele>572.40002441406</ele>
        <time>2021-05-26T10:13:58.000Z</time>
      </trkpt>
      <trkpt lat="43.83368" lon="2.81416">
        <ele>573.20001220703</ele>
        <time>2021-05-26T10:14:12.000Z</time>
      </trkpt>
      <trkpt lat="43.83377" lon="2.8144">
        <ele>573.20001220703</ele>
        <time>2021-05-26T10:14:25.000Z</time>
      </trkpt>
      <trkpt lat="43.83388" lon="2.81461">
        <ele>573</ele>
        <time>2021-05-26T10:14:38.000Z</time>
      </trkpt>
      <trkpt lat="43.83398" lon="2.81477">
        <ele>572.59997558594</ele>
        <time>2021-05-26T10:14:53.000Z</time>
      </trkpt>
      <trkpt lat="43.83407" lon="2.81474">
        <ele>572.20001220703</ele>
        <time>2021-05-26T10:15:26.000Z</time>
      </trkpt>
      <trkpt lat="43.83407" lon="2.81478">
        <ele>572.20001220703</ele>
        <time>2021-05-26T10:15:28.000Z</time>
      </trkpt>
      <trkpt lat="43.83405" lon="2.81479">
        <ele>572.20001220703</ele>
        <time>2021-05-26T10:15:57.000Z</time>
      </trkpt>
      <trkpt lat="43.83403" lon="2.81478">
        <ele>572.40002441406</ele>
        <time>2021-05-26T10:16:22.000Z</time>
      </trkpt>
      <trkpt lat="43.83403" lon="2.8148">
        <ele>572.40002441406</ele>
        <time>2021-05-26T10:16:23.000Z</time>
      </trkpt>
      <trkpt lat="43.83405" lon="2.81487">
        <ele>572.40002441406</ele>
        <time>2021-05-26T10:17:51.000Z</time>
      </trkpt>
      <trkpt lat="43.83407" lon="2.81489">
        <ele>572.40002441406</ele>
        <time>2021-05-26T10:19:40.000Z</time>
      </trkpt>
      <trkpt lat="43.83406" lon="2.81489">
        <ele>572.40002441406</ele>
        <time>2021-05-26T10:22:01.000Z</time>
      </trkpt>
      <trkpt lat="43.83409" lon="2.81493">
        <ele>572.20001220703</ele>
        <time>2021-05-26T10:24:05.000Z</time>
      </trkpt>
      <trkpt lat="43.83406" lon="2.81493">
        <ele>572.40002441406</ele>
        <time>2021-05-26T10:25:38.000Z</time>
      </trkpt>
      <trkpt lat="43.83401" lon="2.81487">
        <ele>572.59997558594</ele>
        <time>2021-05-26T10:26:47.000Z</time>
      </trkpt>
      <trkpt lat="43.83408" lon="2.81472">
        <ele>572.20001220703</ele>
        <time>2021-05-26T10:27:26.000Z</time>
      </trkpt>
      <trkpt lat="43.83408" lon="2.81482">
        <ele>572.20001220703</ele>
        <time>2021-05-26T10:28:03.000Z</time>
      </trkpt>
      <trkpt lat="43.83407" lon="2.81488">
        <ele>572.40002441406</ele>
        <time>2021-05-26T10:29:58.000Z</time>
      </trkpt>
      <trkpt lat="43.83405" lon="2.81494">
        <ele>572.40002441406</ele>
        <time>2021-05-26T10:32:03.000Z</time>
      </trkpt>
      <trkpt lat="43.83404" lon="2.8148">
        <ele>572.40002441406</ele>
        <time>2021-05-26T10:33:00.000Z</time>
      </trkpt>
      <trkpt lat="43.83403" lon="2.81476">
        <ele>572.40002441406</ele>
        <time>2021-05-26T10:33:30.000Z</time>
      </trkpt>
      <trkpt lat="43.83407" lon="2.81488">
        <ele>572.40002441406</ele>
        <time>2021-05-26T10:34:36.000Z</time>
      </trkpt>
      <trkpt lat="43.83406" lon="2.81495">
        <ele>572.40002441406</ele>
        <time>2021-05-26T10:37:02.000Z</time>
      </trkpt>
      <trkpt lat="43.83407" lon="2.81489">
        <ele>572.40002441406</ele>
        <time>2021-05-26T10:39:02.000Z</time>
      </trkpt>
      <trkpt lat="43.83405" lon="2.81488">
        <ele>572.40002441406</ele>
        <time>2021-05-26T10:41:20.000Z</time>
      </trkpt>
      <trkpt lat="43.83397" lon="2.81484">
        <ele>572.79998779297</ele>
        <time>2021-05-26T10:42:59.000Z</time>
      </trkpt>
      <trkpt lat="43.83409" lon="2.81484">
        <ele>572.20001220703</ele>
        <time>2021-05-26T10:44:09.000Z</time>
      </trkpt>
      <trkpt lat="43.83404" lon="2.81492">
        <ele>572.59997558594</ele>
        <time>2021-05-26T10:46:39.000Z</time>
      </trkpt>
      <trkpt lat="43.83402" lon="2.81488">
        <ele>572.59997558594</ele>
        <time>2021-05-26T10:48:44.000Z</time>
      </trkpt>
      <trkpt lat="43.83403" lon="2.8149">
        <ele>572.59997558594</ele>
        <time>2021-05-26T10:52:30.000Z</time>
      </trkpt>
      <trkpt lat="43.83398" lon="2.81483">
        <ele>572.79998779297</ele>
        <time>2021-05-26T10:54:01.000Z</time>
      </trkpt>
      <trkpt lat="43.83397" lon="2.8148">
        <ele>572.79998779297</ele>
        <time>2021-05-26T10:55:08.000Z</time>
      </trkpt>
      <trkpt lat="43.83396" lon="2.81484">
        <ele>572.79998779297</ele>
        <time>2021-05-26T10:56:40.000Z</time>
      </trkpt>
      <trkpt lat="43.834" lon="2.81481">
        <ele>572.59997558594</ele>
        <time>2021-05-26T10:58:33.000Z</time>
      </trkpt>
      <trkpt lat="43.83403" lon="2.81492">
        <ele>572.59997558594</ele>
        <time>2021-05-26T11:00:12.000Z</time>
      </trkpt>
      <trkpt lat="43.83403" lon="2.81495">
        <ele>572.59997558594</ele>
        <time>2021-05-26T11:03:08.000Z</time>
      </trkpt>
      <trkpt lat="43.83407" lon="2.815">
        <ele>572.40002441406</ele>
        <time>2021-05-26T11:06:18.000Z</time>
      </trkpt>
      <trkpt lat="43.83418" lon="2.81498">
        <ele>572</ele>
        <time>2021-05-26T11:06:30.000Z</time>
      </trkpt>
      <trkpt lat="43.83414" lon="2.81496">
        <ele>572</ele>
        <time>2021-05-26T11:06:47.000Z</time>
      </trkpt>
      <trkpt lat="43.83407" lon="2.81489">
        <ele>572.40002441406</ele>
        <time>2021-05-26T11:08:37.000Z</time>
      </trkpt>
      <trkpt lat="43.83402" lon="2.81489">
        <ele>572.59997558594</ele>
        <time>2021-05-26T11:11:57.000Z</time>
      </trkpt>
      <trkpt lat="43.83398" lon="2.81484">
        <ele>572.79998779297</ele>
        <time>2021-05-26T11:13:40.000Z</time>
      </trkpt>
      <trkpt lat="43.83398" lon="2.81478">
        <ele>572.59997558594</ele>
        <time>2021-05-26T11:14:30.000Z</time>
      </trkpt>
      <trkpt lat="43.83392" lon="2.81468">
        <ele>572.79998779297</ele>
        <time>2021-05-26T11:16:00.000Z</time>
      </trkpt>
      <trkpt lat="43.83382" lon="2.81448">
        <ele>573</ele>
        <time>2021-05-26T11:16:15.000Z</time>
      </trkpt>
      <trkpt lat="43.83371" lon="2.81439">
        <ele>573.40002441406</ele>
        <time>2021-05-26T11:16:29.000Z</time>
      </trkpt>
      <trkpt lat="43.83353" lon="2.81441">
        <ele>574.40002441406</ele>
        <time>2021-05-26T11:16:45.000Z</time>
      </trkpt>
      <trkpt lat="43.83334" lon="2.81441">
        <ele>575.79998779297</ele>
        <time>2021-05-26T11:17:01.000Z</time>
      </trkpt>
      <trkpt lat="43.83316" lon="2.81442">
        <ele>577.20001220703</ele>
        <time>2021-05-26T11:17:17.000Z</time>
      </trkpt>
      <trkpt lat="43.83297" lon="2.81442">
        <ele>578.40002441406</ele>
        <time>2021-05-26T11:17:33.000Z</time>
      </trkpt>
      <trkpt lat="43.83278" lon="2.81442">
        <ele>579.79998779297</ele>
        <time>2021-05-26T11:17:50.000Z</time>
      </trkpt>
      <trkpt lat="43.8326" lon="2.81442">
        <ele>582.20001220703</ele>
        <time>2021-05-26T11:18:11.000Z</time>
      </trkpt>
      <trkpt lat="43.83241" lon="2.81443">
        <ele>585</ele>
        <time>2021-05-26T11:18:27.000Z</time>
      </trkpt>
      <trkpt lat="43.83223" lon="2.81445">
        <ele>588</ele>
        <time>2021-05-26T11:18:44.000Z</time>
      </trkpt>
      <trkpt lat="43.83205" lon="2.81446">
        <ele>590.79998779297</ele>
        <time>2021-05-26T11:19:02.000Z</time>
      </trkpt>
      <trkpt lat="43.83187" lon="2.81446">
        <ele>593.20001220703</ele>
        <time>2021-05-26T11:19:22.000Z</time>
      </trkpt>
      <trkpt lat="43.8317" lon="2.81439">
        <ele>594.20001220703</ele>
        <time>2021-05-26T11:19:47.000Z</time>
      </trkpt>
      <trkpt lat="43.83151" lon="2.81437">
        <ele>595.20001220703</ele>
        <time>2021-05-26T11:20:03.000Z</time>
      </trkpt>
      <trkpt lat="43.83133" lon="2.81436">
        <ele>596.40002441406</ele>
        <time>2021-05-26T11:20:18.000Z</time>
      </trkpt>
      <trkpt lat="43.83114" lon="2.81437">
        <ele>597</ele>
        <time>2021-05-26T11:20:33.000Z</time>
      </trkpt>
      <trkpt lat="43.83096" lon="2.81436">
        <ele>596.59997558594</ele>
        <time>2021-05-26T11:20:47.000Z</time>
      </trkpt>
      <trkpt lat="43.83078" lon="2.81431">
        <ele>596.20001220703</ele>
        <time>2021-05-26T11:21:01.000Z</time>
      </trkpt>
      <trkpt lat="43.8306" lon="2.81426">
        <ele>595.59997558594</ele>
        <time>2021-05-26T11:21:14.000Z</time>
      </trkpt>
      <trkpt lat="43.83043" lon="2.81417">
        <ele>595.20001220703</ele>
        <time>2021-05-26T11:21:28.000Z</time>
      </trkpt>
      <trkpt lat="43.83027" lon="2.81406">
        <ele>595</ele>
        <time>2021-05-26T11:21:42.000Z</time>
      </trkpt>
      <trkpt lat="43.83009" lon="2.81399">
        <ele>594.40002441406</ele>
        <time>2021-05-26T11:21:56.000Z</time>
      </trkpt>
      <trkpt lat="43.82992" lon="2.81393">
        <ele>593.79998779297</ele>
        <time>2021-05-26T11:22:09.000Z</time>
      </trkpt>
      <trkpt lat="43.82973" lon="2.81388">
        <ele>593.20001220703</ele>
        <time>2021-05-26T11:22:22.000Z</time>
      </trkpt>
      <trkpt lat="43.82956" lon="2.81381">
        <ele>592.40002441406</ele>
        <time>2021-05-26T11:22:35.000Z</time>
      </trkpt>
      <trkpt lat="43.82938" lon="2.81372">
        <ele>592</ele>
        <time>2021-05-26T11:23:00.000Z</time>
      </trkpt>
      <trkpt lat="43.8292" lon="2.81364">
        <ele>590.59997558594</ele>
        <time>2021-05-26T11:23:14.000Z</time>
      </trkpt>
      <trkpt lat="43.82903" lon="2.81356">
        <ele>589.40002441406</ele>
        <time>2021-05-26T11:23:27.000Z</time>
      </trkpt>
      <trkpt lat="43.82885" lon="2.81356">
        <ele>587.79998779297</ele>
        <time>2021-05-26T11:23:41.000Z</time>
      </trkpt>
      <trkpt lat="43.8287" lon="2.8137">
        <ele>587.20001220703</ele>
        <time>2021-05-26T11:23:55.000Z</time>
      </trkpt>
      <trkpt lat="43.82855" lon="2.81386">
        <ele>587.59997558594</ele>
        <time>2021-05-26T11:24:08.000Z</time>
      </trkpt>
      <trkpt lat="43.82841" lon="2.81403">
        <ele>586</ele>
        <time>2021-05-26T11:24:22.000Z</time>
      </trkpt>
      <trkpt lat="43.82826" lon="2.81419">
        <ele>587.40002441406</ele>
        <time>2021-05-26T11:24:36.000Z</time>
      </trkpt>
      <trkpt lat="43.82811" lon="2.81432">
        <ele>587</ele>
        <time>2021-05-26T11:24:49.000Z</time>
      </trkpt>
      <trkpt lat="43.82793" lon="2.8144">
        <ele>585.79998779297</ele>
        <time>2021-05-26T11:25:01.000Z</time>
      </trkpt>
      <trkpt lat="43.82777" lon="2.81452">
        <ele>586.79998779297</ele>
        <time>2021-05-26T11:25:12.000Z</time>
      </trkpt>
      <trkpt lat="43.82761" lon="2.81465">
        <ele>586.79998779297</ele>
        <time>2021-05-26T11:25:24.000Z</time>
      </trkpt>
      <trkpt lat="43.82745" lon="2.81478">
        <ele>586</ele>
        <time>2021-05-26T11:25:37.000Z</time>
      </trkpt>
      <trkpt lat="43.82729" lon="2.81489">
        <ele>586.59997558594</ele>
        <time>2021-05-26T11:25:50.000Z</time>
      </trkpt>
      <trkpt lat="43.82713" lon="2.81503">
        <ele>587.40002441406</ele>
        <time>2021-05-26T11:26:03.000Z</time>
      </trkpt>
      <trkpt lat="43.82696" lon="2.81513">
        <ele>587</ele>
        <time>2021-05-26T11:26:16.000Z</time>
      </trkpt>
      <trkpt lat="43.82679" lon="2.81524">
        <ele>586.79998779297</ele>
        <time>2021-05-26T11:26:29.000Z</time>
      </trkpt>
      <trkpt lat="43.82663" lon="2.81539">
        <ele>586.20001220703</ele>
        <time>2021-05-26T11:26:42.000Z</time>
      </trkpt>
      <trkpt lat="43.82649" lon="2.81556">
        <ele>586.40002441406</ele>
        <time>2021-05-26T11:26:54.000Z</time>
      </trkpt>
      <trkpt lat="43.82635" lon="2.81574">
        <ele>589</ele>
        <time>2021-05-26T11:27:08.000Z</time>
      </trkpt>
      <trkpt lat="43.82619" lon="2.81589">
        <ele>591.20001220703</ele>
        <time>2021-05-26T11:27:22.000Z</time>
      </trkpt>
      <trkpt lat="43.82602" lon="2.81599">
        <ele>592.40002441406</ele>
        <time>2021-05-26T11:27:34.000Z</time>
      </trkpt>
      <trkpt lat="43.82586" lon="2.81614">
        <ele>593</ele>
        <time>2021-05-26T11:27:48.000Z</time>
      </trkpt>
      <trkpt lat="43.82575" lon="2.81633">
        <ele>593.79998779297</ele>
        <time>2021-05-26T11:28:01.000Z</time>
      </trkpt>
      <trkpt lat="43.82563" lon="2.81653">
        <ele>595.59997558594</ele>
        <time>2021-05-26T11:28:14.000Z</time>
      </trkpt>
      <trkpt lat="43.8255" lon="2.81671">
        <ele>597.79998779297</ele>
        <time>2021-05-26T11:28:28.000Z</time>
      </trkpt>
      <trkpt lat="43.82538" lon="2.8169">
        <ele>598.20001220703</ele>
        <time>2021-05-26T11:28:44.000Z</time>
      </trkpt>
      <trkpt lat="43.82526" lon="2.81709">
        <ele>601.20001220703</ele>
        <time>2021-05-26T11:28:57.000Z</time>
      </trkpt>
      <trkpt lat="43.82514" lon="2.81728">
        <ele>602.59997558594</ele>
        <time>2021-05-26T11:29:10.000Z</time>
      </trkpt>
      <trkpt lat="43.82501" lon="2.81747">
        <ele>604.20001220703</ele>
        <time>2021-05-26T11:29:23.000Z</time>
      </trkpt>
      <trkpt lat="43.82489" lon="2.81767">
        <ele>605.79998779297</ele>
        <time>2021-05-26T11:29:37.000Z</time>
      </trkpt>
      <trkpt lat="43.82476" lon="2.81785">
        <ele>606.59997558594</ele>
        <time>2021-05-26T11:29:50.000Z</time>
      </trkpt>
      <trkpt lat="43.82462" lon="2.81802">
        <ele>608.59997558594</ele>
        <time>2021-05-26T11:30:04.000Z</time>
      </trkpt>
      <trkpt lat="43.8245" lon="2.81821">
        <ele>610.79998779297</ele>
        <time>2021-05-26T11:30:17.000Z</time>
      </trkpt>
      <trkpt lat="43.82439" lon="2.81841">
        <ele>613.20001220703</ele>
        <time>2021-05-26T11:30:29.000Z</time>
      </trkpt>
      <trkpt lat="43.82428" lon="2.81863">
        <ele>613.20001220703</ele>
        <time>2021-05-26T11:30:43.000Z</time>
      </trkpt>
      <trkpt lat="43.82417" lon="2.81884">
        <ele>613.40002441406</ele>
        <time>2021-05-26T11:30:56.000Z</time>
      </trkpt>
      <trkpt lat="43.82406" lon="2.81905">
        <ele>613.79998779297</ele>
        <time>2021-05-26T11:31:10.000Z</time>
      </trkpt>
      <trkpt lat="43.82392" lon="2.81923">
        <ele>614.20001220703</ele>
        <time>2021-05-26T11:31:24.000Z</time>
      </trkpt>
      <trkpt lat="43.82377" lon="2.81939">
        <ele>613.59997558594</ele>
        <time>2021-05-26T11:31:37.000Z</time>
      </trkpt>
      <trkpt lat="43.82362" lon="2.81954">
        <ele>614.20001220703</ele>
        <time>2021-05-26T11:31:50.000Z</time>
      </trkpt>
      <trkpt lat="43.8235" lon="2.81972">
        <ele>614.79998779297</ele>
        <time>2021-05-26T11:32:02.000Z</time>
      </trkpt>
      <trkpt lat="43.82336" lon="2.8199">
        <ele>614.40002441406</ele>
        <time>2021-05-26T11:32:16.000Z</time>
      </trkpt>
      <trkpt lat="43.82324" lon="2.82009">
        <ele>614.79998779297</ele>
        <time>2021-05-26T11:32:29.000Z</time>
      </trkpt>
      <trkpt lat="43.82313" lon="2.82031">
        <ele>614.40002441406</ele>
        <time>2021-05-26T11:32:43.000Z</time>
      </trkpt>
      <trkpt lat="43.82305" lon="2.82054">
        <ele>615</ele>
        <time>2021-05-26T11:32:56.000Z</time>
      </trkpt>
      <trkpt lat="43.82295" lon="2.82075">
        <ele>616.20001220703</ele>
        <time>2021-05-26T11:33:08.000Z</time>
      </trkpt>
      <trkpt lat="43.82286" lon="2.82097">
        <ele>617</ele>
        <time>2021-05-26T11:33:20.000Z</time>
      </trkpt>
      <trkpt lat="43.82281" lon="2.82104">
        <ele>617.40002441406</ele>
        <time>2021-05-26T11:33:25.000Z</time>
      </trkpt>
      <trkpt lat="43.8227" lon="2.82124">
        <ele>619.20001220703</ele>
        <time>2021-05-26T11:33:39.000Z</time>
      </trkpt>
      <trkpt lat="43.8226" lon="2.82145">
        <ele>620.40002441406</ele>
        <time>2021-05-26T11:33:52.000Z</time>
      </trkpt>
      <trkpt lat="43.82248" lon="2.82164">
        <ele>621.20001220703</ele>
        <time>2021-05-26T11:34:06.000Z</time>
      </trkpt>
      <trkpt lat="43.82233" lon="2.8218">
        <ele>620.79998779297</ele>
        <time>2021-05-26T11:34:21.000Z</time>
      </trkpt>
      <trkpt lat="43.82221" lon="2.82199">
        <ele>619.59997558594</ele>
        <time>2021-05-26T11:34:35.000Z</time>
      </trkpt>
      <trkpt lat="43.82208" lon="2.82217">
        <ele>621</ele>
        <time>2021-05-26T11:34:49.000Z</time>
      </trkpt>
      <trkpt lat="43.82192" lon="2.82231">
        <ele>622.59997558594</ele>
        <time>2021-05-26T11:35:03.000Z</time>
      </trkpt>
      <trkpt lat="43.82175" lon="2.82244">
        <ele>623.79998779297</ele>
        <time>2021-05-26T11:35:17.000Z</time>
      </trkpt>
      <trkpt lat="43.82159" lon="2.82257">
        <ele>624.79998779297</ele>
        <time>2021-05-26T11:35:30.000Z</time>
      </trkpt>
      <trkpt lat="43.82142" lon="2.82271">
        <ele>625</ele>
        <time>2021-05-26T11:35:44.000Z</time>
      </trkpt>
      <trkpt lat="43.82126" lon="2.82282">
        <ele>625.40002441406</ele>
        <time>2021-05-26T11:35:58.000Z</time>
      </trkpt>
      <trkpt lat="43.82107" lon="2.82287">
        <ele>625.79998779297</ele>
        <time>2021-05-26T11:36:12.000Z</time>
      </trkpt>
      <trkpt lat="43.82095" lon="2.82289">
        <ele>626.20001220703</ele>
        <time>2021-05-26T11:36:21.000Z</time>
      </trkpt>
      <trkpt lat="43.82077" lon="2.82291">
        <ele>626.59997558594</ele>
        <time>2021-05-26T11:36:35.000Z</time>
      </trkpt>
      <trkpt lat="43.82058" lon="2.82294">
        <ele>626.79998779297</ele>
        <time>2021-05-26T11:36:49.000Z</time>
      </trkpt>
      <trkpt lat="43.8204" lon="2.82297">
        <ele>627</ele>
        <time>2021-05-26T11:37:03.000Z</time>
      </trkpt>
      <trkpt lat="43.82021" lon="2.82302">
        <ele>627.40002441406</ele>
        <time>2021-05-26T11:37:17.000Z</time>
      </trkpt>
      <trkpt lat="43.82003" lon="2.82308">
        <ele>629.40002441406</ele>
        <time>2021-05-26T11:37:30.000Z</time>
      </trkpt>
      <trkpt lat="43.81985" lon="2.82314">
        <ele>630.79998779297</ele>
        <time>2021-05-26T11:37:45.000Z</time>
      </trkpt>
      <trkpt lat="43.81966" lon="2.82319">
        <ele>631.79998779297</ele>
        <time>2021-05-26T11:37:59.000Z</time>
      </trkpt>
      <trkpt lat="43.81949" lon="2.8233">
        <ele>632.40002441406</ele>
        <time>2021-05-26T11:38:11.000Z</time>
      </trkpt>
      <trkpt lat="43.81931" lon="2.82333">
        <ele>633.79998779297</ele>
        <time>2021-05-26T11:38:24.000Z</time>
      </trkpt>
      <trkpt lat="43.81912" lon="2.82339">
        <ele>635.20001220703</ele>
        <time>2021-05-26T11:38:38.000Z</time>
      </trkpt>
      <trkpt lat="43.81894" lon="2.82348">
        <ele>636.59997558594</ele>
        <time>2021-05-26T11:38:51.000Z</time>
      </trkpt>
      <trkpt lat="43.81876" lon="2.82354">
        <ele>637.79998779297</ele>
        <time>2021-05-26T11:39:04.000Z</time>
      </trkpt>
      <trkpt lat="43.81858" lon="2.82355">
        <ele>639</ele>
        <time>2021-05-26T11:39:17.000Z</time>
      </trkpt>
      <trkpt lat="43.8184" lon="2.82347">
        <ele>640.79998779297</ele>
        <time>2021-05-26T11:39:31.000Z</time>
      </trkpt>
      <trkpt lat="43.81821" lon="2.82344">
        <ele>642.59997558594</ele>
        <time>2021-05-26T11:39:45.000Z</time>
      </trkpt>
      <trkpt lat="43.81803" lon="2.82345">
        <ele>644</ele>
        <time>2021-05-26T11:39:59.000Z</time>
      </trkpt>
      <trkpt lat="43.81785" lon="2.82348">
        <ele>645.40002441406</ele>
        <time>2021-05-26T11:40:12.000Z</time>
      </trkpt>
      <trkpt lat="43.81766" lon="2.82356">
        <ele>646.79998779297</ele>
        <time>2021-05-26T11:40:27.000Z</time>
      </trkpt>
      <trkpt lat="43.81753" lon="2.82372">
        <ele>647.20001220703</ele>
        <time>2021-05-26T11:40:41.000Z</time>
      </trkpt>
      <trkpt lat="43.81751" lon="2.82367">
        <ele>647.59997558594</ele>
        <time>2021-05-26T11:40:47.000Z</time>
      </trkpt>
      <trkpt lat="43.81756" lon="2.82342">
        <ele>648.40002441406</ele>
        <time>2021-05-26T11:41:01.000Z</time>
      </trkpt>
      <trkpt lat="43.81756" lon="2.82315">
        <ele>649</ele>
        <time>2021-05-26T11:41:14.000Z</time>
      </trkpt>
      <trkpt lat="43.81755" lon="2.8229">
        <ele>649.40002441406</ele>
        <time>2021-05-26T11:41:27.000Z</time>
      </trkpt>
      <trkpt lat="43.81754" lon="2.82263">
        <ele>649.79998779297</ele>
        <time>2021-05-26T11:41:40.000Z</time>
      </trkpt>
      <trkpt lat="43.81754" lon="2.82236">
        <ele>650</ele>
        <time>2021-05-26T11:41:53.000Z</time>
      </trkpt>
      <trkpt lat="43.81754" lon="2.82211">
        <ele>649.59997558594</ele>
        <time>2021-05-26T11:42:05.000Z</time>
      </trkpt>
      <trkpt lat="43.81752" lon="2.82185">
        <ele>649.59997558594</ele>
        <time>2021-05-26T11:42:18.000Z</time>
      </trkpt>
      <trkpt lat="43.81752" lon="2.82158">
        <ele>648.59997558594</ele>
        <time>2021-05-26T11:42:31.000Z</time>
      </trkpt>
      <trkpt lat="43.81746" lon="2.82134">
        <ele>648</ele>
        <time>2021-05-26T11:42:43.000Z</time>
      </trkpt>
      <trkpt lat="43.81738" lon="2.82112">
        <ele>648</ele>
        <time>2021-05-26T11:42:55.000Z</time>
      </trkpt>
      <trkpt lat="43.81729" lon="2.8209">
        <ele>648.20001220703</ele>
        <time>2021-05-26T11:43:07.000Z</time>
      </trkpt>
      <trkpt lat="43.81721" lon="2.82067">
        <ele>648.59997558594</ele>
        <time>2021-05-26T11:43:19.000Z</time>
      </trkpt>
      <trkpt lat="43.81714" lon="2.82043">
        <ele>649</ele>
        <time>2021-05-26T11:43:33.000Z</time>
      </trkpt>
      <trkpt lat="43.81713" lon="2.82017">
        <ele>648.79998779297</ele>
        <time>2021-05-26T11:43:46.000Z</time>
      </trkpt>
      <trkpt lat="43.81719" lon="2.81992">
        <ele>648</ele>
        <time>2021-05-26T11:43:58.000Z</time>
      </trkpt>
      <trkpt lat="43.8173" lon="2.8197">
        <ele>647</ele>
        <time>2021-05-26T11:44:11.000Z</time>
      </trkpt>
      <trkpt lat="43.81742" lon="2.8195">
        <ele>646.79998779297</ele>
        <time>2021-05-26T11:44:23.000Z</time>
      </trkpt>
      <trkpt lat="43.81751" lon="2.81929">
        <ele>647</ele>
        <time>2021-05-26T11:44:35.000Z</time>
      </trkpt>
      <trkpt lat="43.81764" lon="2.8191">
        <ele>646.59997558594</ele>
        <time>2021-05-26T11:44:48.000Z</time>
      </trkpt>
      <trkpt lat="43.81764" lon="2.81905">
        <ele>646.59997558594</ele>
        <time>2021-05-26T11:44:51.000Z</time>
      </trkpt>
      <trkpt lat="43.81762" lon="2.81902">
        <ele>646.79998779297</ele>
        <time>2021-05-26T11:44:53.000Z</time>
      </trkpt>
      <trkpt lat="43.81745" lon="2.81908">
        <ele>647.79998779297</ele>
        <time>2021-05-26T11:45:06.000Z</time>
      </trkpt>
      <trkpt lat="43.8173" lon="2.81921">
        <ele>648.59997558594</ele>
        <time>2021-05-26T11:45:20.000Z</time>
      </trkpt>
      <trkpt lat="43.81714" lon="2.81936">
        <ele>649</ele>
        <time>2021-05-26T11:45:32.000Z</time>
      </trkpt>
      <trkpt lat="43.81698" lon="2.81947">
        <ele>650.20001220703</ele>
        <time>2021-05-26T11:45:44.000Z</time>
      </trkpt>
      <trkpt lat="43.81681" lon="2.8196">
        <ele>651.79998779297</ele>
        <time>2021-05-26T11:45:58.000Z</time>
      </trkpt>
      <trkpt lat="43.81666" lon="2.81976">
        <ele>653.20001220703</ele>
        <time>2021-05-26T11:46:11.000Z</time>
      </trkpt>
      <trkpt lat="43.81651" lon="2.81993">
        <ele>654.40002441406</ele>
        <time>2021-05-26T11:46:24.000Z</time>
      </trkpt>
      <trkpt lat="43.81637" lon="2.82011">
        <ele>655.40002441406</ele>
        <time>2021-05-26T11:46:38.000Z</time>
      </trkpt>
      <trkpt lat="43.81623" lon="2.82028">
        <ele>656.59997558594</ele>
        <time>2021-05-26T11:46:52.000Z</time>
      </trkpt>
      <trkpt lat="43.81609" lon="2.82046">
        <ele>657.20001220703</ele>
        <time>2021-05-26T11:47:06.000Z</time>
      </trkpt>
      <trkpt lat="43.81595" lon="2.82064">
        <ele>658.40002441406</ele>
        <time>2021-05-26T11:47:18.000Z</time>
      </trkpt>
      <trkpt lat="43.81581" lon="2.82081">
        <ele>659.59997558594</ele>
        <time>2021-05-26T11:47:31.000Z</time>
      </trkpt>
      <trkpt lat="43.81565" lon="2.82092">
        <ele>661</ele>
        <time>2021-05-26T11:47:46.000Z</time>
      </trkpt>
      <trkpt lat="43.81546" lon="2.82094">
        <ele>662.79998779297</ele>
        <time>2021-05-26T11:47:58.000Z</time>
      </trkpt>
      <trkpt lat="43.81528" lon="2.82092">
        <ele>664.59997558594</ele>
        <time>2021-05-26T11:48:11.000Z</time>
      </trkpt>
      <trkpt lat="43.8151" lon="2.82095">
        <ele>666.40002441406</ele>
        <time>2021-05-26T11:48:24.000Z</time>
      </trkpt>
      <trkpt lat="43.81492" lon="2.821">
        <ele>668.59997558594</ele>
        <time>2021-05-26T11:48:38.000Z</time>
      </trkpt>
      <trkpt lat="43.81474" lon="2.82107">
        <ele>670.79998779297</ele>
        <time>2021-05-26T11:48:52.000Z</time>
      </trkpt>
      <trkpt lat="43.81456" lon="2.82109">
        <ele>673</ele>
        <time>2021-05-26T11:49:08.000Z</time>
      </trkpt>
      <trkpt lat="43.81437" lon="2.82111">
        <ele>675.20001220703</ele>
        <time>2021-05-26T11:49:23.000Z</time>
      </trkpt>
      <trkpt lat="43.81418" lon="2.82112">
        <ele>677.40002441406</ele>
        <time>2021-05-26T11:49:38.000Z</time>
      </trkpt>
      <trkpt lat="43.814" lon="2.82118">
        <ele>679.59997558594</ele>
        <time>2021-05-26T11:49:52.000Z</time>
      </trkpt>
      <trkpt lat="43.81388" lon="2.82135">
        <ele>680.79998779297</ele>
        <time>2021-05-26T11:50:05.000Z</time>
      </trkpt>
      <trkpt lat="43.81383" lon="2.82158">
        <ele>680.59997558594</ele>
        <time>2021-05-26T11:50:21.000Z</time>
      </trkpt>
      <trkpt lat="43.81384" lon="2.82184">
        <ele>680.59997558594</ele>
        <time>2021-05-26T11:50:35.000Z</time>
      </trkpt>
      <trkpt lat="43.81388" lon="2.82209">
        <ele>681.20001220703</ele>
        <time>2021-05-26T11:50:51.000Z</time>
      </trkpt>
      <trkpt lat="43.81388" lon="2.82211">
        <ele>681.20001220703</ele>
        <time>2021-05-26T11:50:52.000Z</time>
      </trkpt>
      <trkpt lat="43.81393" lon="2.82236">
        <ele>681.40002441406</ele>
        <time>2021-05-26T11:51:04.000Z</time>
      </trkpt>
      <trkpt lat="43.81403" lon="2.82258">
        <ele>681</ele>
        <time>2021-05-26T11:51:16.000Z</time>
      </trkpt>
      <trkpt lat="43.81411" lon="2.82281">
        <ele>681.59997558594</ele>
        <time>2021-05-26T11:51:27.000Z</time>
      </trkpt>
      <trkpt lat="43.81417" lon="2.82306">
        <ele>682.20001220703</ele>
        <time>2021-05-26T11:51:40.000Z</time>
      </trkpt>
      <trkpt lat="43.81419" lon="2.82331">
        <ele>683.59997558594</ele>
        <time>2021-05-26T11:51:53.000Z</time>
      </trkpt>
      <trkpt lat="43.81421" lon="2.82356">
        <ele>685.40002441406</ele>
        <time>2021-05-26T11:52:06.000Z</time>
      </trkpt>
      <trkpt lat="43.81423" lon="2.82382">
        <ele>687.40002441406</ele>
        <time>2021-05-26T11:52:19.000Z</time>
      </trkpt>
      <trkpt lat="43.81428" lon="2.82407">
        <ele>688.79998779297</ele>
        <time>2021-05-26T11:52:32.000Z</time>
      </trkpt>
      <trkpt lat="43.81433" lon="2.8243">
        <ele>690</ele>
        <time>2021-05-26T11:52:46.000Z</time>
      </trkpt>
      <trkpt lat="43.81416" lon="2.82437">
        <ele>692.40002441406</ele>
        <time>2021-05-26T11:53:01.000Z</time>
      </trkpt>
      <trkpt lat="43.81397" lon="2.82433">
        <ele>694</ele>
        <time>2021-05-26T11:53:14.000Z</time>
      </trkpt>
      <trkpt lat="43.81379" lon="2.82432">
        <ele>696</ele>
        <time>2021-05-26T11:53:27.000Z</time>
      </trkpt>
      <trkpt lat="43.8136" lon="2.82432">
        <ele>698.20001220703</ele>
        <time>2021-05-26T11:53:42.000Z</time>
      </trkpt>
      <trkpt lat="43.81343" lon="2.82424">
        <ele>700</ele>
        <time>2021-05-26T11:53:56.000Z</time>
      </trkpt>
      <trkpt lat="43.81325" lon="2.82421">
        <ele>702.59997558594</ele>
        <time>2021-05-26T11:54:10.000Z</time>
      </trkpt>
      <trkpt lat="43.81307" lon="2.8242">
        <ele>705.40002441406</ele>
        <time>2021-05-26T11:54:26.000Z</time>
      </trkpt>
      <trkpt lat="43.81288" lon="2.82418">
        <ele>708.20001220703</ele>
        <time>2021-05-26T11:54:40.000Z</time>
      </trkpt>
      <trkpt lat="43.8128" lon="2.82426">
        <ele>710</ele>
        <time>2021-05-26T11:55:35.000Z</time>
      </trkpt>
      <trkpt lat="43.81265" lon="2.8242">
        <ele>712</ele>
        <time>2021-05-26T11:56:11.000Z</time>
      </trkpt>
      <trkpt lat="43.81246" lon="2.82422">
        <ele>714.79998779297</ele>
        <time>2021-05-26T11:56:24.000Z</time>
      </trkpt>
      <trkpt lat="43.81231" lon="2.82415">
        <ele>716.40002441406</ele>
        <time>2021-05-26T11:56:46.000Z</time>
      </trkpt>
      <trkpt lat="43.81218" lon="2.82398">
        <ele>717.40002441406</ele>
        <time>2021-05-26T11:57:02.000Z</time>
      </trkpt>
      <trkpt lat="43.81202" lon="2.82386">
        <ele>718.79998779297</ele>
        <time>2021-05-26T11:57:16.000Z</time>
      </trkpt>
      <trkpt lat="43.81185" lon="2.82374">
        <ele>720.59997558594</ele>
        <time>2021-05-26T11:57:31.000Z</time>
      </trkpt>
      <trkpt lat="43.8117" lon="2.8236">
        <ele>722.20001220703</ele>
        <time>2021-05-26T11:57:45.000Z</time>
      </trkpt>
      <trkpt lat="43.81153" lon="2.82358">
        <ele>724.79998779297</ele>
        <time>2021-05-26T11:57:59.000Z</time>
      </trkpt>
      <trkpt lat="43.81151" lon="2.82382">
        <ele>726.40002441406</ele>
        <time>2021-05-26T11:58:20.000Z</time>
      </trkpt>
      <trkpt lat="43.81155" lon="2.82404">
        <ele>726.20001220703</ele>
        <time>2021-05-26T11:59:05.000Z</time>
      </trkpt>
      <trkpt lat="43.81157" lon="2.82429">
        <ele>726.59997558594</ele>
        <time>2021-05-26T11:59:19.000Z</time>
      </trkpt>
      <trkpt lat="43.81161" lon="2.82455">
        <ele>728.40002441406</ele>
        <time>2021-05-26T11:59:34.000Z</time>
      </trkpt>
      <trkpt lat="43.81166" lon="2.82479">
        <ele>730</ele>
        <time>2021-05-26T11:59:48.000Z</time>
      </trkpt>
      <trkpt lat="43.8117" lon="2.82503">
        <ele>729.40002441406</ele>
        <time>2021-05-26T12:00:02.000Z</time>
      </trkpt>
      <trkpt lat="43.81171" lon="2.82529">
        <ele>730.20001220703</ele>
        <time>2021-05-26T12:00:16.000Z</time>
      </trkpt>
      <trkpt lat="43.81167" lon="2.82555">
        <ele>731</ele>
        <time>2021-05-26T12:00:30.000Z</time>
      </trkpt>
      <trkpt lat="43.81165" lon="2.82581">
        <ele>730</ele>
        <time>2021-05-26T12:00:44.000Z</time>
      </trkpt>
      <trkpt lat="43.81161" lon="2.82606">
        <ele>729.40002441406</ele>
        <time>2021-05-26T12:00:57.000Z</time>
      </trkpt>
      <trkpt lat="43.81166" lon="2.82629">
        <ele>730.79998779297</ele>
        <time>2021-05-26T12:01:10.000Z</time>
      </trkpt>
      <trkpt lat="43.81178" lon="2.82649">
        <ele>733.40002441406</ele>
        <time>2021-05-26T12:01:24.000Z</time>
      </trkpt>
      <trkpt lat="43.8119" lon="2.82669">
        <ele>736</ele>
        <time>2021-05-26T12:01:38.000Z</time>
      </trkpt>
      <trkpt lat="43.81198" lon="2.82691">
        <ele>737</ele>
        <time>2021-05-26T12:01:51.000Z</time>
      </trkpt>
      <trkpt lat="43.81202" lon="2.82717">
        <ele>737.40002441406</ele>
        <time>2021-05-26T12:02:05.000Z</time>
      </trkpt>
      <trkpt lat="43.81211" lon="2.8274">
        <ele>738.40002441406</ele>
        <time>2021-05-26T12:02:19.000Z</time>
      </trkpt>
      <trkpt lat="43.81219" lon="2.82755">
        <ele>739.20001220703</ele>
        <time>2021-05-26T12:02:29.000Z</time>
      </trkpt>
      <trkpt lat="43.8123" lon="2.82777">
        <ele>740.20001220703</ele>
        <time>2021-05-26T12:02:44.000Z</time>
      </trkpt>
      <trkpt lat="43.81243" lon="2.82794">
        <ele>741.40002441406</ele>
        <time>2021-05-26T12:02:57.000Z</time>
      </trkpt>
      <trkpt lat="43.81255" lon="2.82814">
        <ele>742.59997558594</ele>
        <time>2021-05-26T12:03:10.000Z</time>
      </trkpt>
      <trkpt lat="43.81266" lon="2.82836">
        <ele>743.40002441406</ele>
        <time>2021-05-26T12:03:24.000Z</time>
      </trkpt>
      <trkpt lat="43.81278" lon="2.82854">
        <ele>743.79998779297</ele>
        <time>2021-05-26T12:03:36.000Z</time>
      </trkpt>
      <trkpt lat="43.8129" lon="2.82875">
        <ele>743.40002441406</ele>
        <time>2021-05-26T12:03:49.000Z</time>
      </trkpt>
      <trkpt lat="43.813" lon="2.82897">
        <ele>743</ele>
        <time>2021-05-26T12:04:02.000Z</time>
      </trkpt>
      <trkpt lat="43.81311" lon="2.82918">
        <ele>742.59997558594</ele>
        <time>2021-05-26T12:04:15.000Z</time>
      </trkpt>
      <trkpt lat="43.81319" lon="2.82942">
        <ele>742.40002441406</ele>
        <time>2021-05-26T12:04:28.000Z</time>
      </trkpt>
      <trkpt lat="43.81328" lon="2.82964">
        <ele>742.59997558594</ele>
        <time>2021-05-26T12:04:41.000Z</time>
      </trkpt>
      <trkpt lat="43.81336" lon="2.82986">
        <ele>742.59997558594</ele>
        <time>2021-05-26T12:04:54.000Z</time>
      </trkpt>
      <trkpt lat="43.81342" lon="2.83011">
        <ele>742.40002441406</ele>
        <time>2021-05-26T12:05:08.000Z</time>
      </trkpt>
      <trkpt lat="43.81347" lon="2.83035">
        <ele>742.40002441406</ele>
        <time>2021-05-26T12:05:21.000Z</time>
      </trkpt>
      <trkpt lat="43.8135" lon="2.83061">
        <ele>742.20001220703</ele>
        <time>2021-05-26T12:05:34.000Z</time>
      </trkpt>
      <trkpt lat="43.8135" lon="2.83086">
        <ele>742</ele>
        <time>2021-05-26T12:05:48.000Z</time>
      </trkpt>
      <trkpt lat="43.8135" lon="2.83113">
        <ele>743.20001220703</ele>
        <time>2021-05-26T12:06:02.000Z</time>
      </trkpt>
      <trkpt lat="43.81349" lon="2.83139">
        <ele>744.40002441406</ele>
        <time>2021-05-26T12:06:15.000Z</time>
      </trkpt>
      <trkpt lat="43.8135" lon="2.83165">
        <ele>745.59997558594</ele>
        <time>2021-05-26T12:06:28.000Z</time>
      </trkpt>
      <trkpt lat="43.81352" lon="2.83191">
        <ele>746.20001220703</ele>
        <time>2021-05-26T12:06:41.000Z</time>
      </trkpt>
      <trkpt lat="43.81353" lon="2.83217">
        <ele>746.59997558594</ele>
        <time>2021-05-26T12:06:54.000Z</time>
      </trkpt>
      <trkpt lat="43.81356" lon="2.83241">
        <ele>746.79998779297</ele>
        <time>2021-05-26T12:07:07.000Z</time>
      </trkpt>
      <trkpt lat="43.81358" lon="2.83267">
        <ele>747.40002441406</ele>
        <time>2021-05-26T12:07:20.000Z</time>
      </trkpt>
      <trkpt lat="43.81361" lon="2.83292">
        <ele>748.59997558594</ele>
        <time>2021-05-26T12:07:33.000Z</time>
      </trkpt>
      <trkpt lat="43.81364" lon="2.83318">
        <ele>749.79998779297</ele>
        <time>2021-05-26T12:07:46.000Z</time>
      </trkpt>
      <trkpt lat="43.81362" lon="2.83344">
        <ele>751.40002441406</ele>
        <time>2021-05-26T12:08:00.000Z</time>
      </trkpt>
      <trkpt lat="43.8136" lon="2.8337">
        <ele>753.59997558594</ele>
        <time>2021-05-26T12:08:14.000Z</time>
      </trkpt>
      <trkpt lat="43.81358" lon="2.83396">
        <ele>755.79998779297</ele>
        <time>2021-05-26T12:08:30.000Z</time>
      </trkpt>
      <trkpt lat="43.81359" lon="2.83423">
        <ele>758</ele>
        <time>2021-05-26T12:08:44.000Z</time>
      </trkpt>
      <trkpt lat="43.81355" lon="2.83447">
        <ele>759.40002441406</ele>
        <time>2021-05-26T12:08:57.000Z</time>
      </trkpt>
      <trkpt lat="43.8135" lon="2.83471">
        <ele>760.59997558594</ele>
        <time>2021-05-26T12:09:10.000Z</time>
      </trkpt>
      <trkpt lat="43.81349" lon="2.83497">
        <ele>762.20001220703</ele>
        <time>2021-05-26T12:09:24.000Z</time>
      </trkpt>
      <trkpt lat="43.81348" lon="2.83522">
        <ele>763.59997558594</ele>
        <time>2021-05-26T12:09:38.000Z</time>
      </trkpt>
      <trkpt lat="43.81345" lon="2.83548">
        <ele>765.40002441406</ele>
        <time>2021-05-26T12:09:52.000Z</time>
      </trkpt>
      <trkpt lat="43.81341" lon="2.83573">
        <ele>766.79998779297</ele>
        <time>2021-05-26T12:10:05.000Z</time>
      </trkpt>
      <trkpt lat="43.81337" lon="2.83595">
        <ele>767.59997558594</ele>
        <time>2021-05-26T12:10:17.000Z</time>
      </trkpt>
      <trkpt lat="43.81333" lon="2.8362">
        <ele>769</ele>
        <time>2021-05-26T12:10:31.000Z</time>
      </trkpt>
      <trkpt lat="43.81327" lon="2.83644">
        <ele>770.20001220703</ele>
        <time>2021-05-26T12:10:44.000Z</time>
      </trkpt>
      <trkpt lat="43.81323" lon="2.8367">
        <ele>771</ele>
        <time>2021-05-26T12:10:57.000Z</time>
      </trkpt>
      <trkpt lat="43.81319" lon="2.83694">
        <ele>771.20001220703</ele>
        <time>2021-05-26T12:11:09.000Z</time>
      </trkpt>
      <trkpt lat="43.81314" lon="2.83719">
        <ele>771.40002441406</ele>
        <time>2021-05-26T12:11:22.000Z</time>
      </trkpt>
      <trkpt lat="43.81312" lon="2.83744">
        <ele>772.20001220703</ele>
        <time>2021-05-26T12:11:34.000Z</time>
      </trkpt>
      <trkpt lat="43.81312" lon="2.8377">
        <ele>773.59997558594</ele>
        <time>2021-05-26T12:11:47.000Z</time>
      </trkpt>
      <trkpt lat="43.8131" lon="2.83795">
        <ele>774.59997558594</ele>
        <time>2021-05-26T12:12:01.000Z</time>
      </trkpt>
      <trkpt lat="43.81308" lon="2.83822">
        <ele>775.20001220703</ele>
        <time>2021-05-26T12:12:14.000Z</time>
      </trkpt>
      <trkpt lat="43.81308" lon="2.83847">
        <ele>776.59997558594</ele>
        <time>2021-05-26T12:12:27.000Z</time>
      </trkpt>
      <trkpt lat="43.81308" lon="2.83874">
        <ele>778.40002441406</ele>
        <time>2021-05-26T12:12:41.000Z</time>
      </trkpt>
      <trkpt lat="43.81309" lon="2.83899">
        <ele>780.40002441406</ele>
        <time>2021-05-26T12:12:55.000Z</time>
      </trkpt>
      <trkpt lat="43.81309" lon="2.83924">
        <ele>782</ele>
        <time>2021-05-26T12:13:07.000Z</time>
      </trkpt>
      <trkpt lat="43.81309" lon="2.83951">
        <ele>782.40002441406</ele>
        <time>2021-05-26T12:13:20.000Z</time>
      </trkpt>
      <trkpt lat="43.81311" lon="2.83976">
        <ele>784</ele>
        <time>2021-05-26T12:13:33.000Z</time>
      </trkpt>
      <trkpt lat="43.81314" lon="2.84001">
        <ele>786.20001220703</ele>
        <time>2021-05-26T12:13:46.000Z</time>
      </trkpt>
      <trkpt lat="43.81315" lon="2.84028">
        <ele>786.79998779297</ele>
        <time>2021-05-26T12:13:59.000Z</time>
      </trkpt>
      <trkpt lat="43.81314" lon="2.84054">
        <ele>787.40002441406</ele>
        <time>2021-05-26T12:14:12.000Z</time>
      </trkpt>
      <trkpt lat="43.8131" lon="2.84079">
        <ele>788.59997558594</ele>
        <time>2021-05-26T12:14:25.000Z</time>
      </trkpt>
      <trkpt lat="43.81307" lon="2.84106">
        <ele>789.20001220703</ele>
        <time>2021-05-26T12:14:39.000Z</time>
      </trkpt>
      <trkpt lat="43.81306" lon="2.84132">
        <ele>790.20001220703</ele>
        <time>2021-05-26T12:14:52.000Z</time>
      </trkpt>
      <trkpt lat="43.81306" lon="2.84158">
        <ele>792.40002441406</ele>
        <time>2021-05-26T12:15:05.000Z</time>
      </trkpt>
      <trkpt lat="43.81305" lon="2.84184">
        <ele>794.40002441406</ele>
        <time>2021-05-26T12:15:20.000Z</time>
      </trkpt>
      <trkpt lat="43.81305" lon="2.8421">
        <ele>796.20001220703</ele>
        <time>2021-05-26T12:15:33.000Z</time>
      </trkpt>
      <trkpt lat="43.81306" lon="2.84237">
        <ele>797.40002441406</ele>
        <time>2021-05-26T12:15:46.000Z</time>
      </trkpt>
      <trkpt lat="43.81308" lon="2.84242">
        <ele>797.59997558594</ele>
        <time>2021-05-26T12:15:49.000Z</time>
      </trkpt>
      <trkpt lat="43.8131" lon="2.84243">
        <ele>797.59997558594</ele>
        <time>2021-05-26T12:15:51.000Z</time>
      </trkpt>
      <trkpt lat="43.81329" lon="2.84245">
        <ele>796.79998779297</ele>
        <time>2021-05-26T12:16:03.000Z</time>
      </trkpt>
      <trkpt lat="43.81348" lon="2.84249">
        <ele>796</ele>
        <time>2021-05-26T12:16:15.000Z</time>
      </trkpt>
      <trkpt lat="43.81356" lon="2.84261">
        <ele>796.40002441406</ele>
        <time>2021-05-26T12:16:26.000Z</time>
      </trkpt>
      <trkpt lat="43.81375" lon="2.84268">
        <ele>795.20001220703</ele>
        <time>2021-05-26T12:16:37.000Z</time>
      </trkpt>
      <trkpt lat="43.81393" lon="2.84272">
        <ele>794</ele>
        <time>2021-05-26T12:16:48.000Z</time>
      </trkpt>
      <trkpt lat="43.81412" lon="2.84276">
        <ele>792.79998779297</ele>
        <time>2021-05-26T12:17:02.000Z</time>
      </trkpt>
      <trkpt lat="43.8143" lon="2.8428">
        <ele>791.40002441406</ele>
        <time>2021-05-26T12:17:15.000Z</time>
      </trkpt>
      <trkpt lat="43.81448" lon="2.84286">
        <ele>789.59997558594</ele>
        <time>2021-05-26T12:17:30.000Z</time>
      </trkpt>
      <trkpt lat="43.81466" lon="2.84292">
        <ele>787</ele>
        <time>2021-05-26T12:17:45.000Z</time>
      </trkpt>
      <trkpt lat="43.81486" lon="2.84294">
        <ele>784</ele>
        <time>2021-05-26T12:18:00.000Z</time>
      </trkpt>
      <trkpt lat="43.81505" lon="2.843">
        <ele>781.59997558594</ele>
        <time>2021-05-26T12:18:11.000Z</time>
      </trkpt>
      <trkpt lat="43.81523" lon="2.84308">
        <ele>779.40002441406</ele>
        <time>2021-05-26T12:18:25.000Z</time>
      </trkpt>
      <trkpt lat="43.81542" lon="2.84312">
        <ele>776.79998779297</ele>
        <time>2021-05-26T12:18:37.000Z</time>
      </trkpt>
      <trkpt lat="43.8156" lon="2.84314">
        <ele>774.40002441406</ele>
        <time>2021-05-26T12:18:51.000Z</time>
      </trkpt>
      <trkpt lat="43.81577" lon="2.8432">
        <ele>772</ele>
        <time>2021-05-26T12:19:18.000Z</time>
      </trkpt>
      <trkpt lat="43.81597" lon="2.84325">
        <ele>769.79998779297</ele>
        <time>2021-05-26T12:19:30.000Z</time>
      </trkpt>
      <trkpt lat="43.81614" lon="2.84334">
        <ele>768.20001220703</ele>
        <time>2021-05-26T12:19:42.000Z</time>
      </trkpt>
      <trkpt lat="43.81632" lon="2.84344">
        <ele>766.40002441406</ele>
        <time>2021-05-26T12:19:54.000Z</time>
      </trkpt>
      <trkpt lat="43.8165" lon="2.84349">
        <ele>764.59997558594</ele>
        <time>2021-05-26T12:20:07.000Z</time>
      </trkpt>
      <trkpt lat="43.81668" lon="2.84357">
        <ele>762.79998779297</ele>
        <time>2021-05-26T12:20:19.000Z</time>
      </trkpt>
      <trkpt lat="43.81685" lon="2.84368">
        <ele>761</ele>
        <time>2021-05-26T12:20:32.000Z</time>
      </trkpt>
      <trkpt lat="43.81703" lon="2.84375">
        <ele>759</ele>
        <time>2021-05-26T12:20:44.000Z</time>
      </trkpt>
      <trkpt lat="43.81707" lon="2.84375">
        <ele>758.59997558594</ele>
        <time>2021-05-26T12:20:47.000Z</time>
      </trkpt>
      <trkpt lat="43.81712" lon="2.844">
        <ele>757.79998779297</ele>
        <time>2021-05-26T12:21:00.000Z</time>
      </trkpt>
      <trkpt lat="43.81717" lon="2.84406">
        <ele>757.20001220703</ele>
        <time>2021-05-26T12:21:05.000Z</time>
      </trkpt>
      <trkpt lat="43.81734" lon="2.84417">
        <ele>755.20001220703</ele>
        <time>2021-05-26T12:21:17.000Z</time>
      </trkpt>
      <trkpt lat="43.81738" lon="2.8443">
        <ele>754.40002441406</ele>
        <time>2021-05-26T12:21:55.000Z</time>
      </trkpt>
      <trkpt lat="43.81732" lon="2.84446">
        <ele>754.59997558594</ele>
        <time>2021-05-26T12:22:06.000Z</time>
      </trkpt>
      <trkpt lat="43.81719" lon="2.84465">
        <ele>753.79998779297</ele>
        <time>2021-05-26T12:22:20.000Z</time>
      </trkpt>
      <trkpt lat="43.81703" lon="2.84479">
        <ele>751.40002441406</ele>
        <time>2021-05-26T12:22:33.000Z</time>
      </trkpt>
      <trkpt lat="43.81685" lon="2.84488">
        <ele>750</ele>
        <time>2021-05-26T12:22:50.000Z</time>
      </trkpt>
      <trkpt lat="43.81666" lon="2.84489">
        <ele>750.59997558594</ele>
        <time>2021-05-26T12:23:03.000Z</time>
      </trkpt>
      <trkpt lat="43.81647" lon="2.8449">
        <ele>751.20001220703</ele>
        <time>2021-05-26T12:23:13.000Z</time>
      </trkpt>
      <trkpt lat="43.81628" lon="2.84486">
        <ele>752.59997558594</ele>
        <time>2021-05-26T12:23:25.000Z</time>
      </trkpt>
      <trkpt lat="43.81609" lon="2.84486">
        <ele>753.20001220703</ele>
        <time>2021-05-26T12:23:39.000Z</time>
      </trkpt>
      <trkpt lat="43.81593" lon="2.84499">
        <ele>753.40002441406</ele>
        <time>2021-05-26T12:23:55.000Z</time>
      </trkpt>
      <trkpt lat="43.81579" lon="2.84516">
        <ele>753.59997558594</ele>
        <time>2021-05-26T12:24:08.000Z</time>
      </trkpt>
      <trkpt lat="43.81568" lon="2.8453">
        <ele>753.59997558594</ele>
        <time>2021-05-26T12:24:21.000Z</time>
      </trkpt>
      <trkpt lat="43.81568" lon="2.84531">
        <ele>753.40002441406</ele>
        <time>2021-05-26T12:24:22.000Z</time>
      </trkpt>
      <trkpt lat="43.81575" lon="2.84531">
        <ele>752.20001220703</ele>
        <time>2021-05-26T12:24:31.000Z</time>
      </trkpt>
      <trkpt lat="43.81592" lon="2.84518">
        <ele>750.79998779297</ele>
        <time>2021-05-26T12:24:50.000Z</time>
      </trkpt>
      <trkpt lat="43.8161" lon="2.84522">
        <ele>747.40002441406</ele>
        <time>2021-05-26T12:25:02.000Z</time>
      </trkpt>
      <trkpt lat="43.81628" lon="2.84528">
        <ele>745.20001220703</ele>
        <time>2021-05-26T12:25:15.000Z</time>
      </trkpt>
      <trkpt lat="43.81645" lon="2.84538">
        <ele>742.79998779297</ele>
        <time>2021-05-26T12:25:30.000Z</time>
      </trkpt>
      <trkpt lat="43.81661" lon="2.8455">
        <ele>740</ele>
        <time>2021-05-26T12:25:42.000Z</time>
      </trkpt>
      <trkpt lat="43.81676" lon="2.84567">
        <ele>736.40002441406</ele>
        <time>2021-05-26T12:25:56.000Z</time>
      </trkpt>
      <trkpt lat="43.81693" lon="2.84577">
        <ele>734.40002441406</ele>
        <time>2021-05-26T12:26:05.000Z</time>
      </trkpt>
      <trkpt lat="43.8171" lon="2.84587">
        <ele>733.40002441406</ele>
        <time>2021-05-26T12:26:18.000Z</time>
      </trkpt>
      <trkpt lat="43.81724" lon="2.84598">
        <ele>731.59997558594</ele>
        <time>2021-05-26T12:26:27.000Z</time>
      </trkpt>
      <trkpt lat="43.81738" lon="2.84612">
        <ele>729.20001220703</ele>
        <time>2021-05-26T12:26:46.000Z</time>
      </trkpt>
      <trkpt lat="43.81755" lon="2.8462">
        <ele>728</ele>
        <time>2021-05-26T12:27:00.000Z</time>
      </trkpt>
      <trkpt lat="43.81771" lon="2.84632">
        <ele>726</ele>
        <time>2021-05-26T12:27:14.000Z</time>
      </trkpt>
      <trkpt lat="43.81788" lon="2.84646">
        <ele>724</ele>
        <time>2021-05-26T12:27:27.000Z</time>
      </trkpt>
      <trkpt lat="43.81805" lon="2.84659">
        <ele>722</ele>
        <time>2021-05-26T12:27:39.000Z</time>
      </trkpt>
      <trkpt lat="43.81823" lon="2.84665">
        <ele>721.59997558594</ele>
        <time>2021-05-26T12:28:04.000Z</time>
      </trkpt>
      <trkpt lat="43.81827" lon="2.84672">
        <ele>720.40002441406</ele>
        <time>2021-05-26T12:28:15.000Z</time>
      </trkpt>
      <trkpt lat="43.81842" lon="2.84685">
        <ele>718.20001220703</ele>
        <time>2021-05-26T12:28:25.000Z</time>
      </trkpt>
      <trkpt lat="43.81857" lon="2.84699">
        <ele>715.59997558594</ele>
        <time>2021-05-26T12:28:38.000Z</time>
      </trkpt>
      <trkpt lat="43.81872" lon="2.84716">
        <ele>712.59997558594</ele>
        <time>2021-05-26T12:28:51.000Z</time>
      </trkpt>
      <trkpt lat="43.81888" lon="2.84731">
        <ele>709.79998779297</ele>
        <time>2021-05-26T12:29:06.000Z</time>
      </trkpt>
      <trkpt lat="43.81903" lon="2.84748">
        <ele>706.79998779297</ele>
        <time>2021-05-26T12:29:20.000Z</time>
      </trkpt>
      <trkpt lat="43.8192" lon="2.84757">
        <ele>705.59997558594</ele>
        <time>2021-05-26T12:29:33.000Z</time>
      </trkpt>
      <trkpt lat="43.81936" lon="2.8477">
        <ele>703.59997558594</ele>
        <time>2021-05-26T12:29:45.000Z</time>
      </trkpt>
      <trkpt lat="43.81951" lon="2.84783">
        <ele>702</ele>
        <time>2021-05-26T12:29:55.000Z</time>
      </trkpt>
      <trkpt lat="43.81967" lon="2.84796">
        <ele>700.40002441406</ele>
        <time>2021-05-26T12:30:09.000Z</time>
      </trkpt>
      <trkpt lat="43.81984" lon="2.84808">
        <ele>699</ele>
        <time>2021-05-26T12:30:23.000Z</time>
      </trkpt>
      <trkpt lat="43.81999" lon="2.84823">
        <ele>696.79998779297</ele>
        <time>2021-05-26T12:30:33.000Z</time>
      </trkpt>
      <trkpt lat="43.82016" lon="2.84832">
        <ele>696</ele>
        <time>2021-05-26T12:30:52.000Z</time>
      </trkpt>
      <trkpt lat="43.82034" lon="2.84837">
        <ele>694.79998779297</ele>
        <time>2021-05-26T12:31:06.000Z</time>
      </trkpt>
      <trkpt lat="43.82052" lon="2.84845">
        <ele>692.59997558594</ele>
        <time>2021-05-26T12:31:20.000Z</time>
      </trkpt>
      <trkpt lat="43.82071" lon="2.84853">
        <ele>690.20001220703</ele>
        <time>2021-05-26T12:31:35.000Z</time>
      </trkpt>
      <trkpt lat="43.82078" lon="2.84856">
        <ele>689.20001220703</ele>
        <time>2021-05-26T12:31:40.000Z</time>
      </trkpt>
      <trkpt lat="43.82096" lon="2.84862">
        <ele>687.40002441406</ele>
        <time>2021-05-26T12:31:53.000Z</time>
      </trkpt>
      <trkpt lat="43.82114" lon="2.84861">
        <ele>686.40002441406</ele>
        <time>2021-05-26T12:32:05.000Z</time>
      </trkpt>
      <trkpt lat="43.82132" lon="2.84864">
        <ele>684.20001220703</ele>
        <time>2021-05-26T12:32:16.000Z</time>
      </trkpt>
      <trkpt lat="43.82152" lon="2.84866">
        <ele>681.20001220703</ele>
        <time>2021-05-26T12:32:29.000Z</time>
      </trkpt>
      <trkpt lat="43.8217" lon="2.84858">
        <ele>679.79998779297</ele>
        <time>2021-05-26T12:32:55.000Z</time>
      </trkpt>
      <trkpt lat="43.82184" lon="2.84841">
        <ele>680.40002441406</ele>
        <time>2021-05-26T12:33:14.000Z</time>
      </trkpt>
      <trkpt lat="43.82199" lon="2.84825">
        <ele>677.40002441406</ele>
        <time>2021-05-26T12:33:26.000Z</time>
      </trkpt>
      <trkpt lat="43.82211" lon="2.84806">
        <ele>674.79998779297</ele>
        <time>2021-05-26T12:33:38.000Z</time>
      </trkpt>
      <trkpt lat="43.82215" lon="2.84779">
        <ele>675</ele>
        <time>2021-05-26T12:33:51.000Z</time>
      </trkpt>
      <trkpt lat="43.82219" lon="2.84755">
        <ele>675</ele>
        <time>2021-05-26T12:34:04.000Z</time>
      </trkpt>
      <trkpt lat="43.82224" lon="2.84731">
        <ele>673.40002441406</ele>
        <time>2021-05-26T12:34:16.000Z</time>
      </trkpt>
      <trkpt lat="43.82227" lon="2.84706">
        <ele>672</ele>
        <time>2021-05-26T12:34:28.000Z</time>
      </trkpt>
      <trkpt lat="43.82226" lon="2.8468">
        <ele>671.40002441406</ele>
        <time>2021-05-26T12:34:42.000Z</time>
      </trkpt>
      <trkpt lat="43.82227" lon="2.84678">
        <ele>671</ele>
        <time>2021-05-26T12:34:43.000Z</time>
      </trkpt>
      <trkpt lat="43.82228" lon="2.84673">
        <ele>670.40002441406</ele>
        <time>2021-05-26T12:34:46.000Z</time>
      </trkpt>
      <trkpt lat="43.82227" lon="2.84669">
        <ele>670.40002441406</ele>
        <time>2021-05-26T12:34:49.000Z</time>
      </trkpt>
      <trkpt lat="43.82233" lon="2.84646">
        <ele>667.20001220703</ele>
        <time>2021-05-26T12:35:00.000Z</time>
      </trkpt>
      <trkpt lat="43.82227" lon="2.84622">
        <ele>667</ele>
        <time>2021-05-26T12:35:15.000Z</time>
      </trkpt>
      <trkpt lat="43.82227" lon="2.84596">
        <ele>662.59997558594</ele>
        <time>2021-05-26T12:35:28.000Z</time>
      </trkpt>
      <trkpt lat="43.82224" lon="2.8457">
        <ele>661</ele>
        <time>2021-05-26T12:35:43.000Z</time>
      </trkpt>
      <trkpt lat="43.82226" lon="2.84544">
        <ele>657.59997558594</ele>
        <time>2021-05-26T12:35:56.000Z</time>
      </trkpt>
      <trkpt lat="43.82226" lon="2.84542">
        <ele>657.59997558594</ele>
        <time>2021-05-26T12:35:57.000Z</time>
      </trkpt>
      <trkpt lat="43.82226" lon="2.84516">
        <ele>653.59997558594</ele>
        <time>2021-05-26T12:36:10.000Z</time>
      </trkpt>
      <trkpt lat="43.82223" lon="2.84491">
        <ele>652.40002441406</ele>
        <time>2021-05-26T12:36:22.000Z</time>
      </trkpt>
      <trkpt lat="43.82224" lon="2.84464">
        <ele>649.40002441406</ele>
        <time>2021-05-26T12:36:36.000Z</time>
      </trkpt>
      <trkpt lat="43.82224" lon="2.84439">
        <ele>646.79998779297</ele>
        <time>2021-05-26T12:36:49.000Z</time>
      </trkpt>
      <trkpt lat="43.82226" lon="2.84413">
        <ele>644</ele>
        <time>2021-05-26T12:37:02.000Z</time>
      </trkpt>
      <trkpt lat="43.82231" lon="2.84387">
        <ele>640.20001220703</ele>
        <time>2021-05-26T12:37:17.000Z</time>
      </trkpt>
      <trkpt lat="43.8223" lon="2.8438">
        <ele>640.20001220703</ele>
        <time>2021-05-26T12:37:20.000Z</time>
      </trkpt>
      <trkpt lat="43.82229" lon="2.84354">
        <ele>639.59997558594</ele>
        <time>2021-05-26T12:37:33.000Z</time>
      </trkpt>
      <trkpt lat="43.82231" lon="2.84329">
        <ele>636.40002441406</ele>
        <time>2021-05-26T12:37:47.000Z</time>
      </trkpt>
      <trkpt lat="43.82231" lon="2.84303">
        <ele>632.59997558594</ele>
        <time>2021-05-26T12:37:59.000Z</time>
      </trkpt>
      <trkpt lat="43.82232" lon="2.84278">
        <ele>631</ele>
        <time>2021-05-26T12:38:11.000Z</time>
      </trkpt>
      <trkpt lat="43.82231" lon="2.84252">
        <ele>630.40002441406</ele>
        <time>2021-05-26T12:38:26.000Z</time>
      </trkpt>
      <trkpt lat="43.82231" lon="2.84248">
        <ele>629.79998779297</ele>
        <time>2021-05-26T12:38:28.000Z</time>
      </trkpt>
      <trkpt lat="43.82231" lon="2.84241">
        <ele>628.59997558594</ele>
        <time>2021-05-26T12:38:32.000Z</time>
      </trkpt>
      <trkpt lat="43.82228" lon="2.84216">
        <ele>625.79998779297</ele>
        <time>2021-05-26T12:38:47.000Z</time>
      </trkpt>
      <trkpt lat="43.82223" lon="2.84191">
        <ele>624.79998779297</ele>
        <time>2021-05-26T12:39:02.000Z</time>
      </trkpt>
      <trkpt lat="43.82221" lon="2.84188">
        <ele>625</ele>
        <time>2021-05-26T12:39:04.000Z</time>
      </trkpt>
      <trkpt lat="43.82212" lon="2.84165">
        <ele>625</ele>
        <time>2021-05-26T12:39:17.000Z</time>
      </trkpt>
      <trkpt lat="43.82203" lon="2.8414">
        <ele>623.79998779297</ele>
        <time>2021-05-26T12:39:30.000Z</time>
      </trkpt>
      <trkpt lat="43.82194" lon="2.84116">
        <ele>622.79998779297</ele>
        <time>2021-05-26T12:39:42.000Z</time>
      </trkpt>
      <trkpt lat="43.8219" lon="2.84094">
        <ele>620.40002441406</ele>
        <time>2021-05-26T12:39:52.000Z</time>
      </trkpt>
      <trkpt lat="43.82185" lon="2.84068">
        <ele>618.40002441406</ele>
        <time>2021-05-26T12:40:06.000Z</time>
      </trkpt>
      <trkpt lat="43.82178" lon="2.84045">
        <ele>617</ele>
        <time>2021-05-26T12:40:19.000Z</time>
      </trkpt>
      <trkpt lat="43.82168" lon="2.84022">
        <ele>616.20001220703</ele>
        <time>2021-05-26T12:40:32.000Z</time>
      </trkpt>
      <trkpt lat="43.82169" lon="2.83998">
        <ele>613.40002441406</ele>
        <time>2021-05-26T12:40:43.000Z</time>
      </trkpt>
      <trkpt lat="43.82187" lon="2.83992">
        <ele>608.59997558594</ele>
        <time>2021-05-26T12:40:56.000Z</time>
      </trkpt>
      <trkpt lat="43.82206" lon="2.8399">
        <ele>604.40002441406</ele>
        <time>2021-05-26T12:41:10.000Z</time>
      </trkpt>
      <trkpt lat="43.82224" lon="2.83987">
        <ele>600.40002441406</ele>
        <time>2021-05-26T12:41:23.000Z</time>
      </trkpt>
      <trkpt lat="43.82227" lon="2.83986">
        <ele>600</ele>
        <time>2021-05-26T12:41:25.000Z</time>
      </trkpt>
      <trkpt lat="43.8223" lon="2.8397">
        <ele>596.79998779297</ele>
        <time>2021-05-26T12:41:37.000Z</time>
      </trkpt>
      <trkpt lat="43.82217" lon="2.83952">
        <ele>596.79998779297</ele>
        <time>2021-05-26T12:41:49.000Z</time>
      </trkpt>
      <trkpt lat="43.82204" lon="2.83935">
        <ele>597</ele>
        <time>2021-05-26T12:42:07.000Z</time>
      </trkpt>
      <trkpt lat="43.82192" lon="2.83914">
        <ele>597</ele>
        <time>2021-05-26T12:42:22.000Z</time>
      </trkpt>
      <trkpt lat="43.82195" lon="2.83908">
        <ele>596.20001220703</ele>
        <time>2021-05-26T12:42:53.000Z</time>
      </trkpt>
      <trkpt lat="43.82215" lon="2.83912">
        <ele>593.20001220703</ele>
        <time>2021-05-26T12:43:05.000Z</time>
      </trkpt>
      <trkpt lat="43.82234" lon="2.83909">
        <ele>589.79998779297</ele>
        <time>2021-05-26T12:43:17.000Z</time>
      </trkpt>
      <trkpt lat="43.82252" lon="2.8391">
        <ele>586.79998779297</ele>
        <time>2021-05-26T12:43:29.000Z</time>
      </trkpt>
      <trkpt lat="43.82269" lon="2.83914">
        <ele>583.79998779297</ele>
        <time>2021-05-26T12:43:51.000Z</time>
      </trkpt>
      <trkpt lat="43.82287" lon="2.83918">
        <ele>581.79998779297</ele>
        <time>2021-05-26T12:44:15.000Z</time>
      </trkpt>
      <trkpt lat="43.82305" lon="2.83926">
        <ele>580.40002441406</ele>
        <time>2021-05-26T12:44:26.000Z</time>
      </trkpt>
      <trkpt lat="43.82322" lon="2.83937">
        <ele>579.40002441406</ele>
        <time>2021-05-26T12:44:37.000Z</time>
      </trkpt>
      <trkpt lat="43.8234" lon="2.83946">
        <ele>578.20001220703</ele>
        <time>2021-05-26T12:44:48.000Z</time>
      </trkpt>
      <trkpt lat="43.82357" lon="2.83956">
        <ele>577</ele>
        <time>2021-05-26T12:44:59.000Z</time>
      </trkpt>
      <trkpt lat="43.82374" lon="2.83966">
        <ele>575.20001220703</ele>
        <time>2021-05-26T12:45:10.000Z</time>
      </trkpt>
      <trkpt lat="43.82389" lon="2.83979">
        <ele>573.79998779297</ele>
        <time>2021-05-26T12:45:22.000Z</time>
      </trkpt>
      <trkpt lat="43.82405" lon="2.83994">
        <ele>572.59997558594</ele>
        <time>2021-05-26T12:45:33.000Z</time>
      </trkpt>
      <trkpt lat="43.82419" lon="2.84011">
        <ele>571.40002441406</ele>
        <time>2021-05-26T12:45:45.000Z</time>
      </trkpt>
      <trkpt lat="43.82428" lon="2.84024">
        <ele>570.40002441406</ele>
        <time>2021-05-26T12:45:53.000Z</time>
      </trkpt>
      <trkpt lat="43.8244" lon="2.84043">
        <ele>569</ele>
        <time>2021-05-26T12:46:04.000Z</time>
      </trkpt>
      <trkpt lat="43.82453" lon="2.84062">
        <ele>567.59997558594</ele>
        <time>2021-05-26T12:46:15.000Z</time>
      </trkpt>
      <trkpt lat="43.82463" lon="2.84083">
        <ele>566.59997558594</ele>
        <time>2021-05-26T12:46:26.000Z</time>
      </trkpt>
      <trkpt lat="43.82471" lon="2.84106">
        <ele>566.20001220703</ele>
        <time>2021-05-26T12:46:38.000Z</time>
      </trkpt>
      <trkpt lat="43.82477" lon="2.8413">
        <ele>566.20001220703</ele>
        <time>2021-05-26T12:46:50.000Z</time>
      </trkpt>
      <trkpt lat="43.82484" lon="2.84156">
        <ele>566.20001220703</ele>
        <time>2021-05-26T12:47:02.000Z</time>
      </trkpt>
      <trkpt lat="43.8249" lon="2.84182">
        <ele>566.20001220703</ele>
        <time>2021-05-26T12:47:14.000Z</time>
      </trkpt>
      <trkpt lat="43.82494" lon="2.84206">
        <ele>565</ele>
        <time>2021-05-26T12:47:25.000Z</time>
      </trkpt>
      <trkpt lat="43.825" lon="2.8423">
        <ele>563.40002441406</ele>
        <time>2021-05-26T12:47:37.000Z</time>
      </trkpt>
      <trkpt lat="43.82501" lon="2.84237">
        <ele>563.20001220703</ele>
        <time>2021-05-26T12:47:41.000Z</time>
      </trkpt>
      <trkpt lat="43.82503" lon="2.84237">
        <ele>563</ele>
        <time>2021-05-26T12:47:43.000Z</time>
      </trkpt>
      <trkpt lat="43.82518" lon="2.84223">
        <ele>560.20001220703</ele>
        <time>2021-05-26T12:47:56.000Z</time>
      </trkpt>
      <trkpt lat="43.82529" lon="2.84201">
        <ele>557.79998779297</ele>
        <time>2021-05-26T12:48:10.000Z</time>
      </trkpt>
      <trkpt lat="43.82534" lon="2.84176">
        <ele>557.20001220703</ele>
        <time>2021-05-26T12:48:22.000Z</time>
      </trkpt>
      <trkpt lat="43.82535" lon="2.8415">
        <ele>556.40002441406</ele>
        <time>2021-05-26T12:48:34.000Z</time>
      </trkpt>
      <trkpt lat="43.82534" lon="2.84139">
        <ele>556.20001220703</ele>
        <time>2021-05-26T12:50:07.000Z</time>
      </trkpt>
      <trkpt lat="43.82539" lon="2.84115">
        <ele>554.20001220703</ele>
        <time>2021-05-26T12:50:30.000Z</time>
      </trkpt>
      <trkpt lat="43.82543" lon="2.8409">
        <ele>553.20001220703</ele>
        <time>2021-05-26T12:50:47.000Z</time>
      </trkpt>
      <trkpt lat="43.82541" lon="2.8411">
        <ele>553.59997558594</ele>
        <time>2021-05-26T12:51:10.000Z</time>
      </trkpt>
      <trkpt lat="43.82539" lon="2.84135">
        <ele>555</ele>
        <time>2021-05-26T12:51:27.000Z</time>
      </trkpt>
      <trkpt lat="43.82538" lon="2.84141">
        <ele>555.59997558594</ele>
        <time>2021-05-26T12:53:59.000Z</time>
      </trkpt>
      <trkpt lat="43.82538" lon="2.84133">
        <ele>555.20001220703</ele>
        <time>2021-05-26T12:54:42.000Z</time>
      </trkpt>
      <trkpt lat="43.8254" lon="2.84107">
        <ele>553.79998779297</ele>
        <time>2021-05-26T12:54:55.000Z</time>
      </trkpt>
      <trkpt lat="43.82543" lon="2.84088">
        <ele>553.20001220703</ele>
        <time>2021-05-26T12:55:05.000Z</time>
      </trkpt>
      <trkpt lat="43.82541" lon="2.84063">
        <ele>551.40002441406</ele>
        <time>2021-05-26T12:55:27.000Z</time>
      </trkpt>
      <trkpt lat="43.82538" lon="2.84038">
        <ele>550</ele>
        <time>2021-05-26T12:55:41.000Z</time>
      </trkpt>
      <trkpt lat="43.82529" lon="2.84013">
        <ele>549.20001220703</ele>
        <time>2021-05-26T12:55:54.000Z</time>
      </trkpt>
      <trkpt lat="43.82523" lon="2.83989">
        <ele>548.59997558594</ele>
        <time>2021-05-26T12:56:07.000Z</time>
      </trkpt>
      <trkpt lat="43.82516" lon="2.83965">
        <ele>548.20001220703</ele>
        <time>2021-05-26T12:56:21.000Z</time>
      </trkpt>
      <trkpt lat="43.82506" lon="2.83943">
        <ele>548.40002441406</ele>
        <time>2021-05-26T12:56:34.000Z</time>
      </trkpt>
      <trkpt lat="43.82496" lon="2.83922">
        <ele>548.59997558594</ele>
        <time>2021-05-26T12:56:46.000Z</time>
      </trkpt>
      <trkpt lat="43.82486" lon="2.839">
        <ele>548</ele>
        <time>2021-05-26T12:56:58.000Z</time>
      </trkpt>
      <trkpt lat="43.82475" lon="2.83878">
        <ele>547.59997558594</ele>
        <time>2021-05-26T12:57:11.000Z</time>
      </trkpt>
      <trkpt lat="43.82465" lon="2.83856">
        <ele>547.59997558594</ele>
        <time>2021-05-26T12:57:23.000Z</time>
      </trkpt>
      <trkpt lat="43.82453" lon="2.83836">
        <ele>548</ele>
        <time>2021-05-26T12:57:35.000Z</time>
      </trkpt>
      <trkpt lat="43.82441" lon="2.83818">
        <ele>550.59997558594</ele>
        <time>2021-05-26T12:57:46.000Z</time>
      </trkpt>
      <trkpt lat="43.82441" lon="2.83808">
        <ele>551.20001220703</ele>
        <time>2021-05-26T12:57:51.000Z</time>
      </trkpt>
      <trkpt lat="43.82457" lon="2.83809">
        <ele>548.79998779297</ele>
        <time>2021-05-26T12:58:08.000Z</time>
      </trkpt>
      <trkpt lat="43.82473" lon="2.83822">
        <ele>545.79998779297</ele>
        <time>2021-05-26T12:58:21.000Z</time>
      </trkpt>
      <trkpt lat="43.82489" lon="2.83835">
        <ele>543</ele>
        <time>2021-05-26T12:58:35.000Z</time>
      </trkpt>
      <trkpt lat="43.82508" lon="2.83842">
        <ele>540.20001220703</ele>
        <time>2021-05-26T12:58:47.000Z</time>
      </trkpt>
      <trkpt lat="43.82521" lon="2.83859">
        <ele>539.59997558594</ele>
        <time>2021-05-26T12:59:00.000Z</time>
      </trkpt>
      <trkpt lat="43.82537" lon="2.83872">
        <ele>536.59997558594</ele>
        <time>2021-05-26T12:59:13.000Z</time>
      </trkpt>
      <trkpt lat="43.82552" lon="2.83886">
        <ele>533.79998779297</ele>
        <time>2021-05-26T12:59:26.000Z</time>
      </trkpt>
      <trkpt lat="43.82568" lon="2.83899">
        <ele>530.79998779297</ele>
        <time>2021-05-26T12:59:39.000Z</time>
      </trkpt>
      <trkpt lat="43.82584" lon="2.83911">
        <ele>527.79998779297</ele>
        <time>2021-05-26T12:59:53.000Z</time>
      </trkpt>
      <trkpt lat="43.82601" lon="2.83924">
        <ele>524.40002441406</ele>
        <time>2021-05-26T13:00:08.000Z</time>
      </trkpt>
      <trkpt lat="43.82617" lon="2.83937">
        <ele>522.79998779297</ele>
        <time>2021-05-26T13:00:21.000Z</time>
      </trkpt>
      <trkpt lat="43.82634" lon="2.8395">
        <ele>521.20001220703</ele>
        <time>2021-05-26T13:00:36.000Z</time>
      </trkpt>
      <trkpt lat="43.82653" lon="2.83957">
        <ele>519</ele>
        <time>2021-05-26T13:00:47.000Z</time>
      </trkpt>
      <trkpt lat="43.82671" lon="2.83965">
        <ele>517.20001220703</ele>
        <time>2021-05-26T13:00:59.000Z</time>
      </trkpt>
      <trkpt lat="43.82688" lon="2.83975">
        <ele>515.40002441406</ele>
        <time>2021-05-26T13:01:13.000Z</time>
      </trkpt>
      <trkpt lat="43.82705" lon="2.83986">
        <ele>513.40002441406</ele>
        <time>2021-05-26T13:01:27.000Z</time>
      </trkpt>
      <trkpt lat="43.82723" lon="2.83993">
        <ele>510.79998779297</ele>
        <time>2021-05-26T13:01:40.000Z</time>
      </trkpt>
      <trkpt lat="43.8274" lon="2.84004">
        <ele>508.60000610352</ele>
        <time>2021-05-26T13:01:54.000Z</time>
      </trkpt>
      <trkpt lat="43.82757" lon="2.84013">
        <ele>506.20001220703</ele>
        <time>2021-05-26T13:02:07.000Z</time>
      </trkpt>
      <trkpt lat="43.82774" lon="2.84022">
        <ele>504</ele>
        <time>2021-05-26T13:02:20.000Z</time>
      </trkpt>
      <trkpt lat="43.8279" lon="2.84034">
        <ele>502.20001220703</ele>
        <time>2021-05-26T13:02:33.000Z</time>
      </trkpt>
      <trkpt lat="43.82807" lon="2.84045">
        <ele>500.39999389648</ele>
        <time>2021-05-26T13:02:47.000Z</time>
      </trkpt>
      <trkpt lat="43.82823" lon="2.84058">
        <ele>498.79998779297</ele>
        <time>2021-05-26T13:03:02.000Z</time>
      </trkpt>
      <trkpt lat="43.8284" lon="2.84065">
        <ele>497</ele>
        <time>2021-05-26T13:03:15.000Z</time>
      </trkpt>
      <trkpt lat="43.82858" lon="2.84075">
        <ele>495.20001220703</ele>
        <time>2021-05-26T13:03:29.000Z</time>
      </trkpt>
      <trkpt lat="43.82876" lon="2.84083">
        <ele>491.79998779297</ele>
        <time>2021-05-26T13:03:42.000Z</time>
      </trkpt>
      <trkpt lat="43.82893" lon="2.84094">
        <ele>488.60000610352</ele>
        <time>2021-05-26T13:03:56.000Z</time>
      </trkpt>
      <trkpt lat="43.829" lon="2.84095">
        <ele>487.20001220703</ele>
        <time>2021-05-26T13:04:01.000Z</time>
      </trkpt>
      <trkpt lat="43.82912" lon="2.84104">
        <ele>485.20001220703</ele>
        <time>2021-05-26T13:04:34.000Z</time>
      </trkpt>
      <trkpt lat="43.82929" lon="2.84114">
        <ele>482.20001220703</ele>
        <time>2021-05-26T13:04:47.000Z</time>
      </trkpt>
      <trkpt lat="43.82945" lon="2.84125">
        <ele>480</ele>
        <time>2021-05-26T13:05:01.000Z</time>
      </trkpt>
      <trkpt lat="43.82964" lon="2.84131">
        <ele>478</ele>
        <time>2021-05-26T13:05:15.000Z</time>
      </trkpt>
      <trkpt lat="43.82983" lon="2.84136">
        <ele>476</ele>
        <time>2021-05-26T13:05:30.000Z</time>
      </trkpt>
      <trkpt lat="43.82999" lon="2.84145">
        <ele>474.39999389648</ele>
        <time>2021-05-26T13:05:45.000Z</time>
      </trkpt>
      <trkpt lat="43.83019" lon="2.84148">
        <ele>472.20001220703</ele>
        <time>2021-05-26T13:06:01.000Z</time>
      </trkpt>
      <trkpt lat="43.83037" lon="2.84148">
        <ele>469.79998779297</ele>
        <time>2021-05-26T13:06:23.000Z</time>
      </trkpt>
      <trkpt lat="43.83055" lon="2.84148">
        <ele>467.39999389648</ele>
        <time>2021-05-26T13:06:37.000Z</time>
      </trkpt>
      <trkpt lat="43.83074" lon="2.84149">
        <ele>465</ele>
        <time>2021-05-26T13:06:52.000Z</time>
      </trkpt>
      <trkpt lat="43.83092" lon="2.84146">
        <ele>463.39999389648</ele>
        <time>2021-05-26T13:07:06.000Z</time>
      </trkpt>
      <trkpt lat="43.83111" lon="2.84153">
        <ele>461.60000610352</ele>
        <time>2021-05-26T13:07:20.000Z</time>
      </trkpt>
      <trkpt lat="43.83129" lon="2.84159">
        <ele>458</ele>
        <time>2021-05-26T13:07:35.000Z</time>
      </trkpt>
      <trkpt lat="43.83148" lon="2.84161">
        <ele>454.60000610352</ele>
        <time>2021-05-26T13:07:50.000Z</time>
      </trkpt>
      <trkpt lat="43.83167" lon="2.84164">
        <ele>451.20001220703</ele>
        <time>2021-05-26T13:08:05.000Z</time>
      </trkpt>
      <trkpt lat="43.83184" lon="2.84168">
        <ele>448</ele>
        <time>2021-05-26T13:08:19.000Z</time>
      </trkpt>
      <trkpt lat="43.83194" lon="2.84173">
        <ele>446.39999389648</ele>
        <time>2021-05-26T13:08:27.000Z</time>
      </trkpt>
      <trkpt lat="43.83212" lon="2.84179">
        <ele>444.39999389648</ele>
        <time>2021-05-26T13:08:42.000Z</time>
      </trkpt>
      <trkpt lat="43.8323" lon="2.84183">
        <ele>442.39999389648</ele>
        <time>2021-05-26T13:08:56.000Z</time>
      </trkpt>
      <trkpt lat="43.83249" lon="2.84182">
        <ele>439.79998779297</ele>
        <time>2021-05-26T13:09:11.000Z</time>
      </trkpt>
      <trkpt lat="43.83268" lon="2.84187">
        <ele>437.79998779297</ele>
        <time>2021-05-26T13:09:26.000Z</time>
      </trkpt>
      <trkpt lat="43.83286" lon="2.84194">
        <ele>435</ele>
        <time>2021-05-26T13:09:42.000Z</time>
      </trkpt>
      <trkpt lat="43.83298" lon="2.842">
        <ele>432.79998779297</ele>
        <time>2021-05-26T13:09:52.000Z</time>
      </trkpt>
      <trkpt lat="43.83314" lon="2.84212">
        <ele>430.60000610352</ele>
        <time>2021-05-26T13:10:04.000Z</time>
      </trkpt>
      <trkpt lat="43.83328" lon="2.84228">
        <ele>428.60000610352</ele>
        <time>2021-05-26T13:10:16.000Z</time>
      </trkpt>
      <trkpt lat="43.8334" lon="2.84249">
        <ele>427.79998779297</ele>
        <time>2021-05-26T13:10:31.000Z</time>
      </trkpt>
      <trkpt lat="43.83353" lon="2.8426">
        <ele>426.20001220703</ele>
        <time>2021-05-26T13:10:45.000Z</time>
      </trkpt>
      <trkpt lat="43.8337" lon="2.84266">
        <ele>423.79998779297</ele>
        <time>2021-05-26T13:11:01.000Z</time>
      </trkpt>
      <trkpt lat="43.83386" lon="2.84277">
        <ele>422.39999389648</ele>
        <time>2021-05-26T13:11:14.000Z</time>
      </trkpt>
      <trkpt lat="43.83401" lon="2.84291">
        <ele>421</ele>
        <time>2021-05-26T13:11:30.000Z</time>
      </trkpt>
      <trkpt lat="43.83418" lon="2.84303">
        <ele>419.60000610352</ele>
        <time>2021-05-26T13:11:46.000Z</time>
      </trkpt>
      <trkpt lat="43.83435" lon="2.84317">
        <ele>418.20001220703</ele>
        <time>2021-05-26T13:11:58.000Z</time>
      </trkpt>
      <trkpt lat="43.83451" lon="2.84326">
        <ele>416.39999389648</ele>
        <time>2021-05-26T13:12:10.000Z</time>
      </trkpt>
      <trkpt lat="43.83468" lon="2.84337">
        <ele>414.79998779297</ele>
        <time>2021-05-26T13:12:27.000Z</time>
      </trkpt>
      <trkpt lat="43.83485" lon="2.84345">
        <ele>413.60000610352</ele>
        <time>2021-05-26T13:12:42.000Z</time>
      </trkpt>
      <trkpt lat="43.83502" lon="2.84354">
        <ele>412.60000610352</ele>
        <time>2021-05-26T13:12:56.000Z</time>
      </trkpt>
      <trkpt lat="43.83519" lon="2.84361">
        <ele>411.20001220703</ele>
        <time>2021-05-26T13:13:10.000Z</time>
      </trkpt>
      <trkpt lat="43.83538" lon="2.84365">
        <ele>408.39999389648</ele>
        <time>2021-05-26T13:13:23.000Z</time>
      </trkpt>
      <trkpt lat="43.83557" lon="2.84368">
        <ele>406</ele>
        <time>2021-05-26T13:13:39.000Z</time>
      </trkpt>
      <trkpt lat="43.83558" lon="2.84369">
        <ele>405.79998779297</ele>
        <time>2021-05-26T13:13:40.000Z</time>
      </trkpt>
      <trkpt lat="43.83561" lon="2.84374">
        <ele>405.39999389648</ele>
        <time>2021-05-26T13:15:00.000Z</time>
      </trkpt>
      <trkpt lat="43.83561" lon="2.84371">
        <ele>405.60000610352</ele>
        <time>2021-05-26T13:16:32.000Z</time>
      </trkpt>
      <trkpt lat="43.8358" lon="2.84377">
        <ele>404.20001220703</ele>
        <time>2021-05-26T13:16:49.000Z</time>
      </trkpt>
      <trkpt lat="43.83598" lon="2.84384">
        <ele>402.79998779297</ele>
        <time>2021-05-26T13:17:07.000Z</time>
      </trkpt>
      <trkpt lat="43.83615" lon="2.84396">
        <ele>400.79998779297</ele>
        <time>2021-05-26T13:17:20.000Z</time>
      </trkpt>
      <trkpt lat="43.8363" lon="2.84411">
        <ele>398.20001220703</ele>
        <time>2021-05-26T13:17:34.000Z</time>
      </trkpt>
      <trkpt lat="43.83641" lon="2.84432">
        <ele>396.60000610352</ele>
        <time>2021-05-26T13:17:46.000Z</time>
      </trkpt>
      <trkpt lat="43.83647" lon="2.84444">
        <ele>396.20001220703</ele>
        <time>2021-05-26T13:17:55.000Z</time>
      </trkpt>
      <trkpt lat="43.83654" lon="2.84453">
        <ele>395.20001220703</ele>
        <time>2021-05-26T13:18:03.000Z</time>
      </trkpt>
      <trkpt lat="43.83672" lon="2.84458">
        <ele>393</ele>
        <time>2021-05-26T13:18:19.000Z</time>
      </trkpt>
      <trkpt lat="43.83689" lon="2.84469">
        <ele>391</ele>
        <time>2021-05-26T13:18:32.000Z</time>
      </trkpt>
      <trkpt lat="43.83697" lon="2.8448">
        <ele>389.79998779297</ele>
        <time>2021-05-26T13:19:01.000Z</time>
      </trkpt>
      <trkpt lat="43.83712" lon="2.84497">
        <ele>387</ele>
        <time>2021-05-26T13:19:20.000Z</time>
      </trkpt>
      <trkpt lat="43.83725" lon="2.84499">
        <ele>384.60000610352</ele>
        <time>2021-05-26T13:19:30.000Z</time>
      </trkpt>
      <trkpt lat="43.83737" lon="2.84493">
        <ele>382</ele>
        <time>2021-05-26T13:19:42.000Z</time>
      </trkpt>
      <trkpt lat="43.83755" lon="2.84483">
        <ele>379</ele>
        <time>2021-05-26T13:19:52.000Z</time>
      </trkpt>
      <trkpt lat="43.83766" lon="2.84462">
        <ele>381.39999389648</ele>
        <time>2021-05-26T13:20:04.000Z</time>
      </trkpt>
      <trkpt lat="43.83779" lon="2.84442">
        <ele>383.20001220703</ele>
        <time>2021-05-26T13:20:18.000Z</time>
      </trkpt>
      <trkpt lat="43.83789" lon="2.8442">
        <ele>383.79998779297</ele>
        <time>2021-05-26T13:20:32.000Z</time>
      </trkpt>
      <trkpt lat="43.83794" lon="2.84415">
        <ele>383.79998779297</ele>
        <time>2021-05-26T13:20:36.000Z</time>
      </trkpt>
      <trkpt lat="43.83808" lon="2.84399">
        <ele>383.60000610352</ele>
        <time>2021-05-26T13:20:50.000Z</time>
      </trkpt>
      <trkpt lat="43.83824" lon="2.84386">
        <ele>382.60000610352</ele>
        <time>2021-05-26T13:21:00.000Z</time>
      </trkpt>
      <trkpt lat="43.83838" lon="2.84368">
        <ele>381.20001220703</ele>
        <time>2021-05-26T13:21:13.000Z</time>
      </trkpt>
      <trkpt lat="43.83851" lon="2.84351">
        <ele>379.79998779297</ele>
        <time>2021-05-26T13:21:24.000Z</time>
      </trkpt>
      <trkpt lat="43.83867" lon="2.8434">
        <ele>378</ele>
        <time>2021-05-26T13:21:37.000Z</time>
      </trkpt>
      <trkpt lat="43.83886" lon="2.84331">
        <ele>375.39999389648</ele>
        <time>2021-05-26T13:21:49.000Z</time>
      </trkpt>
      <trkpt lat="43.83903" lon="2.84322">
        <ele>373.20001220703</ele>
        <time>2021-05-26T13:22:01.000Z</time>
      </trkpt>
      <trkpt lat="43.83916" lon="2.8431">
        <ele>371.79998779297</ele>
        <time>2021-05-26T13:22:17.000Z</time>
      </trkpt>
      <trkpt lat="43.83914" lon="2.84295">
        <ele>373</ele>
        <time>2021-05-26T13:23:02.000Z</time>
      </trkpt>
      <trkpt lat="43.83912" lon="2.8429">
        <ele>373.79998779297</ele>
        <time>2021-05-26T13:23:52.000Z</time>
      </trkpt>
      <trkpt lat="43.83915" lon="2.84283">
        <ele>373.79998779297</ele>
        <time>2021-05-26T13:24:02.000Z</time>
      </trkpt>
      <trkpt lat="43.83927" lon="2.84269">
        <ele>372.39999389648</ele>
        <time>2021-05-26T13:25:06.000Z</time>
      </trkpt>
      <trkpt lat="43.83935" lon="2.84247">
        <ele>372</ele>
        <time>2021-05-26T13:25:19.000Z</time>
      </trkpt>
      <trkpt lat="43.8394" lon="2.84221">
        <ele>374.60000610352</ele>
        <time>2021-05-26T13:25:32.000Z</time>
      </trkpt>
      <trkpt lat="43.83944" lon="2.84205">
        <ele>376.20001220703</ele>
        <time>2021-05-26T13:25:45.000Z</time>
      </trkpt>
      <trkpt lat="43.83944" lon="2.84201">
        <ele>376.60000610352</ele>
        <time>2021-05-26T13:25:48.000Z</time>
      </trkpt>
      <trkpt lat="43.83934" lon="2.8418">
        <ele>379.39999389648</ele>
        <time>2021-05-26T13:26:02.000Z</time>
      </trkpt>
      <trkpt lat="43.83927" lon="2.84157">
        <ele>381.60000610352</ele>
        <time>2021-05-26T13:26:15.000Z</time>
      </trkpt>
      <trkpt lat="43.83922" lon="2.84132">
        <ele>384.20001220703</ele>
        <time>2021-05-26T13:26:29.000Z</time>
      </trkpt>
      <trkpt lat="43.83914" lon="2.84109">
        <ele>386.60000610352</ele>
        <time>2021-05-26T13:26:43.000Z</time>
      </trkpt>
      <trkpt lat="43.83905" lon="2.84086">
        <ele>389</ele>
        <time>2021-05-26T13:26:58.000Z</time>
      </trkpt>
      <trkpt lat="43.83892" lon="2.84068">
        <ele>391.20001220703</ele>
        <time>2021-05-26T13:27:12.000Z</time>
      </trkpt>
      <trkpt lat="43.83879" lon="2.8405">
        <ele>393.39999389648</ele>
        <time>2021-05-26T13:27:27.000Z</time>
      </trkpt>
      <trkpt lat="43.83865" lon="2.84034">
        <ele>395.39999389648</ele>
        <time>2021-05-26T13:27:42.000Z</time>
      </trkpt>
      <trkpt lat="43.8385" lon="2.84019">
        <ele>397.20001220703</ele>
        <time>2021-05-26T13:27:57.000Z</time>
      </trkpt>
      <trkpt lat="43.83833" lon="2.84009">
        <ele>398.79998779297</ele>
        <time>2021-05-26T13:28:12.000Z</time>
      </trkpt>
      <trkpt lat="43.83817" lon="2.83994">
        <ele>401</ele>
        <time>2021-05-26T13:28:26.000Z</time>
      </trkpt>
      <trkpt lat="43.83805" lon="2.83977">
        <ele>403.79998779297</ele>
        <time>2021-05-26T13:28:39.000Z</time>
      </trkpt>
      <trkpt lat="43.83793" lon="2.83958">
        <ele>406.60000610352</ele>
        <time>2021-05-26T13:28:53.000Z</time>
      </trkpt>
      <trkpt lat="43.83777" lon="2.83949">
        <ele>408.20001220703</ele>
        <time>2021-05-26T13:29:07.000Z</time>
      </trkpt>
      <trkpt lat="43.83758" lon="2.83944">
        <ele>409.39999389648</ele>
        <time>2021-05-26T13:29:20.000Z</time>
      </trkpt>
      <trkpt lat="43.83739" lon="2.83942">
        <ele>410.39999389648</ele>
        <time>2021-05-26T13:29:33.000Z</time>
      </trkpt>
      <trkpt lat="43.83721" lon="2.83937">
        <ele>411.79998779297</ele>
        <time>2021-05-26T13:29:47.000Z</time>
      </trkpt>
      <trkpt lat="43.83703" lon="2.83932">
        <ele>413</ele>
        <time>2021-05-26T13:30:02.000Z</time>
      </trkpt>
      <trkpt lat="43.8369" lon="2.83924">
        <ele>414.79998779297</ele>
        <time>2021-05-26T13:30:34.000Z</time>
      </trkpt>
      <trkpt lat="43.83673" lon="2.83917">
        <ele>415.39999389648</ele>
        <time>2021-05-26T13:30:57.000Z</time>
      </trkpt>
      <trkpt lat="43.83656" lon="2.8391">
        <ele>416.20001220703</ele>
        <time>2021-05-26T13:31:12.000Z</time>
      </trkpt>
      <trkpt lat="43.83641" lon="2.83894">
        <ele>419.60000610352</ele>
        <time>2021-05-26T13:31:30.000Z</time>
      </trkpt>
      <trkpt lat="43.83629" lon="2.83874">
        <ele>424.20001220703</ele>
        <time>2021-05-26T13:31:45.000Z</time>
      </trkpt>
      <trkpt lat="43.83618" lon="2.83859">
        <ele>427.39999389648</ele>
        <time>2021-05-26T13:31:58.000Z</time>
      </trkpt>
      <trkpt lat="43.83602" lon="2.83846">
        <ele>429.79998779297</ele>
        <time>2021-05-26T13:32:13.000Z</time>
      </trkpt>
      <trkpt lat="43.8359" lon="2.83838">
        <ele>430</ele>
        <time>2021-05-26T13:32:23.000Z</time>
      </trkpt>
      <trkpt lat="43.8359" lon="2.83835">
        <ele>430.60000610352</ele>
        <time>2021-05-26T13:32:25.000Z</time>
      </trkpt>
      <trkpt lat="43.83591" lon="2.83832">
        <ele>431.39999389648</ele>
        <time>2021-05-26T13:32:27.000Z</time>
      </trkpt>
      <trkpt lat="43.8361" lon="2.83828">
        <ele>434.60000610352</ele>
        <time>2021-05-26T13:32:42.000Z</time>
      </trkpt>
      <trkpt lat="43.83627" lon="2.83816">
        <ele>437.20001220703</ele>
        <time>2021-05-26T13:32:56.000Z</time>
      </trkpt>
      <trkpt lat="43.83641" lon="2.838">
        <ele>440.79998779297</ele>
        <time>2021-05-26T13:33:10.000Z</time>
      </trkpt>
      <trkpt lat="43.8365" lon="2.83779">
        <ele>444.60000610352</ele>
        <time>2021-05-26T13:33:24.000Z</time>
      </trkpt>
      <trkpt lat="43.8366" lon="2.83758">
        <ele>447.79998779297</ele>
        <time>2021-05-26T13:33:38.000Z</time>
      </trkpt>
      <trkpt lat="43.83667" lon="2.83734">
        <ele>451</ele>
        <time>2021-05-26T13:33:52.000Z</time>
      </trkpt>
      <trkpt lat="43.83671" lon="2.83708">
        <ele>454</ele>
        <time>2021-05-26T13:34:08.000Z</time>
      </trkpt>
      <trkpt lat="43.83675" lon="2.83684">
        <ele>456.79998779297</ele>
        <time>2021-05-26T13:34:21.000Z</time>
      </trkpt>
      <trkpt lat="43.83681" lon="2.83658">
        <ele>459.20001220703</ele>
        <time>2021-05-26T13:34:35.000Z</time>
      </trkpt>
      <trkpt lat="43.83677" lon="2.83634">
        <ele>461.79998779297</ele>
        <time>2021-05-26T13:34:48.000Z</time>
      </trkpt>
      <trkpt lat="43.83665" lon="2.83615">
        <ele>464.79998779297</ele>
        <time>2021-05-26T13:35:01.000Z</time>
      </trkpt>
      <trkpt lat="43.83662" lon="2.83596">
        <ele>467</ele>
        <time>2021-05-26T13:35:14.000Z</time>
      </trkpt>
      <trkpt lat="43.83669" lon="2.83572">
        <ele>467.60000610352</ele>
        <time>2021-05-26T13:35:28.000Z</time>
      </trkpt>
      <trkpt lat="43.83677" lon="2.8355">
        <ele>468.20001220703</ele>
        <time>2021-05-26T13:35:41.000Z</time>
      </trkpt>
      <trkpt lat="43.83687" lon="2.83529">
        <ele>468.79998779297</ele>
        <time>2021-05-26T13:35:54.000Z</time>
      </trkpt>
      <trkpt lat="43.83695" lon="2.83506">
        <ele>469.20001220703</ele>
        <time>2021-05-26T13:36:03.000Z</time>
      </trkpt>
      <trkpt lat="43.83702" lon="2.8348">
        <ele>468.20001220703</ele>
        <time>2021-05-26T13:36:09.000Z</time>
      </trkpt>
      <trkpt lat="43.8371" lon="2.83456">
        <ele>467.20001220703</ele>
        <time>2021-05-26T13:36:15.000Z</time>
      </trkpt>
      <trkpt lat="43.83716" lon="2.83431">
        <ele>467.39999389648</ele>
        <time>2021-05-26T13:36:23.000Z</time>
      </trkpt>
      <trkpt lat="43.8372" lon="2.83404">
        <ele>466.79998779297</ele>
        <time>2021-05-26T13:36:33.000Z</time>
      </trkpt>
      <trkpt lat="43.83722" lon="2.83379">
        <ele>465.79998779297</ele>
        <time>2021-05-26T13:36:45.000Z</time>
      </trkpt>
      <trkpt lat="43.83729" lon="2.83373">
        <ele>465.20001220703</ele>
        <time>2021-05-26T13:37:08.000Z</time>
      </trkpt>
      <trkpt lat="43.83746" lon="2.83368">
        <ele>463.60000610352</ele>
        <time>2021-05-26T13:37:20.000Z</time>
      </trkpt>
      <trkpt lat="43.83762" lon="2.83355">
        <ele>461.79998779297</ele>
        <time>2021-05-26T13:37:35.000Z</time>
      </trkpt>
      <trkpt lat="43.83778" lon="2.83341">
        <ele>458.60000610352</ele>
        <time>2021-05-26T13:37:55.000Z</time>
      </trkpt>
      <trkpt lat="43.83784" lon="2.83317">
        <ele>455.39999389648</ele>
        <time>2021-05-26T13:38:09.000Z</time>
      </trkpt>
      <trkpt lat="43.83789" lon="2.83293">
        <ele>452.39999389648</ele>
        <time>2021-05-26T13:38:23.000Z</time>
      </trkpt>
      <trkpt lat="43.83797" lon="2.8327">
        <ele>449.20001220703</ele>
        <time>2021-05-26T13:38:37.000Z</time>
      </trkpt>
      <trkpt lat="43.83804" lon="2.83246">
        <ele>446.20001220703</ele>
        <time>2021-05-26T13:38:52.000Z</time>
      </trkpt>
      <trkpt lat="43.83807" lon="2.83221">
        <ele>442.20001220703</ele>
        <time>2021-05-26T13:39:06.000Z</time>
      </trkpt>
      <trkpt lat="43.83809" lon="2.83196">
        <ele>439.79998779297</ele>
        <time>2021-05-26T13:39:19.000Z</time>
      </trkpt>
      <trkpt lat="43.83807" lon="2.8317">
        <ele>439</ele>
        <time>2021-05-26T13:39:33.000Z</time>
      </trkpt>
      <trkpt lat="43.83813" lon="2.83146">
        <ele>435.60000610352</ele>
        <time>2021-05-26T13:39:51.000Z</time>
      </trkpt>
      <trkpt lat="43.83826" lon="2.83127">
        <ele>433.60000610352</ele>
        <time>2021-05-26T13:40:05.000Z</time>
      </trkpt>
      <trkpt lat="43.83835" lon="2.83104">
        <ele>432.39999389648</ele>
        <time>2021-05-26T13:40:19.000Z</time>
      </trkpt>
      <trkpt lat="43.83838" lon="2.83078">
        <ele>430</ele>
        <time>2021-05-26T13:40:34.000Z</time>
      </trkpt>
      <trkpt lat="43.8384" lon="2.83053">
        <ele>425.79998779297</ele>
        <time>2021-05-26T13:40:48.000Z</time>
      </trkpt>
      <trkpt lat="43.83842" lon="2.83028">
        <ele>421.60000610352</ele>
        <time>2021-05-26T13:41:04.000Z</time>
      </trkpt>
      <trkpt lat="43.83851" lon="2.8301">
        <ele>418.79998779297</ele>
        <time>2021-05-26T13:41:37.000Z</time>
      </trkpt>
      <trkpt lat="43.83861" lon="2.8299">
        <ele>415.60000610352</ele>
        <time>2021-05-26T13:41:51.000Z</time>
      </trkpt>
      <trkpt lat="43.8387" lon="2.82967">
        <ele>412</ele>
        <time>2021-05-26T13:42:05.000Z</time>
      </trkpt>
      <trkpt lat="43.83879" lon="2.82944">
        <ele>408.39999389648</ele>
        <time>2021-05-26T13:42:19.000Z</time>
      </trkpt>
      <trkpt lat="43.83892" lon="2.82925">
        <ele>406.39999389648</ele>
        <time>2021-05-26T13:42:33.000Z</time>
      </trkpt>
      <trkpt lat="43.83909" lon="2.82913">
        <ele>405.20001220703</ele>
        <time>2021-05-26T13:42:49.000Z</time>
      </trkpt>
      <trkpt lat="43.83926" lon="2.82905">
        <ele>404</ele>
        <time>2021-05-26T13:43:02.000Z</time>
      </trkpt>
      <trkpt lat="43.83944" lon="2.82912">
        <ele>402.79998779297</ele>
        <time>2021-05-26T13:43:18.000Z</time>
      </trkpt>
      <trkpt lat="43.83945" lon="2.82912">
        <ele>402.60000610352</ele>
        <time>2021-05-26T13:43:19.000Z</time>
      </trkpt>
      <trkpt lat="43.83964" lon="2.82915">
        <ele>401</ele>
        <time>2021-05-26T13:43:32.000Z</time>
      </trkpt>
      <trkpt lat="43.8398" lon="2.82917">
        <ele>399.60000610352</ele>
        <time>2021-05-26T13:43:58.000Z</time>
      </trkpt>
      <trkpt lat="43.83998" lon="2.82911">
        <ele>397.39999389648</ele>
        <time>2021-05-26T13:44:13.000Z</time>
      </trkpt>
      <trkpt lat="43.84013" lon="2.82893">
        <ele>395</ele>
        <time>2021-05-26T13:44:27.000Z</time>
      </trkpt>
      <trkpt lat="43.84027" lon="2.82878">
        <ele>393.20001220703</ele>
        <time>2021-05-26T13:44:40.000Z</time>
      </trkpt>
      <trkpt lat="43.84045" lon="2.82868">
        <ele>391.60000610352</ele>
        <time>2021-05-26T13:44:53.000Z</time>
      </trkpt>
      <trkpt lat="43.84062" lon="2.82858">
        <ele>390.39999389648</ele>
        <time>2021-05-26T13:45:05.000Z</time>
      </trkpt>
      <trkpt lat="43.8408" lon="2.82853">
        <ele>389.60000610352</ele>
        <time>2021-05-26T13:45:17.000Z</time>
      </trkpt>
      <trkpt lat="43.84098" lon="2.82853">
        <ele>389</ele>
        <time>2021-05-26T13:45:30.000Z</time>
      </trkpt>
      <trkpt lat="43.84116" lon="2.82851">
        <ele>388.39999389648</ele>
        <time>2021-05-26T13:45:42.000Z</time>
      </trkpt>
      <trkpt lat="43.84134" lon="2.82849">
        <ele>388</ele>
        <time>2021-05-26T13:45:54.000Z</time>
      </trkpt>
      <trkpt lat="43.84152" lon="2.82855">
        <ele>388</ele>
        <time>2021-05-26T13:46:06.000Z</time>
      </trkpt>
      <trkpt lat="43.8417" lon="2.82857">
        <ele>387.79998779297</ele>
        <time>2021-05-26T13:46:18.000Z</time>
      </trkpt>
      <trkpt lat="43.84189" lon="2.82863">
        <ele>387.79998779297</ele>
        <time>2021-05-26T13:46:31.000Z</time>
      </trkpt>
      <trkpt lat="43.84208" lon="2.82869">
        <ele>387.39999389648</ele>
        <time>2021-05-26T13:46:45.000Z</time>
      </trkpt>
      <trkpt lat="43.84225" lon="2.82877">
        <ele>387</ele>
        <time>2021-05-26T13:46:56.000Z</time>
      </trkpt>
      <trkpt lat="43.84243" lon="2.82886">
        <ele>386.79998779297</ele>
        <time>2021-05-26T13:47:08.000Z</time>
      </trkpt>
      <trkpt lat="43.84262" lon="2.82894">
        <ele>386.60000610352</ele>
        <time>2021-05-26T13:47:20.000Z</time>
      </trkpt>
      <trkpt lat="43.8428" lon="2.82903">
        <ele>386</ele>
        <time>2021-05-26T13:47:33.000Z</time>
      </trkpt>
      <trkpt lat="43.84298" lon="2.82911">
        <ele>385.20001220703</ele>
        <time>2021-05-26T13:47:44.000Z</time>
      </trkpt>
      <trkpt lat="43.84315" lon="2.82923">
        <ele>384.39999389648</ele>
        <time>2021-05-26T13:47:57.000Z</time>
      </trkpt>
      <trkpt lat="43.84333" lon="2.82932">
        <ele>383</ele>
        <time>2021-05-26T13:48:12.000Z</time>
      </trkpt>
      <trkpt lat="43.84351" lon="2.82942">
        <ele>381.60000610352</ele>
        <time>2021-05-26T13:48:25.000Z</time>
      </trkpt>
      <trkpt lat="43.84357" lon="2.82964">
        <ele>380.39999389648</ele>
        <time>2021-05-26T13:48:36.000Z</time>
      </trkpt>
      <trkpt lat="43.84349" lon="2.82988">
        <ele>380</ele>
        <time>2021-05-26T13:48:48.000Z</time>
      </trkpt>
      <trkpt lat="43.8434" lon="2.8301">
        <ele>380.20001220703</ele>
        <time>2021-05-26T13:48:59.000Z</time>
      </trkpt>
      <trkpt lat="43.84332" lon="2.83033">
        <ele>380.79998779297</ele>
        <time>2021-05-26T13:49:10.000Z</time>
      </trkpt>
      <trkpt lat="43.84324" lon="2.83057">
        <ele>381.20001220703</ele>
        <time>2021-05-26T13:49:22.000Z</time>
      </trkpt>
      <trkpt lat="43.84315" lon="2.83079">
        <ele>381.20001220703</ele>
        <time>2021-05-26T13:49:34.000Z</time>
      </trkpt>
      <trkpt lat="43.84306" lon="2.831">
        <ele>381.60000610352</ele>
        <time>2021-05-26T13:49:45.000Z</time>
      </trkpt>
      <trkpt lat="43.84297" lon="2.83122">
        <ele>382.39999389648</ele>
        <time>2021-05-26T13:49:57.000Z</time>
      </trkpt>
      <trkpt lat="43.84287" lon="2.83143">
        <ele>382.60000610352</ele>
        <time>2021-05-26T13:50:09.000Z</time>
      </trkpt>
      <trkpt lat="43.84277" lon="2.83166">
        <ele>382.79998779297</ele>
        <time>2021-05-26T13:50:22.000Z</time>
      </trkpt>
      <trkpt lat="43.8427" lon="2.8319">
        <ele>383.39999389648</ele>
        <time>2021-05-26T13:50:34.000Z</time>
      </trkpt>
      <trkpt lat="43.84264" lon="2.83213">
        <ele>383.79998779297</ele>
        <time>2021-05-26T13:50:46.000Z</time>
      </trkpt>
      <trkpt lat="43.84264" lon="2.8324">
        <ele>384.20001220703</ele>
        <time>2021-05-26T13:50:59.000Z</time>
      </trkpt>
      <trkpt lat="43.84264" lon="2.83266">
        <ele>383.79998779297</ele>
        <time>2021-05-26T13:51:12.000Z</time>
      </trkpt>
      <trkpt lat="43.8427" lon="2.83291">
        <ele>383.20001220703</ele>
        <time>2021-05-26T13:51:24.000Z</time>
      </trkpt>
      <trkpt lat="43.84279" lon="2.83313">
        <ele>382.60000610352</ele>
        <time>2021-05-26T13:51:36.000Z</time>
      </trkpt>
      <trkpt lat="43.84288" lon="2.83335">
        <ele>382</ele>
        <time>2021-05-26T13:51:48.000Z</time>
      </trkpt>
      <trkpt lat="43.84298" lon="2.83356">
        <ele>381.20001220703</ele>
        <time>2021-05-26T13:52:00.000Z</time>
      </trkpt>
      <trkpt lat="43.84309" lon="2.83376">
        <ele>380.60000610352</ele>
        <time>2021-05-26T13:52:12.000Z</time>
      </trkpt>
      <trkpt lat="43.84323" lon="2.83394">
        <ele>380.20001220703</ele>
        <time>2021-05-26T13:52:25.000Z</time>
      </trkpt>
      <trkpt lat="43.84336" lon="2.83412">
        <ele>379.60000610352</ele>
        <time>2021-05-26T13:52:37.000Z</time>
      </trkpt>
      <trkpt lat="43.8435" lon="2.8343">
        <ele>378.79998779297</ele>
        <time>2021-05-26T13:52:49.000Z</time>
      </trkpt>
      <trkpt lat="43.84364" lon="2.83446">
        <ele>377.79998779297</ele>
        <time>2021-05-26T13:53:01.000Z</time>
      </trkpt>
      <trkpt lat="43.84378" lon="2.83463">
        <ele>376.79998779297</ele>
        <time>2021-05-26T13:53:12.000Z</time>
      </trkpt>
      <trkpt lat="43.84392" lon="2.83481">
        <ele>375.79998779297</ele>
        <time>2021-05-26T13:53:25.000Z</time>
      </trkpt>
      <trkpt lat="43.84407" lon="2.83498">
        <ele>374.79998779297</ele>
        <time>2021-05-26T13:53:37.000Z</time>
      </trkpt>
      <trkpt lat="43.8442" lon="2.83517">
        <ele>374</ele>
        <time>2021-05-26T13:53:49.000Z</time>
      </trkpt>
      <trkpt lat="43.84433" lon="2.83535">
        <ele>373.39999389648</ele>
        <time>2021-05-26T13:54:01.000Z</time>
      </trkpt>
      <trkpt lat="43.84448" lon="2.83552">
        <ele>372.79998779297</ele>
        <time>2021-05-26T13:54:14.000Z</time>
      </trkpt>
      <trkpt lat="43.84461" lon="2.8357">
        <ele>372.20001220703</ele>
        <time>2021-05-26T13:54:26.000Z</time>
      </trkpt>
      <trkpt lat="43.84476" lon="2.83587">
        <ele>371.60000610352</ele>
        <time>2021-05-26T13:54:38.000Z</time>
      </trkpt>
      <trkpt lat="43.84491" lon="2.83602">
        <ele>371.60000610352</ele>
        <time>2021-05-26T13:54:50.000Z</time>
      </trkpt>
      <trkpt lat="43.84509" lon="2.83612">
        <ele>371.39999389648</ele>
        <time>2021-05-26T13:55:02.000Z</time>
      </trkpt>
      <trkpt lat="43.84525" lon="2.83624">
        <ele>371.20001220703</ele>
        <time>2021-05-26T13:55:15.000Z</time>
      </trkpt>
      <trkpt lat="43.84543" lon="2.83628">
        <ele>369.79998779297</ele>
        <time>2021-05-26T13:55:27.000Z</time>
      </trkpt>
      <trkpt lat="43.84561" lon="2.83634">
        <ele>368.39999389648</ele>
        <time>2021-05-26T13:55:39.000Z</time>
      </trkpt>
      <trkpt lat="43.84577" lon="2.83646">
        <ele>367.20001220703</ele>
        <time>2021-05-26T13:55:51.000Z</time>
      </trkpt>
      <trkpt lat="43.84594" lon="2.83649">
        <ele>366.20001220703</ele>
        <time>2021-05-26T13:56:03.000Z</time>
      </trkpt>
      <trkpt lat="43.84611" lon="2.83636">
        <ele>365.39999389648</ele>
        <time>2021-05-26T13:56:17.000Z</time>
      </trkpt>
      <trkpt lat="43.84628" lon="2.83628">
        <ele>364.20001220703</ele>
        <time>2021-05-26T13:56:32.000Z</time>
      </trkpt>
      <trkpt lat="43.84639" lon="2.83648">
        <ele>362.79998779297</ele>
        <time>2021-05-26T13:56:44.000Z</time>
      </trkpt>
      <trkpt lat="43.84647" lon="2.83672">
        <ele>361.60000610352</ele>
        <time>2021-05-26T13:56:56.000Z</time>
      </trkpt>
      <trkpt lat="43.84656" lon="2.83694">
        <ele>360.79998779297</ele>
        <time>2021-05-26T13:57:08.000Z</time>
      </trkpt>
      <trkpt lat="43.84665" lon="2.83717">
        <ele>360</ele>
        <time>2021-05-26T13:57:20.000Z</time>
      </trkpt>
      <trkpt lat="43.84673" lon="2.8374">
        <ele>359.39999389648</ele>
        <time>2021-05-26T13:57:32.000Z</time>
      </trkpt>
      <trkpt lat="43.84682" lon="2.83763">
        <ele>358.79998779297</ele>
        <time>2021-05-26T13:57:44.000Z</time>
      </trkpt>
      <trkpt lat="43.84694" lon="2.83782">
        <ele>358.60000610352</ele>
        <time>2021-05-26T13:57:55.000Z</time>
      </trkpt>
      <trkpt lat="43.84712" lon="2.8378">
        <ele>358.20001220703</ele>
        <time>2021-05-26T13:58:07.000Z</time>
      </trkpt>
      <trkpt lat="43.84729" lon="2.83769">
        <ele>358.20001220703</ele>
        <time>2021-05-26T13:58:18.000Z</time>
      </trkpt>
      <trkpt lat="43.84746" lon="2.8376">
        <ele>358</ele>
        <time>2021-05-26T13:58:30.000Z</time>
      </trkpt>
      <trkpt lat="43.84764" lon="2.8375">
        <ele>358</ele>
        <time>2021-05-26T13:58:43.000Z</time>
      </trkpt>
      <trkpt lat="43.84782" lon="2.83748">
        <ele>357.79998779297</ele>
        <time>2021-05-26T13:58:56.000Z</time>
      </trkpt>
      <trkpt lat="43.84791" lon="2.83767">
        <ele>358.20001220703</ele>
        <time>2021-05-26T13:59:10.000Z</time>
      </trkpt>
      <trkpt lat="43.84774" lon="2.83762">
        <ele>358</ele>
        <time>2021-05-26T13:59:49.000Z</time>
      </trkpt>
      <trkpt lat="43.84782" lon="2.83765">
        <ele>358.20001220703</ele>
        <time>2021-05-26T14:00:21.000Z</time>
      </trkpt>
      <trkpt lat="43.848" lon="2.8377">
        <ele>358</ele>
        <time>2021-05-26T14:00:34.000Z</time>
      </trkpt>
      <trkpt lat="43.84813" lon="2.83787">
        <ele>358.60000610352</ele>
        <time>2021-05-26T14:00:47.000Z</time>
      </trkpt>
      <trkpt lat="43.84829" lon="2.838">
        <ele>358.79998779297</ele>
        <time>2021-05-26T14:01:02.000Z</time>
      </trkpt>
      <trkpt lat="43.84841" lon="2.83821">
        <ele>359.39999389648</ele>
        <time>2021-05-26T14:01:14.000Z</time>
      </trkpt>
      <trkpt lat="43.8485" lon="2.83844">
        <ele>360</ele>
        <time>2021-05-26T14:01:25.000Z</time>
      </trkpt>
      <trkpt lat="43.84862" lon="2.83864">
        <ele>360.20001220703</ele>
        <time>2021-05-26T14:01:37.000Z</time>
      </trkpt>
      <trkpt lat="43.84881" lon="2.83872">
        <ele>359.79998779297</ele>
        <time>2021-05-26T14:01:50.000Z</time>
      </trkpt>
      <trkpt lat="43.84896" lon="2.83888">
        <ele>359.60000610352</ele>
        <time>2021-05-26T14:02:03.000Z</time>
      </trkpt>
      <trkpt lat="43.84909" lon="2.83905">
        <ele>359.60000610352</ele>
        <time>2021-05-26T14:02:15.000Z</time>
      </trkpt>
      <trkpt lat="43.84921" lon="2.83927">
        <ele>359.60000610352</ele>
        <time>2021-05-26T14:02:29.000Z</time>
      </trkpt>
      <trkpt lat="43.84931" lon="2.8395">
        <ele>360.20001220703</ele>
        <time>2021-05-26T14:02:43.000Z</time>
      </trkpt>
      <trkpt lat="43.84945" lon="2.83967">
        <ele>361</ele>
        <time>2021-05-26T14:02:55.000Z</time>
      </trkpt>
      <trkpt lat="43.8496" lon="2.83983">
        <ele>362.39999389648</ele>
        <time>2021-05-26T14:03:07.000Z</time>
      </trkpt>
      <trkpt lat="43.84976" lon="2.83997">
        <ele>364</ele>
        <time>2021-05-26T14:03:19.000Z</time>
      </trkpt>
      <trkpt lat="43.84983" lon="2.84019">
        <ele>365.20001220703</ele>
        <time>2021-05-26T14:03:31.000Z</time>
      </trkpt>
      <trkpt lat="43.84979" lon="2.84044">
        <ele>366.20001220703</ele>
        <time>2021-05-26T14:03:45.000Z</time>
      </trkpt>
      <trkpt lat="43.84973" lon="2.84069">
        <ele>366.60000610352</ele>
        <time>2021-05-26T14:03:58.000Z</time>
      </trkpt>
      <trkpt lat="43.84959" lon="2.84087">
        <ele>366.39999389648</ele>
        <time>2021-05-26T14:04:11.000Z</time>
      </trkpt>
      <trkpt lat="43.8495" lon="2.84109">
        <ele>366.79998779297</ele>
        <time>2021-05-26T14:04:23.000Z</time>
      </trkpt>
      <trkpt lat="43.8495" lon="2.84134">
        <ele>367.39999389648</ele>
        <time>2021-05-26T14:04:35.000Z</time>
      </trkpt>
      <trkpt lat="43.84954" lon="2.84159">
        <ele>368.39999389648</ele>
        <time>2021-05-26T14:04:47.000Z</time>
      </trkpt>
      <trkpt lat="43.84952" lon="2.84187">
        <ele>370</ele>
        <time>2021-05-26T14:04:57.000Z</time>
      </trkpt>
      <trkpt lat="43.84944" lon="2.8421">
        <ele>369.79998779297</ele>
        <time>2021-05-26T14:05:06.000Z</time>
      </trkpt>
      <trkpt lat="43.84934" lon="2.84233">
        <ele>369.60000610352</ele>
        <time>2021-05-26T14:05:14.000Z</time>
      </trkpt>
      <trkpt lat="43.84924" lon="2.84256">
        <ele>369.39999389648</ele>
        <time>2021-05-26T14:05:24.000Z</time>
      </trkpt>
      <trkpt lat="43.84915" lon="2.84278">
        <ele>371</ele>
        <time>2021-05-26T14:05:37.000Z</time>
      </trkpt>
      <trkpt lat="43.84905" lon="2.84299">
        <ele>372.60000610352</ele>
        <time>2021-05-26T14:05:49.000Z</time>
      </trkpt>
      <trkpt lat="43.84893" lon="2.84319">
        <ele>371.79998779297</ele>
        <time>2021-05-26T14:06:01.000Z</time>
      </trkpt>
      <trkpt lat="43.8488" lon="2.84337">
        <ele>370.20001220703</ele>
        <time>2021-05-26T14:06:13.000Z</time>
      </trkpt>
      <trkpt lat="43.84872" lon="2.84347">
        <ele>369.60000610352</ele>
        <time>2021-05-26T14:06:20.000Z</time>
      </trkpt>
      <trkpt lat="43.84861" lon="2.84367">
        <ele>369.20001220703</ele>
        <time>2021-05-26T14:06:32.000Z</time>
      </trkpt>
      <trkpt lat="43.84851" lon="2.8439">
        <ele>370</ele>
        <time>2021-05-26T14:06:44.000Z</time>
      </trkpt>
      <trkpt lat="43.84844" lon="2.84413">
        <ele>371.60000610352</ele>
        <time>2021-05-26T14:06:56.000Z</time>
      </trkpt>
      <trkpt lat="43.84836" lon="2.84437">
        <ele>371.60000610352</ele>
        <time>2021-05-26T14:07:08.000Z</time>
      </trkpt>
      <trkpt lat="43.84829" lon="2.84462">
        <ele>371.79998779297</ele>
        <time>2021-05-26T14:07:20.000Z</time>
      </trkpt>
      <trkpt lat="43.84825" lon="2.84486">
        <ele>372.60000610352</ele>
        <time>2021-05-26T14:07:32.000Z</time>
      </trkpt>
      <trkpt lat="43.84832" lon="2.84508">
        <ele>374.39999389648</ele>
        <time>2021-05-26T14:07:44.000Z</time>
      </trkpt>
      <trkpt lat="43.84848" lon="2.84525">
        <ele>375.60000610352</ele>
        <time>2021-05-26T14:07:55.000Z</time>
      </trkpt>
      <trkpt lat="43.84863" lon="2.84544">
        <ele>377</ele>
        <time>2021-05-26T14:08:03.000Z</time>
      </trkpt>
      <trkpt lat="43.84876" lon="2.84562">
        <ele>378.20001220703</ele>
        <time>2021-05-26T14:08:11.000Z</time>
      </trkpt>
      <trkpt lat="43.84891" lon="2.8458">
        <ele>379.39999389648</ele>
        <time>2021-05-26T14:08:19.000Z</time>
      </trkpt>
      <trkpt lat="43.84905" lon="2.84598">
        <ele>381</ele>
        <time>2021-05-26T14:08:27.000Z</time>
      </trkpt>
      <trkpt lat="43.84918" lon="2.84616">
        <ele>382.79998779297</ele>
        <time>2021-05-26T14:08:39.000Z</time>
      </trkpt>
      <trkpt lat="43.84932" lon="2.84633">
        <ele>384.60000610352</ele>
        <time>2021-05-26T14:08:52.000Z</time>
      </trkpt>
      <trkpt lat="43.84948" lon="2.84648">
        <ele>386</ele>
        <time>2021-05-26T14:09:05.000Z</time>
      </trkpt>
      <trkpt lat="43.84965" lon="2.84659">
        <ele>386.60000610352</ele>
        <time>2021-05-26T14:09:18.000Z</time>
      </trkpt>
      <trkpt lat="43.84981" lon="2.84672">
        <ele>387.60000610352</ele>
        <time>2021-05-26T14:09:32.000Z</time>
      </trkpt>
      <trkpt lat="43.84998" lon="2.84682">
        <ele>387.79998779297</ele>
        <time>2021-05-26T14:09:45.000Z</time>
      </trkpt>
      <trkpt lat="43.85013" lon="2.84696">
        <ele>387.79998779297</ele>
        <time>2021-05-26T14:09:58.000Z</time>
      </trkpt>
      <trkpt lat="43.85029" lon="2.84709">
        <ele>387.39999389648</ele>
        <time>2021-05-26T14:10:10.000Z</time>
      </trkpt>
      <trkpt lat="43.85043" lon="2.84725">
        <ele>386</ele>
        <time>2021-05-26T14:10:22.000Z</time>
      </trkpt>
      <trkpt lat="43.85058" lon="2.84742">
        <ele>384.60000610352</ele>
        <time>2021-05-26T14:10:34.000Z</time>
      </trkpt>
      <trkpt lat="43.85073" lon="2.84756">
        <ele>383.20001220703</ele>
        <time>2021-05-26T14:10:46.000Z</time>
      </trkpt>
      <trkpt lat="43.85088" lon="2.84773">
        <ele>381.60000610352</ele>
        <time>2021-05-26T14:11:00.000Z</time>
      </trkpt>
      <trkpt lat="43.85102" lon="2.84789">
        <ele>380</ele>
        <time>2021-05-26T14:11:12.000Z</time>
      </trkpt>
      <trkpt lat="43.85117" lon="2.84805">
        <ele>378.39999389648</ele>
        <time>2021-05-26T14:11:24.000Z</time>
      </trkpt>
      <trkpt lat="43.85129" lon="2.84824">
        <ele>377</ele>
        <time>2021-05-26T14:11:36.000Z</time>
      </trkpt>
      <trkpt lat="43.85141" lon="2.84845">
        <ele>375.60000610352</ele>
        <time>2021-05-26T14:11:49.000Z</time>
      </trkpt>
      <trkpt lat="43.85148" lon="2.84868">
        <ele>375</ele>
        <time>2021-05-26T14:12:02.000Z</time>
      </trkpt>
      <trkpt lat="43.8515" lon="2.84894">
        <ele>374.60000610352</ele>
        <time>2021-05-26T14:12:14.000Z</time>
      </trkpt>
      <trkpt lat="43.85155" lon="2.84918">
        <ele>374</ele>
        <time>2021-05-26T14:12:26.000Z</time>
      </trkpt>
      <trkpt lat="43.85161" lon="2.84942">
        <ele>373.60000610352</ele>
        <time>2021-05-26T14:12:38.000Z</time>
      </trkpt>
      <trkpt lat="43.85168" lon="2.84966">
        <ele>373.20001220703</ele>
        <time>2021-05-26T14:12:50.000Z</time>
      </trkpt>
      <trkpt lat="43.85175" lon="2.8499">
        <ele>373</ele>
        <time>2021-05-26T14:13:02.000Z</time>
      </trkpt>
      <trkpt lat="43.85181" lon="2.85015">
        <ele>372.79998779297</ele>
        <time>2021-05-26T14:13:14.000Z</time>
      </trkpt>
      <trkpt lat="43.85188" lon="2.85039">
        <ele>372.39999389648</ele>
        <time>2021-05-26T14:13:27.000Z</time>
      </trkpt>
      <trkpt lat="43.85192" lon="2.85064">
        <ele>372.39999389648</ele>
        <time>2021-05-26T14:13:40.000Z</time>
      </trkpt>
      <trkpt lat="43.85196" lon="2.85091">
        <ele>372.20001220703</ele>
        <time>2021-05-26T14:13:53.000Z</time>
      </trkpt>
      <trkpt lat="43.85198" lon="2.85116">
        <ele>372.60000610352</ele>
        <time>2021-05-26T14:14:05.000Z</time>
      </trkpt>
      <trkpt lat="43.85201" lon="2.85141">
        <ele>372.60000610352</ele>
        <time>2021-05-26T14:14:17.000Z</time>
      </trkpt>
      <trkpt lat="43.85203" lon="2.85166">
        <ele>373</ele>
        <time>2021-05-26T14:14:29.000Z</time>
      </trkpt>
      <trkpt lat="43.85205" lon="2.85192">
        <ele>372.79998779297</ele>
        <time>2021-05-26T14:14:42.000Z</time>
      </trkpt>
      <trkpt lat="43.85209" lon="2.85217">
        <ele>371.79998779297</ele>
        <time>2021-05-26T14:14:54.000Z</time>
      </trkpt>
      <trkpt lat="43.85212" lon="2.85242">
        <ele>370.79998779297</ele>
        <time>2021-05-26T14:15:06.000Z</time>
      </trkpt>
      <trkpt lat="43.85216" lon="2.85266">
        <ele>370.20001220703</ele>
        <time>2021-05-26T14:15:18.000Z</time>
      </trkpt>
      <trkpt lat="43.8522" lon="2.85291">
        <ele>369.60000610352</ele>
        <time>2021-05-26T14:15:30.000Z</time>
      </trkpt>
      <trkpt lat="43.85226" lon="2.85316">
        <ele>369</ele>
        <time>2021-05-26T14:15:42.000Z</time>
      </trkpt>
      <trkpt lat="43.8523" lon="2.85325">
        <ele>368.60000610352</ele>
        <time>2021-05-26T14:15:48.000Z</time>
      </trkpt>
      <trkpt lat="43.85232" lon="2.85337">
        <ele>368.39999389648</ele>
        <time>2021-05-26T14:15:54.000Z</time>
      </trkpt>
      <trkpt lat="43.85249" lon="2.8534">
        <ele>366.60000610352</ele>
        <time>2021-05-26T14:16:06.000Z</time>
      </trkpt>
      <trkpt lat="43.85264" lon="2.85326">
        <ele>365</ele>
        <time>2021-05-26T14:16:18.000Z</time>
      </trkpt>
      <trkpt lat="43.85282" lon="2.85323">
        <ele>363.79998779297</ele>
        <time>2021-05-26T14:16:30.000Z</time>
      </trkpt>
      <trkpt lat="43.85299" lon="2.85326">
        <ele>363.60000610352</ele>
        <time>2021-05-26T14:16:42.000Z</time>
      </trkpt>
      <trkpt lat="43.85318" lon="2.85325">
        <ele>363.39999389648</ele>
        <time>2021-05-26T14:16:53.000Z</time>
      </trkpt>
      <trkpt lat="43.85337" lon="2.85319">
        <ele>363.20001220703</ele>
        <time>2021-05-26T14:17:05.000Z</time>
      </trkpt>
      <trkpt lat="43.85356" lon="2.85316">
        <ele>362.79998779297</ele>
        <time>2021-05-26T14:17:18.000Z</time>
      </trkpt>
      <trkpt lat="43.85375" lon="2.8531">
        <ele>364</ele>
        <time>2021-05-26T14:17:31.000Z</time>
      </trkpt>
      <trkpt lat="43.8539" lon="2.85297">
        <ele>365</ele>
        <time>2021-05-26T14:17:42.000Z</time>
      </trkpt>
      <trkpt lat="43.85407" lon="2.85285">
        <ele>365.79998779297</ele>
        <time>2021-05-26T14:17:56.000Z</time>
      </trkpt>
      <trkpt lat="43.85421" lon="2.85268">
        <ele>366.20001220703</ele>
        <time>2021-05-26T14:18:09.000Z</time>
      </trkpt>
      <trkpt lat="43.85434" lon="2.8525">
        <ele>366.60000610352</ele>
        <time>2021-05-26T14:18:22.000Z</time>
      </trkpt>
      <trkpt lat="43.85447" lon="2.85231">
        <ele>366.60000610352</ele>
        <time>2021-05-26T14:18:35.000Z</time>
      </trkpt>
      <trkpt lat="43.85464" lon="2.85219">
        <ele>367.79998779297</ele>
        <time>2021-05-26T14:18:49.000Z</time>
      </trkpt>
      <trkpt lat="43.8548" lon="2.8521">
        <ele>369.20001220703</ele>
        <time>2021-05-26T14:19:04.000Z</time>
      </trkpt>
      <trkpt lat="43.85483" lon="2.85211">
        <ele>369.60000610352</ele>
        <time>2021-05-26T14:19:07.000Z</time>
      </trkpt>
      <trkpt lat="43.85501" lon="2.85217">
        <ele>372.20001220703</ele>
        <time>2021-05-26T14:19:23.000Z</time>
      </trkpt>
      <trkpt lat="43.8552" lon="2.8522">
        <ele>374.79998779297</ele>
        <time>2021-05-26T14:19:35.000Z</time>
      </trkpt>
      <trkpt lat="43.85538" lon="2.85227">
        <ele>376.20001220703</ele>
        <time>2021-05-26T14:19:48.000Z</time>
      </trkpt>
      <trkpt lat="43.85557" lon="2.85232">
        <ele>377.39999389648</ele>
        <time>2021-05-26T14:20:16.000Z</time>
      </trkpt>
      <trkpt lat="43.85575" lon="2.85233">
        <ele>378.60000610352</ele>
        <time>2021-05-26T14:20:29.000Z</time>
      </trkpt>
      <trkpt lat="43.85591" lon="2.85216">
        <ele>379.79998779297</ele>
        <time>2021-05-26T14:20:43.000Z</time>
      </trkpt>
      <trkpt lat="43.85607" lon="2.85201">
        <ele>381</ele>
        <time>2021-05-26T14:20:58.000Z</time>
      </trkpt>
      <trkpt lat="43.85623" lon="2.85186">
        <ele>378.79998779297</ele>
        <time>2021-05-26T14:21:11.000Z</time>
      </trkpt>
      <trkpt lat="43.8564" lon="2.85177">
        <ele>376.20001220703</ele>
        <time>2021-05-26T14:21:24.000Z</time>
      </trkpt>
      <trkpt lat="43.85655" lon="2.85163">
        <ele>373.39999389648</ele>
        <time>2021-05-26T14:21:36.000Z</time>
      </trkpt>
      <trkpt lat="43.85665" lon="2.85182">
        <ele>372.79998779297</ele>
        <time>2021-05-26T14:21:49.000Z</time>
      </trkpt>
      <trkpt lat="43.85672" lon="2.85205">
        <ele>372.20001220703</ele>
        <time>2021-05-26T14:22:05.000Z</time>
      </trkpt>
      <trkpt lat="43.85691" lon="2.85205">
        <ele>369.79998779297</ele>
        <time>2021-05-26T14:22:18.000Z</time>
      </trkpt>
      <trkpt lat="43.8571" lon="2.852">
        <ele>369.20001220703</ele>
        <time>2021-05-26T14:22:32.000Z</time>
      </trkpt>
      <trkpt lat="43.85728" lon="2.85193">
        <ele>368.60000610352</ele>
        <time>2021-05-26T14:22:43.000Z</time>
      </trkpt>
      <trkpt lat="43.85746" lon="2.85187">
        <ele>368</ele>
        <time>2021-05-26T14:22:55.000Z</time>
      </trkpt>
      <trkpt lat="43.85764" lon="2.85179">
        <ele>367.39999389648</ele>
        <time>2021-05-26T14:23:07.000Z</time>
      </trkpt>
      <trkpt lat="43.85782" lon="2.8517">
        <ele>368.79998779297</ele>
        <time>2021-05-26T14:23:20.000Z</time>
      </trkpt>
      <trkpt lat="43.858" lon="2.85163">
        <ele>372.60000610352</ele>
        <time>2021-05-26T14:23:32.000Z</time>
      </trkpt>
      <trkpt lat="43.85815" lon="2.85148">
        <ele>375.60000610352</ele>
        <time>2021-05-26T14:23:52.000Z</time>
      </trkpt>
      <trkpt lat="43.85822" lon="2.85125">
        <ele>377</ele>
        <time>2021-05-26T14:24:06.000Z</time>
      </trkpt>
      <trkpt lat="43.85831" lon="2.85101">
        <ele>378.79998779297</ele>
        <time>2021-05-26T14:24:21.000Z</time>
      </trkpt>
      <trkpt lat="43.85837" lon="2.85077">
        <ele>379.79998779297</ele>
        <time>2021-05-26T14:24:36.000Z</time>
      </trkpt>
      <trkpt lat="43.8584" lon="2.85051">
        <ele>380</ele>
        <time>2021-05-26T14:24:50.000Z</time>
      </trkpt>
      <trkpt lat="43.85842" lon="2.85026">
        <ele>380.20001220703</ele>
        <time>2021-05-26T14:25:03.000Z</time>
      </trkpt>
      <trkpt lat="43.85842" lon="2.85">
        <ele>380</ele>
        <time>2021-05-26T14:25:17.000Z</time>
      </trkpt>
      <trkpt lat="43.85843" lon="2.84974">
        <ele>380.79998779297</ele>
        <time>2021-05-26T14:25:30.000Z</time>
      </trkpt>
      <trkpt lat="43.85843" lon="2.84949">
        <ele>381.20001220703</ele>
        <time>2021-05-26T14:25:43.000Z</time>
      </trkpt>
      <trkpt lat="43.85842" lon="2.84922">
        <ele>381.79998779297</ele>
        <time>2021-05-26T14:25:57.000Z</time>
      </trkpt>
      <trkpt lat="43.85842" lon="2.84896">
        <ele>382.39999389648</ele>
        <time>2021-05-26T14:26:09.000Z</time>
      </trkpt>
      <trkpt lat="43.85837" lon="2.84876">
        <ele>382.20001220703</ele>
        <time>2021-05-26T14:26:32.000Z</time>
      </trkpt>
      <trkpt lat="43.8584" lon="2.84878">
        <ele>382.79998779297</ele>
        <time>2021-05-26T14:27:28.000Z</time>
      </trkpt>
      <trkpt lat="43.85831" lon="2.84872">
        <ele>380.79998779297</ele>
        <time>2021-05-26T14:28:05.000Z</time>
      </trkpt>
      <trkpt lat="43.8584" lon="2.84873">
        <ele>382.79998779297</ele>
        <time>2021-05-26T14:28:46.000Z</time>
      </trkpt>
      <trkpt lat="43.85857" lon="2.84873">
        <ele>386.79998779297</ele>
        <time>2021-05-26T14:29:01.000Z</time>
      </trkpt>
      <trkpt lat="43.85875" lon="2.84879">
        <ele>387.39999389648</ele>
        <time>2021-05-26T14:29:16.000Z</time>
      </trkpt>
      <trkpt lat="43.85892" lon="2.84887">
        <ele>388</ele>
        <time>2021-05-26T14:29:29.000Z</time>
      </trkpt>
      <trkpt lat="43.8591" lon="2.84896">
        <ele>388.60000610352</ele>
        <time>2021-05-26T14:29:42.000Z</time>
      </trkpt>
      <trkpt lat="43.85927" lon="2.84904">
        <ele>388.60000610352</ele>
        <time>2021-05-26T14:29:55.000Z</time>
      </trkpt>
      <trkpt lat="43.85944" lon="2.8491">
        <ele>388.60000610352</ele>
        <time>2021-05-26T14:30:20.000Z</time>
      </trkpt>
      <trkpt lat="43.85961" lon="2.84919">
        <ele>389.39999389648</ele>
        <time>2021-05-26T14:30:32.000Z</time>
      </trkpt>
      <trkpt lat="43.85979" lon="2.84928">
        <ele>390.20001220703</ele>
        <time>2021-05-26T14:30:45.000Z</time>
      </trkpt>
      <trkpt lat="43.85997" lon="2.84937">
        <ele>391</ele>
        <time>2021-05-26T14:30:57.000Z</time>
      </trkpt>
      <trkpt lat="43.86015" lon="2.84945">
        <ele>391.79998779297</ele>
        <time>2021-05-26T14:31:09.000Z</time>
      </trkpt>
      <trkpt lat="43.86033" lon="2.84951">
        <ele>393</ele>
        <time>2021-05-26T14:31:22.000Z</time>
      </trkpt>
      <trkpt lat="43.86051" lon="2.84957">
        <ele>394.39999389648</ele>
        <time>2021-05-26T14:31:34.000Z</time>
      </trkpt>
      <trkpt lat="43.86069" lon="2.84965">
        <ele>395.60000610352</ele>
        <time>2021-05-26T14:31:46.000Z</time>
      </trkpt>
      <trkpt lat="43.86088" lon="2.84967">
        <ele>396.39999389648</ele>
        <time>2021-05-26T14:31:59.000Z</time>
      </trkpt>
      <trkpt lat="43.86106" lon="2.84964">
        <ele>396.60000610352</ele>
        <time>2021-05-26T14:32:11.000Z</time>
      </trkpt>
      <trkpt lat="43.86123" lon="2.8496">
        <ele>397.60000610352</ele>
        <time>2021-05-26T14:32:24.000Z</time>
      </trkpt>
      <trkpt lat="43.86142" lon="2.84957">
        <ele>399</ele>
        <time>2021-05-26T14:32:37.000Z</time>
      </trkpt>
      <trkpt lat="43.8616" lon="2.84951">
        <ele>400.60000610352</ele>
        <time>2021-05-26T14:32:52.000Z</time>
      </trkpt>
      <trkpt lat="43.86179" lon="2.84945">
        <ele>402.20001220703</ele>
        <time>2021-05-26T14:33:07.000Z</time>
      </trkpt>
      <trkpt lat="43.86197" lon="2.84945">
        <ele>404</ele>
        <time>2021-05-26T14:33:20.000Z</time>
      </trkpt>
      <trkpt lat="43.86216" lon="2.84947">
        <ele>405.79998779297</ele>
        <time>2021-05-26T14:33:33.000Z</time>
      </trkpt>
      <trkpt lat="43.86234" lon="2.84955">
        <ele>407.79998779297</ele>
        <time>2021-05-26T14:33:46.000Z</time>
      </trkpt>
      <trkpt lat="43.8625" lon="2.8497">
        <ele>410</ele>
        <time>2021-05-26T14:33:59.000Z</time>
      </trkpt>
      <trkpt lat="43.86266" lon="2.84984">
        <ele>412.20001220703</ele>
        <time>2021-05-26T14:34:14.000Z</time>
      </trkpt>
      <trkpt lat="43.86282" lon="2.84997">
        <ele>414.60000610352</ele>
        <time>2021-05-26T14:34:27.000Z</time>
      </trkpt>
      <trkpt lat="43.86298" lon="2.85009">
        <ele>417.20001220703</ele>
        <time>2021-05-26T14:34:41.000Z</time>
      </trkpt>
      <trkpt lat="43.86314" lon="2.85024">
        <ele>418.39999389648</ele>
        <time>2021-05-26T14:34:58.000Z</time>
      </trkpt>
      <trkpt lat="43.8633" lon="2.85037">
        <ele>419.60000610352</ele>
        <time>2021-05-26T14:35:11.000Z</time>
      </trkpt>
      <trkpt lat="43.86347" lon="2.85044">
        <ele>421.60000610352</ele>
        <time>2021-05-26T14:35:24.000Z</time>
      </trkpt>
      <trkpt lat="43.86366" lon="2.85049">
        <ele>423.60000610352</ele>
        <time>2021-05-26T14:35:39.000Z</time>
      </trkpt>
      <trkpt lat="43.86384" lon="2.85057">
        <ele>425.20001220703</ele>
        <time>2021-05-26T14:35:52.000Z</time>
      </trkpt>
      <trkpt lat="43.864" lon="2.85073">
        <ele>426.20001220703</ele>
        <time>2021-05-26T14:36:05.000Z</time>
      </trkpt>
      <trkpt lat="43.8641" lon="2.85094">
        <ele>426.20001220703</ele>
        <time>2021-05-26T14:36:19.000Z</time>
      </trkpt>
      <trkpt lat="43.86425" lon="2.85111">
        <ele>426.39999389648</ele>
        <time>2021-05-26T14:36:34.000Z</time>
      </trkpt>
      <trkpt lat="43.86443" lon="2.85118">
        <ele>427.79998779297</ele>
        <time>2021-05-26T14:36:48.000Z</time>
      </trkpt>
      <trkpt lat="43.86457" lon="2.85133">
        <ele>427.39999389648</ele>
        <time>2021-05-26T14:37:01.000Z</time>
      </trkpt>
      <trkpt lat="43.86471" lon="2.85151">
        <ele>426.60000610352</ele>
        <time>2021-05-26T14:37:13.000Z</time>
      </trkpt>
      <trkpt lat="43.86481" lon="2.85174">
        <ele>425.60000610352</ele>
        <time>2021-05-26T14:37:25.000Z</time>
      </trkpt>
      <trkpt lat="43.86492" lon="2.85195">
        <ele>426.60000610352</ele>
        <time>2021-05-26T14:37:38.000Z</time>
      </trkpt>
      <trkpt lat="43.86502" lon="2.85215">
        <ele>427.79998779297</ele>
        <time>2021-05-26T14:37:50.000Z</time>
      </trkpt>
      <trkpt lat="43.86511" lon="2.85237">
        <ele>428.79998779297</ele>
        <time>2021-05-26T14:38:03.000Z</time>
      </trkpt>
      <trkpt lat="43.86523" lon="2.85256">
        <ele>430</ele>
        <time>2021-05-26T14:38:17.000Z</time>
      </trkpt>
      <trkpt lat="43.86537" lon="2.85275">
        <ele>431</ele>
        <time>2021-05-26T14:38:31.000Z</time>
      </trkpt>
      <trkpt lat="43.86549" lon="2.85294">
        <ele>431.60000610352</ele>
        <time>2021-05-26T14:38:44.000Z</time>
      </trkpt>
      <trkpt lat="43.86561" lon="2.85313">
        <ele>432.20001220703</ele>
        <time>2021-05-26T14:38:56.000Z</time>
      </trkpt>
      <trkpt lat="43.86572" lon="2.85333">
        <ele>432.79998779297</ele>
        <time>2021-05-26T14:39:08.000Z</time>
      </trkpt>
      <trkpt lat="43.86584" lon="2.85353">
        <ele>434.60000610352</ele>
        <time>2021-05-26T14:39:21.000Z</time>
      </trkpt>
      <trkpt lat="43.866" lon="2.85356">
        <ele>436.39999389648</ele>
        <time>2021-05-26T14:39:37.000Z</time>
      </trkpt>
      <trkpt lat="43.86616" lon="2.85341">
        <ele>436.20001220703</ele>
        <time>2021-05-26T14:39:50.000Z</time>
      </trkpt>
      <trkpt lat="43.86632" lon="2.85327">
        <ele>435.20001220703</ele>
        <time>2021-05-26T14:40:03.000Z</time>
      </trkpt>
      <trkpt lat="43.86649" lon="2.85317">
        <ele>434.60000610352</ele>
        <time>2021-05-26T14:40:16.000Z</time>
      </trkpt>
      <trkpt lat="43.86667" lon="2.85311">
        <ele>433.60000610352</ele>
        <time>2021-05-26T14:40:29.000Z</time>
      </trkpt>
      <trkpt lat="43.86685" lon="2.85313">
        <ele>432</ele>
        <time>2021-05-26T14:40:42.000Z</time>
      </trkpt>
      <trkpt lat="43.86703" lon="2.85321">
        <ele>432</ele>
        <time>2021-05-26T14:40:55.000Z</time>
      </trkpt>
      <trkpt lat="43.86718" lon="2.85325">
        <ele>432.20001220703</ele>
        <time>2021-05-26T14:41:07.000Z</time>
      </trkpt>
      <trkpt lat="43.86736" lon="2.85328">
        <ele>431.79998779297</ele>
        <time>2021-05-26T14:41:20.000Z</time>
      </trkpt>
      <trkpt lat="43.86752" lon="2.8532">
        <ele>430.20001220703</ele>
        <time>2021-05-26T14:41:32.000Z</time>
      </trkpt>
      <trkpt lat="43.86762" lon="2.85307">
        <ele>428.79998779297</ele>
        <time>2021-05-26T14:42:49.000Z</time>
      </trkpt>
      <trkpt lat="43.86763" lon="2.85306">
        <ele>428.79998779297</ele>
        <time>2021-05-26T14:42:51.000Z</time>
      </trkpt>
      <trkpt lat="43.86777" lon="2.85289">
        <ele>425.79998779297</ele>
        <time>2021-05-26T14:43:10.000Z</time>
      </trkpt>
      <trkpt lat="43.86789" lon="2.85269">
        <ele>421.20001220703</ele>
        <time>2021-05-26T14:43:25.000Z</time>
      </trkpt>
      <trkpt lat="43.86799" lon="2.85247">
        <ele>420.79998779297</ele>
        <time>2021-05-26T14:43:39.000Z</time>
      </trkpt>
      <trkpt lat="43.8681" lon="2.85235">
        <ele>418.20001220703</ele>
        <time>2021-05-26T14:44:33.000Z</time>
      </trkpt>
      <trkpt lat="43.86813" lon="2.85228">
        <ele>416.79998779297</ele>
        <time>2021-05-26T14:44:39.000Z</time>
      </trkpt>
      <trkpt lat="43.86824" lon="2.85207">
        <ele>414.79998779297</ele>
        <time>2021-05-26T14:44:53.000Z</time>
      </trkpt>
      <trkpt lat="43.86834" lon="2.85185">
        <ele>414.39999389648</ele>
        <time>2021-05-26T14:45:06.000Z</time>
      </trkpt>
      <trkpt lat="43.86841" lon="2.8516">
        <ele>413</ele>
        <time>2021-05-26T14:45:21.000Z</time>
      </trkpt>
      <trkpt lat="43.86851" lon="2.8514">
        <ele>412</ele>
        <time>2021-05-26T14:45:34.000Z</time>
      </trkpt>
      <trkpt lat="43.86864" lon="2.85121">
        <ele>409</ele>
        <time>2021-05-26T14:45:56.000Z</time>
      </trkpt>
      <trkpt lat="43.86872" lon="2.85108">
        <ele>406</ele>
        <time>2021-05-26T14:47:17.000Z</time>
      </trkpt>
      <trkpt lat="43.86879" lon="2.85085">
        <ele>405.20001220703</ele>
        <time>2021-05-26T14:47:31.000Z</time>
      </trkpt>
      <trkpt lat="43.86888" lon="2.85061">
        <ele>401</ele>
        <time>2021-05-26T14:47:45.000Z</time>
      </trkpt>
      <trkpt lat="43.86901" lon="2.85044">
        <ele>397.60000610352</ele>
        <time>2021-05-26T14:47:58.000Z</time>
      </trkpt>
      <trkpt lat="43.86912" lon="2.85024">
        <ele>396</ele>
        <time>2021-05-26T14:48:12.000Z</time>
      </trkpt>
      <trkpt lat="43.86923" lon="2.85003">
        <ele>394.20001220703</ele>
        <time>2021-05-26T14:48:27.000Z</time>
      </trkpt>
      <trkpt lat="43.86935" lon="2.84982">
        <ele>391.60000610352</ele>
        <time>2021-05-26T14:48:42.000Z</time>
      </trkpt>
      <trkpt lat="43.86945" lon="2.84962">
        <ele>387.39999389648</ele>
        <time>2021-05-26T14:48:58.000Z</time>
      </trkpt>
      <trkpt lat="43.86955" lon="2.84941">
        <ele>382.60000610352</ele>
        <time>2021-05-26T14:49:12.000Z</time>
      </trkpt>
      <trkpt lat="43.86965" lon="2.84918">
        <ele>379.39999389648</ele>
        <time>2021-05-26T14:49:26.000Z</time>
      </trkpt>
      <trkpt lat="43.86975" lon="2.84897">
        <ele>376.20001220703</ele>
        <time>2021-05-26T14:49:40.000Z</time>
      </trkpt>
      <trkpt lat="43.86982" lon="2.84873">
        <ele>373.39999389648</ele>
        <time>2021-05-26T14:49:55.000Z</time>
      </trkpt>
      <trkpt lat="43.86997" lon="2.84857">
        <ele>370.60000610352</ele>
        <time>2021-05-26T14:50:11.000Z</time>
      </trkpt>
      <trkpt lat="43.8701" lon="2.8484">
        <ele>367.79998779297</ele>
        <time>2021-05-26T14:50:25.000Z</time>
      </trkpt>
      <trkpt lat="43.87023" lon="2.84823">
        <ele>366</ele>
        <time>2021-05-26T14:50:38.000Z</time>
      </trkpt>
      <trkpt lat="43.87027" lon="2.84798">
        <ele>366</ele>
        <time>2021-05-26T14:50:50.000Z</time>
      </trkpt>
      <trkpt lat="43.87034" lon="2.84779">
        <ele>366.20001220703</ele>
        <time>2021-05-26T14:51:17.000Z</time>
      </trkpt>
      <trkpt lat="43.87041" lon="2.84756">
        <ele>365.20001220703</ele>
        <time>2021-05-26T14:51:29.000Z</time>
      </trkpt>
      <trkpt lat="43.87043" lon="2.8473">
        <ele>364.79998779297</ele>
        <time>2021-05-26T14:51:42.000Z</time>
      </trkpt>
      <trkpt lat="43.87047" lon="2.84704">
        <ele>364.20001220703</ele>
        <time>2021-05-26T14:51:55.000Z</time>
      </trkpt>
      <trkpt lat="43.87055" lon="2.8468">
        <ele>363.20001220703</ele>
        <time>2021-05-26T14:52:08.000Z</time>
      </trkpt>
      <trkpt lat="43.87064" lon="2.84657">
        <ele>362.20001220703</ele>
        <time>2021-05-26T14:52:21.000Z</time>
      </trkpt>
      <trkpt lat="43.8707" lon="2.84633">
        <ele>361.20001220703</ele>
        <time>2021-05-26T14:52:34.000Z</time>
      </trkpt>
      <trkpt lat="43.87067" lon="2.84608">
        <ele>360.79998779297</ele>
        <time>2021-05-26T14:52:47.000Z</time>
      </trkpt>
      <trkpt lat="43.87062" lon="2.84584">
        <ele>360.60000610352</ele>
        <time>2021-05-26T14:52:59.000Z</time>
      </trkpt>
      <trkpt lat="43.87065" lon="2.84558">
        <ele>360.39999389648</ele>
        <time>2021-05-26T14:53:11.000Z</time>
      </trkpt>
      <trkpt lat="43.87075" lon="2.84536">
        <ele>360.20001220703</ele>
        <time>2021-05-26T14:53:23.000Z</time>
      </trkpt>
      <trkpt lat="43.87088" lon="2.8452">
        <ele>359.79998779297</ele>
        <time>2021-05-26T14:53:36.000Z</time>
      </trkpt>
      <trkpt lat="43.87102" lon="2.84501">
        <ele>359.39999389648</ele>
        <time>2021-05-26T14:53:49.000Z</time>
      </trkpt>
      <trkpt lat="43.87115" lon="2.84483">
        <ele>359.39999389648</ele>
        <time>2021-05-26T14:54:02.000Z</time>
      </trkpt>
      <trkpt lat="43.87125" lon="2.84462">
        <ele>359.39999389648</ele>
        <time>2021-05-26T14:54:15.000Z</time>
      </trkpt>
      <trkpt lat="43.87136" lon="2.8444">
        <ele>359.20001220703</ele>
        <time>2021-05-26T14:54:28.000Z</time>
      </trkpt>
      <trkpt lat="43.87147" lon="2.84417">
        <ele>358.39999389648</ele>
        <time>2021-05-26T14:54:41.000Z</time>
      </trkpt>
      <trkpt lat="43.87159" lon="2.84397">
        <ele>357</ele>
        <time>2021-05-26T14:54:53.000Z</time>
      </trkpt>
      <trkpt lat="43.8716" lon="2.84393">
        <ele>356.79998779297</ele>
        <time>2021-05-26T14:55:36.000Z</time>
      </trkpt>
      <trkpt lat="43.87161" lon="2.84391">
        <ele>356.79998779297</ele>
        <time>2021-05-26T14:55:38.000Z</time>
      </trkpt>
      <trkpt lat="43.87171" lon="2.84376">
        <ele>356.79998779297</ele>
        <time>2021-05-26T14:56:01.000Z</time>
      </trkpt>
      <trkpt lat="43.87185" lon="2.84357">
        <ele>356.79998779297</ele>
        <time>2021-05-26T14:56:15.000Z</time>
      </trkpt>
      <trkpt lat="43.87197" lon="2.84337">
        <ele>356.79998779297</ele>
        <time>2021-05-26T14:56:27.000Z</time>
      </trkpt>
      <trkpt lat="43.87209" lon="2.84318">
        <ele>356.79998779297</ele>
        <time>2021-05-26T14:56:39.000Z</time>
      </trkpt>
      <trkpt lat="43.87224" lon="2.84302">
        <ele>356.60000610352</ele>
        <time>2021-05-26T14:56:52.000Z</time>
      </trkpt>
      <trkpt lat="43.87239" lon="2.84286">
        <ele>357.20001220703</ele>
        <time>2021-05-26T14:57:05.000Z</time>
      </trkpt>
      <trkpt lat="43.87253" lon="2.84269">
        <ele>358.20001220703</ele>
        <time>2021-05-26T14:57:18.000Z</time>
      </trkpt>
      <trkpt lat="43.87267" lon="2.84253">
        <ele>359</ele>
        <time>2021-05-26T14:57:31.000Z</time>
      </trkpt>
      <trkpt lat="43.8728" lon="2.84234">
        <ele>359.20001220703</ele>
        <time>2021-05-26T14:57:43.000Z</time>
      </trkpt>
      <trkpt lat="43.87295" lon="2.84219">
        <ele>358.60000610352</ele>
        <time>2021-05-26T14:57:56.000Z</time>
      </trkpt>
      <trkpt lat="43.87312" lon="2.84206">
        <ele>358</ele>
        <time>2021-05-26T14:58:09.000Z</time>
      </trkpt>
      <trkpt lat="43.87329" lon="2.84195">
        <ele>358.60000610352</ele>
        <time>2021-05-26T14:58:21.000Z</time>
      </trkpt>
      <trkpt lat="43.87346" lon="2.84182">
        <ele>359.39999389648</ele>
        <time>2021-05-26T14:58:34.000Z</time>
      </trkpt>
      <trkpt lat="43.8736" lon="2.84166">
        <ele>359.79998779297</ele>
        <time>2021-05-26T14:58:47.000Z</time>
      </trkpt>
      <trkpt lat="43.87371" lon="2.84143">
        <ele>359.20001220703</ele>
        <time>2021-05-26T14:59:01.000Z</time>
      </trkpt>
      <trkpt lat="43.87382" lon="2.84123">
        <ele>358.39999389648</ele>
        <time>2021-05-26T14:59:15.000Z</time>
      </trkpt>
      <trkpt lat="43.87395" lon="2.84105">
        <ele>358</ele>
        <time>2021-05-26T14:59:28.000Z</time>
      </trkpt>
      <trkpt lat="43.87412" lon="2.84091">
        <ele>357.20001220703</ele>
        <time>2021-05-26T14:59:42.000Z</time>
      </trkpt>
      <trkpt lat="43.87428" lon="2.8408">
        <ele>355.39999389648</ele>
        <time>2021-05-26T14:59:53.000Z</time>
      </trkpt>
      <trkpt lat="43.87444" lon="2.84067">
        <ele>354.79998779297</ele>
        <time>2021-05-26T15:00:05.000Z</time>
      </trkpt>
      <trkpt lat="43.87461" lon="2.84054">
        <ele>354.20001220703</ele>
        <time>2021-05-26T15:00:18.000Z</time>
      </trkpt>
      <trkpt lat="43.87478" lon="2.8404">
        <ele>353.60000610352</ele>
        <time>2021-05-26T15:00:30.000Z</time>
      </trkpt>
      <trkpt lat="43.87492" lon="2.84024">
        <ele>353</ele>
        <time>2021-05-26T15:00:43.000Z</time>
      </trkpt>
      <trkpt lat="43.87506" lon="2.84005">
        <ele>352.60000610352</ele>
        <time>2021-05-26T15:00:56.000Z</time>
      </trkpt>
      <trkpt lat="43.87519" lon="2.83987">
        <ele>351.60000610352</ele>
        <time>2021-05-26T15:01:08.000Z</time>
      </trkpt>
      <trkpt lat="43.87532" lon="2.8397">
        <ele>350.20001220703</ele>
        <time>2021-05-26T15:01:21.000Z</time>
      </trkpt>
      <trkpt lat="43.87547" lon="2.83954">
        <ele>349</ele>
        <time>2021-05-26T15:01:35.000Z</time>
      </trkpt>
      <trkpt lat="43.87565" lon="2.83946">
        <ele>347.79998779297</ele>
        <time>2021-05-26T15:01:48.000Z</time>
      </trkpt>
      <trkpt lat="43.87584" lon="2.83939">
        <ele>346.60000610352</ele>
        <time>2021-05-26T15:02:01.000Z</time>
      </trkpt>
      <trkpt lat="43.87598" lon="2.83922">
        <ele>345.39999389648</ele>
        <time>2021-05-26T15:02:13.000Z</time>
      </trkpt>
      <trkpt lat="43.8761" lon="2.83902">
        <ele>344.20001220703</ele>
        <time>2021-05-26T15:02:24.000Z</time>
      </trkpt>
      <trkpt lat="43.8762" lon="2.83881">
        <ele>343.20001220703</ele>
        <time>2021-05-26T15:02:36.000Z</time>
      </trkpt>
      <trkpt lat="43.87631" lon="2.83863">
        <ele>342.20001220703</ele>
        <time>2021-05-26T15:02:47.000Z</time>
      </trkpt>
      <trkpt lat="43.87643" lon="2.83842">
        <ele>341.60000610352</ele>
        <time>2021-05-26T15:03:00.000Z</time>
      </trkpt>
      <trkpt lat="43.87656" lon="2.83824">
        <ele>341.39999389648</ele>
        <time>2021-05-26T15:03:12.000Z</time>
      </trkpt>
      <trkpt lat="43.87669" lon="2.83805">
        <ele>341.39999389648</ele>
        <time>2021-05-26T15:03:24.000Z</time>
      </trkpt>
      <trkpt lat="43.87681" lon="2.83785">
        <ele>341.60000610352</ele>
        <time>2021-05-26T15:03:37.000Z</time>
      </trkpt>
      <trkpt lat="43.87693" lon="2.83766">
        <ele>341.79998779297</ele>
        <time>2021-05-26T15:03:49.000Z</time>
      </trkpt>
      <trkpt lat="43.87705" lon="2.83745">
        <ele>341.79998779297</ele>
        <time>2021-05-26T15:04:02.000Z</time>
      </trkpt>
      <trkpt lat="43.87717" lon="2.83726">
        <ele>341.60000610352</ele>
        <time>2021-05-26T15:04:14.000Z</time>
      </trkpt>
      <trkpt lat="43.87729" lon="2.83706">
        <ele>341.60000610352</ele>
        <time>2021-05-26T15:04:26.000Z</time>
      </trkpt>
      <trkpt lat="43.8774" lon="2.83684">
        <ele>342.39999389648</ele>
        <time>2021-05-26T15:04:44.000Z</time>
      </trkpt>
      <trkpt lat="43.87745" lon="2.83672">
        <ele>342.60000610352</ele>
        <time>2021-05-26T15:04:51.000Z</time>
      </trkpt>
    </trkseg>
  </trk>
</gpx>